[[{"header":{"parameterUnit":"m.s-1","parameterCategory":1,"la1":30.6,"la2":28.766,"lo1":-90.7593,"lo2":-88.6598,"dy":0.0162,"dx":0.0183,"nx":116,"ny":114,"refTime":"2023-03-04T18:00:00:Z","depth":0,"parameterNumber":2,"parameterNumberName":"U-component_of_WINDS"},"data":[0.0,0.0,0.0,0.0,0.0,0.0,0.0,0.0,0.0,0.0,0.0,0.0,0.0,0.0,0.0,0.0,0.0,0.0,0.0,0.0,0.0,0.0,0.0,0.0,0.0,0.0,0.0,0.0,0.0,0.0,0.0,0.0,0.0,0.0,0.0,0.0,0.0,0.0,0.0,0.0,0.0,0.0,0.0,0.0,0.0,0.0,0.0,0.0,0.0,0.0,0.0,0.0,0.0,0.0,0.0,0.0,0.0,0.0,0.0,0.0,0.0,0.0,0.0,0.0,0.0,0.0,0.0,0.0,0.0,0.0,0.0,0.0,0.0,0.0,0.0,0.0,0.0,0.0,0.0,0.0,0.0,0.0,0.0,0.0,0.0,0.0,0.0,0.0,0.0,0.0,0.0,0.0,0.0,0.0,0.0,0.0,0.0,0.0,0.0,0.0,0.0,0.0,0.0,0.0,0.0,0.0,0.0,0.0,0.0,0.0,0.0,0.0,0.0,0.0,0.0,0.0,0.0,0.0,0.0,0.0,0.0,0.0,0.0,0.0,0.0,0.0,0.0,0.0,0.0,0.0,0.0,0.0,0.0,0.0,0.0,0.0,0.0,0.0,0.0,0.0,0.0,0.0,0.0,0.0,0.0,0.0,0.0,0.0,0.0,0.0,0.0,0.0,0.0,0.0,0.0,0.0,0.0,0.0,0.0,0.0,0.0,0.0,0.0,0.0,0.0,0.0,0.0,0.0,0.0,0.0,0.0,0.0,0.0,0.0,0.0,0.0,0.0,0.0,0.0,0.0,0.0,0.0,0.0,0.0,0.0,0.0,0.0,0.0,0.0,0.0,0.0,0.0,0.0,0.0,0.0,0.0,0.0,0.0,0.0,0.0,0.0,0.0,0.0,0.0,0.0,0.0,0.0,0.0,0.0,0.0,0.0,0.0,0.0,0.0,0.0,0.0,0.0,0.0,0.0,0.0,0.0,0.0,0.0,0.0,0.0,0.0,0.0,0.0,0.0,0.0,0.0,0.0,0.0,0.0,0.0,0.0,0.0,0.0,0.0,0.0,0.0,0.0,0.0,0.0,0.0,0.0,0.0,0.0,0.0,0.0,0.0,0.0,0.0,0.0,0.0,0.0,0.0,0.0,0.0,0.0,0.0,0.0,0.0,0.0,0.0,0.0,0.0,0.0,0.0,0.0,0.0,0.0,0.0,0.0,0.0,0.0,0.0,0.0,0.0,0.0,0.0,0.0,0.0,0.0,0.0,0.0,0.0,0.0,0.0,0.0,0.0,0.0,0.0,0.0,0.0,0.0,0.0,0.0,0.0,0.0,0.0,0.0,0.0,0.0,0.0,0.0,0.0,0.0,0.0,0.0,0.0,0.0,0.0,0.0,0.0,0.0,0.0,0.0,0.0,0.0,0.0,0.0,0.0,0.0,0.0,0.0,0.0,0.0,0.0,0.0,0.0,0.0,0.0,0.0,0.0,0.0,0.0,0.0,0.0,0.0,0.0,0.0,0.0,0.0,0.0,0.0,0.0,0.0,0.0,0.0,0.0,0.0,0.0,0.0,0.0,0.0,0.0,0.0,0.0,0.0,0.0,0.0,0.0,0.0,0.0,0.0,0.0,0.0,0.0,0.0,0.0,0.0,0.0,0.0,0.0,0.0,0.0,0.0,0.0,0.0,0.0,0.0,0.0,0.0,0.0,0.0,0.0,0.0,0.0,0.0,0.0,0.0,0.0,0.0,0.0,0.0,0.0,0.0,0.0,0.0,0.0,0.0,0.0,0.0,0.0,0.0,0.0,0.0,0.0,0.0,0.0,0.0,0.0,0.0,0.0,0.0,0.0,0.0,0.0,0.0,0.0,0.0,0.0,0.0,0.0,0.0,0.0,0.0,0.0,0.0,0.0,0.0,0.0,0.0,0.0,0.0,0.0,0.0,0.0,0.0,0.0,0.0,0.0,0.0,0.0,0.0,0.0,0.0,0.0,0.0,0.0,0.0,0.0,0.0,0.0,0.0,0.0,0.0,0.0,0.0,0.0,0.0,0.0,0.0,0.0,0.0,0.0,0.0,0.0,0.0,0.0,0.0,0.0,0.0,0.0,0.0,0.0,0.0,0.0,0.0,0.0,0.0,0.0,0.0,0.0,0.0,0.0,0.0,0.0,0.0,0.0,0.0,0.0,0.0,0.0,0.0,0.0,0.0,0.0,0.0,0.0,0.0,0.0,0.0,0.0,0.0,0.0,0.0,0.0,0.0,0.0,0.0,0.0,0.0,0.0,0.0,0.0,0.0,0.0,0.0,0.0,0.0,0.0,0.0,0.0,0.0,0.0,0.0,0.0,0.0,0.0,0.0,0.0,0.0,0.0,0.0,0.0,0.0,0.0,0.0,0.0,0.0,0.0,0.0,0.0,0.0,0.0,0.0,0.0,0.0,0.0,0.0,0.0,0.0,0.0,0.0,0.0,0.0,0.0,0.0,0.0,0.0,0.0,0.0,0.0,0.0,0.0,0.0,0.0,0.0,0.0,0.0,0.0,0.0,0.0,0.0,0.0,0.0,0.0,0.0,0.0,0.0,0.0,0.0,0.0,0.0,0.0,0.0,0.0,0.0,0.0,0.0,0.0,0.0,0.0,0.0,0.0,0.0,0.0,0.0,0.0,0.0,0.0,0.0,0.0,0.0,0.0,0.0,0.0,0.0,0.0,0.0,0.0,0.0,0.0,0.0,0.0,0.0,0.0,0.0,0.0,0.0,0.0,0.0,0.0,0.0,0.0,0.0,0.0,0.0,0.0,0.0,0.0,0.0,0.0,0.0,0.0,0.0,0.0,0.0,0.0,0.0,0.0,0.0,0.0,0.0,0.0,0.0,0.0,0.0,0.0,0.0,0.0,0.0,0.0,0.0,0.0,0.0,0.0,0.0,0.0,0.0,0.0,0.0,0.0,0.0,0.0,0.0,0.0,0.0,0.0,0.0,0.0,0.0,0.0,0.0,0.0,0.0,0.0,0.0,0.0,0.0,0.0,0.0,0.0,0.0,0.0,0.0,0.0,0.0,0.0,0.0,0.0,0.0,0.0,0.0,0.0,0.0,0.0,0.0,0.0,0.0,0.0,0.0,0.0,0.0,0.0,0.0,0.0,0.0,0.0,0.0,0.0,0.0,0.0,0.0,0.0,0.0,0.0,0.0,0.0,0.0,0.0,0.0,0.0,0.0,0.0,0.0,0.0,0.0,0.0,0.0,0.0,0.0,0.0,0.0,0.0,0.0,0.0,0.0,0.0,0.0,0.0,0.0,0.0,0.0,0.0,0.0,0.0,0.0,0.0,0.0,0.0,0.0,0.0,0.0,0.0,0.0,0.0,0.0,0.0,0.0,0.0,0.0,0.0,0.0,0.0,0.0,0.0,0.0,0.0,0.0,0.0,0.0,0.0,0.0,0.0,0.0,0.0,0.0,0.0,0.0,0.0,0.0,0.0,0.0,0.0,0.0,0.0,0.0,0.0,0.0,0.0,0.0,0.0,0.0,0.0,0.0,0.0,0.0,0.0,0.0,0.0,0.0,0.0,0.0,0.0,0.0,0.0,0.0,0.0,0.0,0.0,0.0,0.0,0.0,0.0,0.0,0.0,0.0,0.0,0.0,0.0,0.0,0.0,0.0,0.0,0.0,0.0,0.0,0.0,0.0,0.0,0.0,0.0,0.0,0.0,0.0,0.0,0.0,0.0,0.0,0.0,0.0,0.0,0.0,0.0,0.0,0.0,0.0,0.0,0.0,0.0,0.0,0.0,0.0,0.0,0.0,0.0,0.0,0.0,0.0,0.0,0.0,0.0,0.0,0.0,0.0,0.0,0.0,0.0,0.0,0.0,0.0,0.0,0.0,0.0,0.0,0.0,0.0,0.0,0.0,0.0,0.0,0.0,0.0,0.0,0.0,0.0,0.0,0.0,0.0,0.0,0.0,0.0,0.0,0.0,0.0,0.0,0.0,0.0,0.0,0.0,0.0,0.0,0.0,0.0,0.0,0.0,0.0,0.0,0.0,0.0,0.0,0.0,0.0,0.0,0.0,0.0,0.0,0.0,0.0,0.0,0.0,0.0,0.0,0.0,0.0,0.0,0.0,0.0,0.0,0.0,0.0,0.0,0.0,0.0,0.0,0.0,0.0,0.0,0.0,0.0,0.0,0.0,0.0,0.0,0.0,0.0,0.0,0.0,0.0,0.0,0.0,0.0,0.0,0.0,0.0,0.0,0.0,0.0,0.0,0.0,0.0,0.0,0.0,0.0,0.0,0.0,0.0,0.0,0.0,0.0,0.0,0.0,0.0,0.0,0.0,0.0,0.0,0.0,0.0,0.0,0.0,0.0,0.0,0.0,0.0,0.0,0.0,0.0,0.0,0.0,0.0,0.0,0.0,0.0,0.0,0.0,0.0,0.0,0.0,0.0,0.0,0.0,0.0,0.0,0.0,0.0,0.0,0.0,0.0,0.0,0.0,0.0,0.0,0.0,0.0,0.0,0.0,0.0,0.0,0.0,0.0,0.0,0.0,0.0,0.0,0.0,0.0,0.0,0.0,0.0,0.0,0.0,0.0,0.0,0.0,0.0,0.0,0.0,0.0,0.0,0.0,0.0,0.0,0.0,0.0,0.0,0.0,0.0,0.0,0.0,0.0,0.0,0.0,0.0,0.0,0.0,0.0,0.0,0.0,0.0,0.0,0.0,0.0,0.0,0.0,0.0,0.0,0.0,0.0,0.0,0.0,0.0,0.0,0.0,0.0,0.0,0.0,0.0,0.0,0.0,0.0,0.0,0.0,0.0,0.0,0.0,0.0,0.0,0.0,0.0,0.0,0.0,0.0,0.0,0.0,0.0,0.0,0.0,0.0,0.0,0.0,0.0,0.0,0.0,0.0,0.0,0.0,0.0,0.0,0.0,0.0,0.0,0.0,0.0,0.0,0.0,0.0,0.0,0.0,0.0,0.0,0.0,0.0,0.0,0.0,0.0,0.0,0.0,0.0,0.0,0.0,0.0,0.0,0.0,0.0,0.0,0.0,0.0,0.0,0.0,0.0,0.0,0.0,0.0,0.0,0.0,0.0,0.0,0.0,0.0,0.0,0.0,0.0,0.0,0.0,0.0,0.0,0.0,0.0,0.0,0.0,0.0,0.0,0.0,0.0,0.0,0.0,0.0,0.0,0.0,0.0,0.0,0.0,0.0,0.0,0.0,0.0,0.0,0.0,0.0,0.0,0.0,0.0,0.0,0.0,0.0,0.0,0.0,0.0,0.0,0.0,0.0,0.0,0.0,0.0,0.0,0.0,0.0,0.0,0.0,0.0,0.0,0.0,0.0,0.0,0.0,0.0,0.0,0.0,0.0,0.0,0.0,0.0,0.0,0.0,0.0,0.0,0.0,0.0,0.0,0.0,0.0,0.0,0.0,0.0,0.0,0.0,0.0,0.0,0.0,0.0,0.0,0.0,0.0,0.0,0.0,0.0,0.0,0.0,0.0,0.0,0.0,0.0,0.0,0.0,0.0,0.0,0.0,0.0,0.0,0.0,0.0,0.0,0.0,0.0,0.0,0.0,0.0,0.0,0.0,0.0,0.0,0.0,0.0,0.0,0.0,0.0,0.0,0.0,0.0,0.0,0.0,0.0,0.0,0.0,0.0,0.0,0.0,0.0,0.0,0.0,0.0,0.0,0.0,0.0,0.0,0.0,0.0,0.0,0.0,0.0,0.0,0.0,0.0,0.0,0.0,0.0,0.0,0.0,0.0,0.0,0.0,0.0,0.0,0.0,0.0,0.0,0.0,0.0,0.0,0.0,0.0,0.0,0.0,0.0,0.0,0.0,0.0,0.0,0.0,0.0,0.0,0.0,0.0,0.0,0.0,0.0,0.0,0.0,0.0,0.0,0.0,0.0,0.0,0.0,0.0,0.0,0.0,0.0,0.0,0.0,0.0,0.0,0.0,0.0,0.0,0.0,0.0,0.0,0.0,0.0,0.0,0.0,0.0,0.0,0.0,0.0,0.0,0.0,0.0,0.0,0.0,0.0,0.0,0.0,0.0,0.0,0.0,0.0,0.0,0.0,0.0,0.0,0.0,0.0,0.0,0.0,-4.0354,0.0,0.0,0.0,0.0,0.0,0.0,0.0,0.0,0.0,0.0,0.0,0.0,0.0,0.0,0.0,0.0,0.0,0.0,0.0,0.0,0.0,0.0,0.0,0.0,0.0,0.0,0.0,0.0,0.0,0.0,0.0,0.0,0.0,0.0,0.0,0.0,0.0,0.0,0.0,0.0,0.0,0.0,0.0,0.0,0.0,0.0,0.0,0.0,0.0,0.0,0.0,0.0,0.0,0.0,0.0,0.0,0.0,0.0,0.0,0.0,0.0,0.0,0.0,0.0,0.0,0.0,0.0,0.0,0.0,0.0,0.0,0.0,0.0,0.0,0.0,0.0,0.0,0.0,0.0,0.0,0.0,0.0,0.0,0.0,0.0,0.0,0.0,0.0,0.0,0.0,0.0,0.0,0.0,0.0,0.0,0.0,0.0,0.0,0.0,0.0,0.0,0.0,0.0,0.0,0.0,0.0,0.0,0.0,0.0,0.0,0.0,0.0,0.0,0.0,0.0,0.0,-4.0407,0.0,0.0,0.0,0.0,0.0,0.0,0.0,0.0,0.0,0.0,0.0,0.0,0.0,0.0,0.0,0.0,0.0,0.0,0.0,0.0,0.0,0.0,0.0,0.0,0.0,0.0,0.0,0.0,0.0,0.0,0.0,0.0,0.0,0.0,0.0,0.0,0.0,0.0,0.0,0.0,0.0,0.0,0.0,0.0,0.0,0.0,0.0,0.0,0.0,0.0,0.0,0.0,0.0,0.0,0.0,0.0,0.0,0.0,0.0,0.0,0.0,0.0,0.0,0.0,0.0,0.0,0.0,0.0,0.0,0.0,0.0,0.0,0.0,0.0,0.0,0.0,0.0,0.0,0.0,0.0,0.0,0.0,0.0,0.0,0.0,0.0,0.0,0.0,0.0,0.0,0.0,0.0,0.0,0.0,0.0,0.0,0.0,0.0,0.0,0.0,0.0,0.0,0.0,0.0,0.0,0.0,0.0,0.0,-3.9689,-3.9792,-3.9986,-4.0057,-4.0137,-4.0206,-4.0326,-4.0379,-4.0415,-4.0476,0.0,0.0,0.0,0.0,0.0,0.0,0.0,0.0,0.0,0.0,0.0,0.0,0.0,0.0,0.0,0.0,0.0,0.0,0.0,0.0,0.0,0.0,0.0,0.0,0.0,0.0,0.0,0.0,0.0,0.0,0.0,0.0,0.0,0.0,0.0,0.0,0.0,0.0,-2.9486,-2.966,-2.9829,-2.9999,-3.0373,0.0,0.0,0.0,0.0,0.0,0.0,0.0,0.0,0.0,0.0,0.0,0.0,0.0,0.0,0.0,0.0,0.0,0.0,0.0,0.0,0.0,0.0,0.0,0.0,0.0,0.0,0.0,0.0,0.0,0.0,0.0,0.0,0.0,0.0,0.0,0.0,0.0,0.0,0.0,0.0,0.0,0.0,0.0,-3.9007,-3.8862,0.0,0.0,0.0,0.0,0.0,0.0,0.0,0.0,0.0,0.0,0.0,0.0,0.0,-3.9301,-3.9418,-3.9482,-3.9508,-3.9526,-3.9635,-3.977,-3.9911,-4.0036,-4.0137,-4.0206,-4.0271,0.0,-4.0415,-4.0476,0.0,0.0,0.0,0.0,0.0,0.0,0.0,0.0,0.0,0.0,0.0,0.0,0.0,0.0,0.0,0.0,0.0,0.0,0.0,0.0,0.0,0.0,0.0,0.0,0.0,0.0,0.0,0.0,0.0,0.0,0.0,0.0,0.0,0.0,0.0,0.0,-2.8934,-2.8972,-2.9016,-2.9217,-2.9427,-2.9635,-2.9966,-3.0265,-3.0552,-3.0649,0.0,0.0,0.0,0.0,0.0,0.0,0.0,0.0,0.0,0.0,0.0,0.0,0.0,0.0,0.0,0.0,0.0,0.0,0.0,0.0,0.0,0.0,0.0,0.0,0.0,0.0,0.0,0.0,0.0,0.0,0.0,0.0,0.0,0.0,0.0,0.0,0.0,0.0,0.0,-3.8623,-3.886,-3.9261,-3.958,-3.9951,0.0,0.0,0.0,0.0,0.0,0.0,0.0,0.0,0.0,-3.9036,-3.9101,-3.917,-3.9229,-3.9821,-4.0169,-4.0234,-4.0754,-4.1091,-4.1245,-4.1347,-4.1453,-4.1547,-4.1657,-4.1475,-4.1042,-4.0666,-4.0535,-4.0607,0.0,0.0,0.0,0.0,-4.0778,-4.0797,0.0,0.0,0.0,0.0,0.0,0.0,0.0,0.0,0.0,0.0,0.0,0.0,0.0,0.0,0.0,-3.2473,0.0,0.0,0.0,0.0,0.0,0.0,0.0,0.0,0.0,0.0,0.0,0.0,-2.8293,-2.8358,-2.8417,-2.8615,-2.8877,-2.9169,-2.9467,-2.9897,-3.0425,-3.0539,-3.0642,0.0,0.0,0.0,0.0,0.0,0.0,0.0,0.0,0.0,0.0,0.0,0.0,0.0,0.0,0.0,0.0,0.0,0.0,0.0,0.0,0.0,0.0,0.0,0.0,0.0,0.0,0.0,0.0,0.0,0.0,0.0,0.0,0.0,0.0,0.0,0.0,0.0,0.0,-3.8855,-3.9035,-3.9788,-3.9994,-4.0323,0.0,0.0,0.0,0.0,0.0,0.0,-4.0241,-3.9715,-3.943,-3.9493,-3.9593,-3.9647,-3.9662,-4.0449,-4.0923,-4.1017,-4.1683,-4.2083,-4.2234,-4.2354,-4.2439,-4.2558,-4.2683,-4.2421,-4.1839,-4.1112,-4.0707,-4.0558,-4.058,-4.0644,-4.0712,-4.068,-4.0726,-4.0778,0.0,0.0,0.0,0.0,0.0,0.0,0.0,0.0,0.0,0.0,0.0,0.0,0.0,0.0,-3.1571,-3.2157,-3.2132,-3.1619,0.0,0.0,0.0,0.0,0.0,0.0,0.0,0.0,0.0,-2.7454,-2.7527,-2.7599,-2.7672,-2.7847,-2.8179,-2.8566,-2.889,-2.9476,-3.0222,-3.0424,-3.0579,-3.0718,0.0,0.0,0.0,0.0,0.0,0.0,0.0,0.0,0.0,0.0,0.0,0.0,0.0,0.0,0.0,0.0,0.0,0.0,0.0,0.0,0.0,0.0,0.0,0.0,0.0,0.0,0.0,0.0,0.0,0.0,0.0,0.0,0.0,0.0,0.0,0.0,0.0,0.0,0.0,-4.0294,-4.0979,0.0,0.0,0.0,0.0,-4.1887,-4.1885,-4.1589,-4.0889,-4.0816,-4.0899,-4.108,-4.1096,-4.1125,-4.1185,-4.1427,-4.1538,-4.1553,-4.1851,-4.2004,-4.2031,-4.2276,-4.2412,-4.2424,-4.2555,-4.2654,-4.267,-4.193,-4.1146,-4.0422,-4.0481,-4.0511,-4.0518,-4.0581,-4.0654,-4.0694,0.0,0.0,0.0,0.0,0.0,0.0,0.0,0.0,0.0,0.0,0.0,0.0,0.0,-3.0814,-3.0828,-3.0382,-3.0616,-3.0311,-2.9247,0.0,0.0,0.0,0.0,0.0,0.0,0.0,-2.6822,-2.6757,-2.679,-2.6822,-2.6903,-2.7141,-2.746,-2.7816,-2.8268,-2.8891,-2.9585,-3.01,-3.0433,-3.0655,-3.0767,-3.0801,0.0,0.0,0.0,0.0,0.0,0.0,0.0,0.0,0.0,0.0,0.0,0.0,0.0,0.0,0.0,0.0,0.0,0.0,0.0,0.0,0.0,0.0,0.0,0.0,0.0,0.0,0.0,0.0,0.0,0.0,0.0,0.0,0.0,0.0,0.0,0.0,0.0,-4.0844,-4.1206,0.0,-4.2065,-4.2469,-4.26,-4.2368,-4.1939,-4.156,-4.1307,-4.0924,-4.0738,-4.0806,-4.0943,-4.1026,-4.104,-4.177,-4.2139,-4.2186,-4.2917,-4.3322,-4.3418,-4.3649,-4.3799,-4.3901,-4.4023,-4.3806,-4.3363,-4.3042,-4.2268,-4.1189,-4.0699,-4.0508,-4.0519,-4.0576,-4.0612,-4.0628,0.0,0.0,0.0,0.0,0.0,0.0,0.0,0.0,0.0,0.0,0.0,-3.0241,-2.9996,-3.0215,-3.0082,-2.9286,-2.9427,-2.9208,-2.8393,0.0,0.0,0.0,0.0,0.0,0.0,-2.6089,-2.5982,-2.5821,-2.5821,-2.5857,-2.5895,-2.6179,-2.6522,-2.693,-2.7537,-2.818,-2.8909,-2.9603,-3.0142,-3.054,-3.071,-3.078,-3.0796,0.0,0.0,0.0,0.0,0.0,0.0,0.0,0.0,0.0,0.0,0.0,0.0,0.0,0.0,0.0,0.0,0.0,0.0,0.0,0.0,0.0,0.0,0.0,0.0,0.0,0.0,0.0,0.0,0.0,0.0,0.0,0.0,0.0,0.0,0.0,-4.069,-4.1393,-4.1542,-4.1777,-4.2213,-4.2369,-4.2432,-4.2432,-4.2027,-4.1781,-4.1802,-4.1411,-4.1252,-4.1343,-4.1469,-4.1557,-4.1646,-4.2331,-4.2724,-4.2857,-4.3553,-4.3986,-4.4136,-4.4321,-4.4477,-4.4632,-4.4764,-4.4536,-4.4075,-4.3759,-4.2992,-4.1934,-4.0856,-4.0444,-4.0473,-4.0535,-4.058,-4.0593,0.0,0.0,0.0,0.0,0.0,0.0,0.0,0.0,0.0,0.0,-3.0314,-3.0114,-2.9913,-2.9598,-2.931,-2.91,-2.8718,-2.8344,-2.7996,-2.7604,0.0,0.0,0.0,0.0,-2.5368,-2.5214,-2.5001,-2.4672,-2.4672,-2.4652,-2.4672,-2.5008,-2.5414,-2.5877,-2.6621,-2.7402,-2.8216,-2.8931,-2.9665,-3.0356,-3.0594,-3.074,-3.0796,0.0,0.0,0.0,0.0,0.0,0.0,0.0,0.0,0.0,0.0,0.0,0.0,0.0,0.0,0.0,0.0,0.0,0.0,0.0,0.0,0.0,0.0,0.0,0.0,0.0,0.0,0.0,0.0,0.0,0.0,0.0,0.0,0.0,-3.9911,-4.0508,-4.1206,-4.1917,-4.1984,-4.1984,-4.1984,-4.2037,-4.2082,-4.2082,-4.2225,-4.231,-4.2391,-4.2391,-4.2512,-4.2764,-4.2783,-4.2879,-4.3086,-4.3142,-4.3268,-4.3479,-4.3614,-4.3795,-4.3989,-4.4136,-4.4302,-4.4501,-4.4565,-4.4712,-4.4826,-4.4061,-4.335,-4.2579,-4.0968,-4.0349,-4.0417,-4.0463,-4.0531,-4.06,0.0,0.0,0.0,0.0,0.0,0.0,0.0,0.0,0.0,0.0,-3.0284,-3.0099,-2.9857,-2.9532,-2.9217,-2.891,-2.85,-2.8087,-2.7607,0.0,0.0,0.0,0.0,0.0,-2.4477,-2.4338,-2.4095,-2.3758,-2.3758,-2.37,-2.3614,-2.3966,-2.4327,-2.4772,-2.5544,-2.6487,-2.7486,-2.7736,-2.8323,-2.9177,-3.0205,-3.0678,-3.0737,0.0,0.0,0.0,0.0,0.0,0.0,0.0,0.0,0.0,0.0,0.0,0.0,0.0,0.0,0.0,0.0,0.0,0.0,0.0,0.0,0.0,0.0,0.0,0.0,0.0,0.0,0.0,0.0,0.0,0.0,0.0,0.0,-3.9664,-4.0315,-4.1075,-4.1572,-4.1565,-4.1644,-4.1688,-4.156,-4.167,-4.178,-4.1888,-4.1909,-4.1991,-4.2097,-4.2163,-4.2207,-4.229,-4.2389,-4.249,-4.2591,-4.2709,-4.2862,-4.3069,-4.325,-4.3444,-4.3649,-4.3878,-4.4036,-4.4158,-4.4411,-4.4551,-4.46,-4.4581,-4.4123,-4.3263,-4.176,-4.0825,-4.0351,-4.0396,-4.0466,-4.0523,0.0,0.0,0.0,0.0,0.0,0.0,0.0,0.0,0.0,0.0,-3.0303,-3.0092,-2.983,-2.9484,-2.9134,-2.8821,-2.837,-2.7872,-2.7378,0.0,0.0,0.0,0.0,-2.4271,-2.373,-2.3515,-2.3209,-2.2807,-2.2762,-2.2589,-2.2354,-2.2712,-2.3062,-2.3467,-2.4376,-2.5281,-2.6135,-2.6659,-2.7274,-2.7987,-2.8974,-2.9472,-2.9646,-3.0016,-3.0129,-3.021,-3.1088,-3.1978,-3.2889,-3.3763,0.0,0.0,0.0,0.0,0.0,0.0,0.0,0.0,0.0,0.0,0.0,0.0,0.0,0.0,0.0,0.0,0.0,0.0,0.0,0.0,0.0,0.0,0.0,0.0,-3.9143,-3.9783,-4.0466,-4.1124,-4.1443,-4.1221,-4.1267,-4.1267,-4.1198,-4.1312,-4.142,-4.151,-4.152,-4.1604,-4.1732,-4.178,-4.1827,-4.1892,-4.2016,-4.2124,-4.219,-4.2371,-4.2589,-4.2786,-4.2975,-4.3178,-4.3409,-4.3651,-4.383,-4.402,-4.4203,-4.4368,-4.4515,-4.4672,-4.431,0.0,0.0,0.0,0.0,0.0,-4.0424,-4.0458,0.0,0.0,0.0,0.0,0.0,0.0,0.0,0.0,0.0,0.0,0.0,-3.0087,-2.9842,-2.9456,-2.9101,-2.8821,-2.8255,-2.771,0.0,0.0,0.0,-2.4775,-2.4271,-2.373,-2.3143,-2.2785,-2.2365,-2.1888,-2.1722,-2.1444,-2.1053,-2.1366,-2.1659,-2.203,-2.3076,-2.388,-2.4474,-2.5555,-2.6259,-2.6691,-2.719,-2.7657,-2.819,-2.8973,-2.9327,-2.9501,-3.0279,-3.1176,-3.2132,-3.3005,0.0,0.0,0.0,0.0,0.0,0.0,0.0,0.0,0.0,0.0,0.0,0.0,0.0,0.0,0.0,0.0,0.0,0.0,0.0,0.0,0.0,0.0,0.0,0.0,-3.9373,-3.9968,-4.0366,-4.0721,-4.0912,-4.0823,-4.0799,-4.0817,-4.084,-4.0935,-4.1023,-4.1047,-4.1105,-4.1186,-4.1335,0.0,0.0,0.0,0.0,-4.178,-4.187,-4.2103,-4.2348,-4.257,-4.2749,-4.2995,-4.3249,-4.341,-4.3649,-4.3958,-4.3989,-4.4173,-4.4487,-4.4501,-4.4188,-4.3561,-4.2265,-4.1635,-4.1409,-4.0641,-4.0379,-4.0379,0.0,0.0,0.0,0.0,0.0,0.0,0.0,0.0,0.0,-3.051,-3.0325,-3.0122,-2.9894,-2.9514,-2.9126,-2.8754,-2.8264,-2.756,0.0,0.0,-2.5088,-2.4426,-2.3852,-2.329,-2.2737,-2.224,-2.1708,-2.1188,-2.0833,-2.0459,-2.0067,-2.0144,-2.0357,-2.0703,-2.1623,-2.2446,-2.3195,-2.395,-2.4598,-2.5132,-2.5292,-2.6468,-2.8124,-2.8359,-2.8834,-2.9424,-2.9647,-3.0711,-3.2122,-3.3005,-3.3815,-3.4554,-3.5182,0.0,0.0,0.0,0.0,0.0,0.0,0.0,0.0,0.0,0.0,0.0,0.0,0.0,0.0,0.0,0.0,0.0,0.0,0.0,0.0,-3.8299,-3.8939,-3.9518,-3.9817,-3.9935,-4.0037,-4.0221,-4.0246,-4.0313,-4.0429,-4.0453,-4.0551,-4.0745,-4.0793,-4.0864,-4.0989,-4.1099,-4.1163,-4.121,-4.1272,-4.1431,-4.167,-4.1714,-4.1934,-4.2369,0.0,0.0,-4.2976,-4.3232,-4.346,-4.3697,-4.391,-4.4147,-4.4344,-4.4458,-4.4188,-4.3542,-4.2004,-4.1404,-4.1322,-4.054,-4.0261,-4.0325,0.0,0.0,0.0,0.0,0.0,0.0,0.0,0.0,0.0,0.0,-3.0406,-3.0228,-3.0015,-2.9644,-2.9256,-2.8877,-2.8134,0.0,0.0,-2.5719,-2.5033,-2.4323,-2.3696,-2.3061,-2.2417,-2.1793,-2.1177,-2.0497,-2.0029,-1.9501,-1.8951,-1.8768,-1.8888,-1.9232,-1.9965,-2.0809,-2.1737,-2.2496,-2.3261,-2.4022,-2.4289,-2.5264,-2.6613,-2.7297,-2.8078,-2.8851,-2.9338,-3.0294,-3.1465,-3.2278,-3.2967,-3.36,-3.417,-3.4404,-3.4395,0.0,0.0,0.0,0.0,0.0,0.0,0.0,0.0,0.0,0.0,0.0,0.0,0.0,0.0,-3.6737,0.0,0.0,-3.7912,-3.8285,-3.8906,-3.9328,-3.9269,-3.9239,-3.9345,-3.9618,-3.9738,-3.9824,-3.9901,-4.0028,-4.0155,-4.0305,-4.0362,-4.0436,-4.051,-4.0624,-4.0697,-4.0697,-4.0942,-4.1111,-4.1244,-4.1493,-4.1714,-4.1934,-4.2207,-4.2492,-4.2767,-4.305,-4.3322,-4.3546,-4.38,-4.3992,-4.4177,-4.4397,-4.4339,-4.3989,-4.287,-4.2001,-4.1251,-4.0443,-4.0167,-4.0196,0.0,0.0,0.0,0.0,0.0,0.0,0.0,0.0,0.0,0.0,-3.0492,-3.0329,-3.014,-2.9792,-2.9388,0.0,0.0,0.0,0.0,-2.5815,-2.5134,-2.4349,-2.3674,-2.2971,-2.224,-2.1506,-2.0734,-1.9965,-1.9305,-1.8617,-1.7847,-1.744,-1.7385,-1.7688,-1.83,-1.9145,-2.0161,-2.1199,-2.223,-2.3202,-2.391,-2.4633,-2.5427,-2.656,-2.7498,-2.8296,-2.8974,-2.9843,-3.0765,-3.1478,-3.2031,-3.2527,-3.2996,-3.3391,-3.3571,-3.3261,-3.3396,0.0,0.0,0.0,0.0,0.0,0.0,0.0,0.0,0.0,-3.6346,-3.6301,-3.6174,-3.6246,-3.6792,-3.7307,-3.7808,-3.827,-3.8847,-3.9115,-3.8706,-3.8623,-3.8706,-3.8909,-3.9158,-3.9325,-3.9352,-3.9573,-3.9729,-3.9755,-3.9867,-3.9944,-3.9986,-4.0113,-4.0213,-4.0263,-4.0607,-4.0823,-4.0912,-4.1267,-4.1515,-4.1604,-4.2019,-4.2331,-4.255,-4.2899,-4.3196,-4.341,-4.3667,-4.3865,-4.402,-4.431,-4.444,-4.4435,-4.378,-4.2688,-4.1374,-4.0608,-4.0229,-4.0106,0.0,0.0,0.0,0.0,0.0,0.0,0.0,0.0,0.0,0.0,0.0,0.0,0.0,0.0,0.0,0.0,0.0,0.0,-2.6708,-2.6031,-2.5291,-2.4446,-2.3736,-2.3068,-2.2394,-2.1372,-2.051,-1.9824,-1.8738,-1.7793,-1.6933,-1.6301,-1.6024,-1.6089,-1.6809,-1.7562,-1.8413,-2.0288,-2.1674,-2.2718,-2.4267,-2.5499,-2.65,-2.7104,-2.7708,-2.8199,-2.8232,-2.9232,-3.062,-3.1165,-3.1585,-3.1946,-3.2231,-3.2524,-3.2644,-3.2139,0.0,-3.1852,-3.2458,-3.3642,-3.4853,-3.5499,-3.5715,-3.5727,0.0,0.0,-3.5532,-3.5509,-3.5413,-3.5511,-3.61,-3.6688,-3.7233,-3.7705,-3.8319,-3.8567,-3.823,-3.8087,-3.8001,-3.8033,-3.8415,-3.875,-3.886,-3.9023,-3.9142,-3.9259,-3.9286,-3.9382,-3.9563,-3.9677,-3.9884,-4.0096,-4.0288,-4.0534,-4.0912,-4.0942,-4.1198,-4.1604,-4.1827,-4.2082,-4.2348,-4.2747,-4.2957,-4.3069,-4.3511,-4.3812,-4.402,-4.4109,-4.4292,-4.4407,-4.3584,-4.2774,-4.2018,-4.1396,-4.0722,-4.0106,0.0,0.0,0.0,0.0,0.0,0.0,0.0,0.0,0.0,0.0,0.0,0.0,0.0,0.0,0.0,0.0,0.0,0.0,-2.7035,-2.6333,-2.5612,-2.4843,-2.4048,-2.3268,-2.248,-2.1455,-2.0408,-1.9385,-1.8248,-1.7096,-1.5977,-1.5226,-1.4748,-1.4611,-1.5197,-1.614,-1.7414,-1.888,-2.0464,-2.2148,-2.3472,-2.4698,-2.5801,-2.6532,-2.7371,-2.8196,-2.8558,-2.9334,0.0,0.0,-3.0592,-3.1091,-3.0693,-3.0968,-3.1308,-3.0645,-3.0216,0.0,-3.1307,-3.241,0.0,0.0,-3.4535,-3.4592,-3.4809,-3.4802,-3.4754,-3.4754,-3.4658,-3.4857,-3.5878,-3.6101,-3.6513,0.0,-3.7825,-3.7828,-3.7623,-3.7535,-3.7462,-3.7375,-3.761,-3.7943,-3.8343,-3.8556,-3.8683,-3.8722,-3.8816,-3.8871,-3.8969,-3.9185,-3.9415,-3.9625,-3.9833,-4.0113,-4.0419,-4.0673,-4.0935,-4.1198,-4.1542,-4.1805,-4.2016,-4.2434,-4.2788,-4.3124,-4.3443,-4.3647,-4.3779,-4.3871,-4.403,-4.4181,-4.3895,-4.3057,-4.1957,-4.1345,-4.0594,-3.9867,0.0,0.0,0.0,0.0,0.0,0.0,0.0,0.0,0.0,0.0,0.0,0.0,0.0,0.0,0.0,0.0,0.0,0.0,0.0,-2.6723,-2.5998,-2.5269,-2.442,-2.3537,-2.2626,-2.1561,-2.037,-1.9099,-1.7829,-1.6525,-1.5196,-1.4284,-1.3666,-1.3326,-1.3798,-1.4818,-1.6279,-1.7604,-1.9403,-2.147,-2.2761,-2.4066,-2.5366,-2.6273,-2.7224,-2.8128,-2.8651,-2.9226,0.0,0.0,-2.9491,-2.9985,-2.9059,-2.9273,-2.9712,-2.8939,-2.8482,-2.8539,-3.0004,0.0,0.0,-3.2914,-3.3255,-3.3427,-3.3748,-3.3841,-3.3841,-3.3866,-3.3815,-3.4146,-3.5448,-3.5498,-3.5793,-3.7198,-3.7254,-3.7134,-3.7013,-3.6952,-3.6892,-3.6877,-3.6907,-3.7118,-3.7608,-3.7931,-3.8164,-3.8193,-3.829,-3.8387,-3.8455,-3.8694,-3.8931,-3.9164,-3.9441,-3.9729,-3.9986,-4.0362,-4.0607,-4.0799,-4.1226,-4.152,-4.1714,-4.2151,-4.2613,-4.305,-4.325,-4.3391,-4.3495,-4.361,-4.3758,-4.3905,-4.3769,-4.2957,-4.173,-4.1072,-4.0327,-3.9635,0.0,0.0,0.0,0.0,0.0,0.0,0.0,0.0,0.0,0.0,0.0,0.0,0.0,0.0,0.0,0.0,0.0,0.0,0.0,-2.7253,-2.6488,-2.5619,-2.4816,-2.3912,-2.2912,-2.1657,-2.0382,-1.9089,-1.749,-1.6053,-1.4698,-1.3575,-1.2803,-1.2359,-1.2834,-1.3648,-1.4778,-1.6716,-1.8686,-2.0684,-2.2483,-2.4202,-2.5779,-2.6792,-2.7518,-2.8014,-2.8166,0.0,0.0,0.0,-2.8361,-2.8571,-2.7508,-2.7551,0.0,-2.7014,-2.6637,0.0,0.0,0.0,-2.9689,-3.1259,-3.1901,-3.2238,-3.2586,-3.2641,-3.2695,-3.2815,-3.2841,-3.3279,-3.4657,-3.4763,-3.5081,-3.6491,-3.6616,-3.6523,-3.6523,-3.6336,-3.6305,-3.6492,-3.6352,-3.6305,0.0,-3.7074,-3.7522,-3.77,-3.773,-3.7831,-3.81,-3.8319,-3.856,-3.8805,-3.9148,-3.9441,-3.9703,-3.9969,-4.0246,-4.0534,-4.0877,-4.1163,-4.1436,-4.204,-4.243,-4.2629,-4.2843,-4.3031,-4.3214,-4.3286,-4.3477,-4.3638,-4.2841,-4.2174,-4.1512,-4.0709,-4.0032,-3.9514,0.0,0.0,0.0,0.0,0.0,0.0,0.0,0.0,0.0,0.0,0.0,0.0,0.0,0.0,0.0,0.0,0.0,0.0,0.0,-2.7587,-2.6904,-2.6159,-2.5262,-2.4333,-2.3311,-2.1922,-2.0506,-1.9089,-1.7396,-1.5756,-1.4204,-1.3061,-1.222,-1.1646,-1.188,-1.2687,-1.3969,-1.5657,-1.7531,-1.9521,-2.1395,-2.303,-2.4508,-2.5646,-2.637,-2.6819,0.0,0.0,0.0,0.0,0.0,0.0,-2.5809,0.0,0.0,-2.4678,0.0,0.0,0.0,0.0,-2.8165,-2.9968,-3.0645,-3.1013,-3.1435,-3.1622,-3.1679,-3.1736,-3.2098,-3.2658,-3.3502,-3.3907,-3.443,-3.5362,-3.5591,-3.5638,-3.5638,-3.5655,-3.5705,-3.5769,-3.5705,0.0,0.0,0.0,0.0,-3.7029,-3.7224,-3.7462,-3.7623,-3.7831,-3.8062,-3.8343,-3.8572,-3.8821,-3.9104,-3.9461,-3.9747,-3.9969,-4.0444,-4.0884,-4.1277,-4.1675,-4.1934,-4.2148,-4.2436,-4.2671,-4.2805,-4.2864,-4.2741,-4.248,-4.2258,-4.1423,-4.0323,-4.013,-3.9597,-3.8974,0.0,0.0,0.0,0.0,0.0,0.0,0.0,0.0,0.0,0.0,0.0,0.0,0.0,0.0,0.0,0.0,0.0,0.0,0.0,0.0,-2.7391,-2.6673,-2.5768,-2.478,-2.3691,-2.2266,-2.0777,-1.9258,-1.744,-1.5746,-1.4106,-1.2879,-1.1942,-1.1303,-1.1459,-1.2182,-1.3356,-1.4827,-1.6602,-1.8552,-2.0524,-2.2212,-2.3665,-2.4994,-2.5846,0.0,0.0,0.0,0.0,0.0,0.0,0.0,0.0,0.0,0.0,0.0,0.0,0.0,0.0,-2.5775,-2.6885,-2.8565,-2.9286,-2.9749,-3.0254,-3.051,-3.0732,-3.107,-3.1465,-3.2004,-3.2788,-3.3252,-3.3733,-3.4407,-3.4691,-3.4791,-3.4791,-3.4924,-3.5023,-3.5023,-3.5023,-3.5088,0.0,0.0,0.0,-3.6492,-3.6723,-3.6937,-3.7148,-3.7314,-3.7551,-3.7841,-3.8103,-3.8347,-3.8539,-3.898,-3.9355,-3.9703,-4.007,-4.05,-4.0954,-4.1209,-4.1436,-4.1679,-4.1984,-4.219,-4.2274,-4.2092,-4.1855,-4.1559,-4.1035,-4.0254,-3.943,-3.9292,-3.8889,-3.8499,0.0,0.0,0.0,0.0,0.0,0.0,0.0,0.0,0.0,0.0,0.0,0.0,0.0,0.0,0.0,0.0,0.0,0.0,0.0,0.0,0.0,-2.7155,-2.6301,-2.5287,-2.406,-2.2661,-2.1143,-1.9543,-1.7675,-1.5955,-1.4405,-1.3009,-1.1988,-1.1365,-1.156,-1.2073,-1.2917,-1.4344,-1.5985,-1.782,-1.9943,-2.1779,-2.3378,-2.4885,0.0,0.0,0.0,0.0,0.0,0.0,0.0,0.0,0.0,0.0,0.0,0.0,0.0,-2.195,-2.3079,-2.4384,-2.5753,-2.7095,-2.7815,-2.8417,-2.9075,-2.9373,-2.9806,-3.0722,-3.0941,-3.1326,0.0,0.0,-3.2962,-3.3628,-3.3899,-3.4051,-3.4051,-3.4216,-3.4346,0.0,0.0,0.0,0.0,0.0,0.0,-3.6038,0.0,-3.6336,-3.6662,-3.6799,-3.7027,-3.7342,-3.7682,-3.7899,-3.8042,-3.8511,-3.905,-3.9651,-3.9722,-4.0003,-4.0485,-4.0652,-4.0896,-4.1186,-4.1431,-4.1556,-4.1547,-4.0969,-4.0819,-4.0768,-3.9253,-3.8758,-3.8816,-3.8185,-3.7966,-3.8035,0.0,0.0,0.0,0.0,0.0,0.0,0.0,0.0,0.0,0.0,0.0,0.0,0.0,0.0,0.0,0.0,0.0,0.0,0.0,0.0,0.0,0.0,0.0,0.0,0.0,0.0,0.0,0.0,0.0,-1.6606,-1.5099,-1.3657,-1.2681,-1.2205,-1.2128,-1.2558,-1.3411,-1.4728,-1.6341,-1.8216,0.0,-2.1747,-2.3402,0.0,0.0,0.0,0.0,0.0,0.0,0.0,0.0,0.0,0.0,0.0,-1.8783,0.0,0.0,-2.0701,-2.181,-2.3167,-2.4602,-2.5918,-2.6752,-2.7404,-2.8026,-2.8417,-2.8871,-2.9649,-3.0209,-3.0759,0.0,0.0,0.0,-3.2519,-3.2832,0.0,-3.3044,-3.3374,0.0,-3.3597,0.0,-3.3632,-3.3805,-3.3977,0.0,0.0,-3.5382,-3.5926,-3.6163,-3.629,-3.6538,-3.6861,-3.7072,-3.7237,-3.7417,-3.7899,-3.8427,-3.9023,-3.9034,-3.9355,-3.9893,-4.0011,-4.0303,-4.0762,-4.083,-4.0528,-3.9981,-4.0087,-3.9538,-3.8596,-3.8237,-3.7846,-3.7416,-3.7352,-3.7431,-3.7577,0.0,0.0,0.0,0.0,0.0,0.0,0.0,0.0,0.0,0.0,0.0,0.0,0.0,0.0,0.0,0.0,0.0,0.0,0.0,0.0,0.0,0.0,0.0,0.0,0.0,0.0,0.0,0.0,0.0,0.0,0.0,-1.47,-1.3738,-1.3243,-1.3166,-1.352,-1.4293,-1.5752,0.0,0.0,0.0,0.0,0.0,0.0,0.0,0.0,0.0,0.0,0.0,0.0,0.0,-1.9222,-1.8412,-1.7872,-1.7507,-1.7491,0.0,-1.9939,-2.0881,-2.2419,-2.4001,-2.5051,-2.5836,-2.6505,-2.7175,-2.7543,-2.8067,-2.9207,-2.973,0.0,0.0,0.0,0.0,0.0,0.0,0.0,-3.2237,-3.2475,-3.264,0.0,-3.2569,0.0,-3.281,-3.2952,-3.3129,0.0,-3.4524,-3.5347,-3.5524,-3.5671,-3.5958,-3.6383,-3.6476,-3.6677,-3.7072,-3.7342,-3.7783,-3.8399,-3.8399,-3.8733,-3.9319,-3.9339,-3.9694,-4.0231,0.0,-3.9452,-3.9023,-3.8677,-3.8086,-3.737,-3.7089,-3.6776,-3.6481,-3.6696,-3.6816,-3.6956,0.0,0.0,0.0,0.0,0.0,0.0,0.0,0.0,0.0,0.0,0.0,0.0,0.0,0.0,0.0,0.0,0.0,0.0,0.0,0.0,0.0,0.0,0.0,0.0,0.0,0.0,0.0,0.0,0.0,0.0,0.0,0.0,0.0,0.0,0.0,0.0,0.0,0.0,0.0,0.0,0.0,0.0,0.0,0.0,0.0,0.0,0.0,0.0,0.0,0.0,-1.9508,-1.8533,-1.7413,-1.6846,-1.6568,-1.6603,-1.7922,-1.9522,-2.0267,-2.1959,-2.3692,-2.4396,-2.5052,-2.5711,-2.644,-2.6769,-2.7396,-2.9057,0.0,-2.9767,-3.0974,-3.1161,-3.1086,-3.0911,0.0,-3.1408,-3.1408,-3.1516,-3.1613,-3.1563,-3.1392,-3.1368,-3.1505,-3.1726,-3.1932,-3.2114,-3.3479,-3.4399,-3.4654,-3.4935,-3.5297,-3.5799,-3.5878,-3.6164,-3.6707,-3.6753,-3.7087,-3.7725,-3.777,-3.8087,-3.8678,-3.8678,-3.8942,-3.9382,-3.8762,-3.8313,-3.7969,-3.7087,-3.6671,-3.6576,-3.5932,-3.5744,-3.582,-3.6071,-3.6195,-3.6245,0.0,0.0,0.0,0.0,0.0,0.0,0.0,0.0,0.0,0.0,-3.0777,-3.0801,0.0,0.0,0.0,0.0,0.0,0.0,0.0,0.0,0.0,0.0,0.0,0.0,0.0,0.0,0.0,0.0,0.0,0.0,0.0,0.0,0.0,0.0,0.0,0.0,0.0,0.0,0.0,0.0,0.0,0.0,0.0,0.0,0.0,0.0,0.0,0.0,0.0,0.0,-1.9519,-1.8138,-1.7235,-1.6656,-1.6412,-1.676,-1.7932,-1.9314,-2.0053,-2.1632,-2.3261,-2.3886,-2.4599,-2.5276,-2.5898,-2.6267,0.0,0.0,0.0,-2.9168,-3.0339,-3.0406,-3.0305,-3.0267,0.0,0.0,0.0,0.0,-3.0494,0.0,0.0,0.0,0.0,0.0,0.0,0.0,0.0,-3.2497,-3.3514,-3.4016,-3.4442,-3.4828,-3.5154,-3.5447,-3.5642,-3.6006,-3.6414,-3.6906,-3.7027,-3.7415,-3.8059,-3.8059,-3.7838,-3.7497,-3.7744,0.0,-3.5177,-3.5851,-3.578,-3.5214,-3.5098,-3.5118,-3.5258,-3.5412,-3.5577,-3.5749,0.0,0.0,0.0,0.0,0.0,0.0,0.0,-3.0628,-3.0657,-3.0657,-3.0717,-3.0757,-3.0806,-3.0797,-3.0798,0.0,0.0,0.0,0.0,0.0,0.0,0.0,0.0,0.0,0.0,0.0,0.0,0.0,0.0,0.0,0.0,0.0,0.0,0.0,0.0,0.0,0.0,0.0,0.0,0.0,0.0,0.0,0.0,0.0,0.0,0.0,0.0,0.0,0.0,0.0,-2.0642,-1.9179,-1.7653,-1.7028,-1.6899,-1.7038,-1.8216,-1.963,-2.0196,-2.1741,-2.3261,-2.3787,-2.4406,-2.5004,-2.5465,0.0,0.0,0.0,-2.8198,-2.8605,-2.9315,0.0,0.0,0.0,0.0,0.0,0.0,0.0,0.0,0.0,0.0,0.0,0.0,0.0,0.0,0.0,0.0,-3.0631,-3.2268,-3.2995,-3.352,-3.3899,-3.4172,-3.4509,-3.489,-3.5154,-3.5529,-3.6039,-3.6305,-3.6568,-3.6762,-3.6821,-3.6746,-3.65,-3.6174,0.0,-3.3967,-3.4641,-3.4742,-3.4472,-3.4472,-3.4537,-3.4609,-3.4794,-3.4944,-3.5075,0.0,0.0,0.0,0.0,0.0,0.0,0.0,-3.0601,-3.0604,-3.0602,-3.0665,-3.073,-3.0782,-3.0804,-3.08,0.0,0.0,0.0,0.0,0.0,0.0,0.0,0.0,0.0,0.0,0.0,0.0,0.0,0.0,0.0,0.0,0.0,0.0,0.0,0.0,0.0,0.0,0.0,0.0,0.0,0.0,0.0,0.0,0.0,0.0,0.0,0.0,0.0,0.0,0.0,-2.2091,-2.0749,-1.8849,-1.7983,-1.7672,-1.7579,-1.863,-1.9976,-2.0521,-2.1883,-2.3275,-2.3754,-2.4345,-2.4897,-2.517,-2.5535,0.0,0.0,-2.7576,-2.8014,-2.8348,0.0,0.0,0.0,0.0,0.0,0.0,0.0,0.0,0.0,0.0,0.0,0.0,0.0,0.0,0.0,0.0,0.0,-3.0823,-3.1608,-3.2143,-3.243,-3.2626,-3.3006,-3.3532,-3.3753,-3.4138,-3.4676,-3.5106,-3.5291,-3.523,-3.5409,-3.5498,-3.5426,-3.4663,0.0,0.0,-3.3597,-3.3797,-3.3924,-3.3917,-3.3944,-3.3996,-3.4243,-3.4358,-3.448,0.0,0.0,0.0,0.0,0.0,0.0,0.0,-3.0601,-3.0604,-3.0602,-3.0665,-3.0733,-3.0786,-3.0801,-3.0792,0.0,0.0,0.0,0.0,0.0,0.0,0.0,0.0,0.0,0.0,0.0,0.0,0.0,0.0,0.0,0.0,0.0,0.0,0.0,0.0,0.0,0.0,0.0,0.0,0.0,0.0,0.0,0.0,0.0,0.0,0.0,0.0,0.0,0.0,0.0,0.0,-2.2396,-2.1283,-1.9912,-1.8677,-1.8664,0.0,0.0,-2.093,-2.1931,-2.2842,-2.3711,-2.4345,-2.4849,-2.4981,0.0,0.0,-2.6599,-2.7017,-2.7406,-2.7738,-2.7719,-2.7499,0.0,0.0,0.0,0.0,0.0,0.0,0.0,0.0,0.0,0.0,0.0,0.0,0.0,0.0,0.0,-2.9013,-2.9547,-2.9754,-2.9671,-3.0022,-3.0404,-3.0747,-3.1241,-3.1787,-3.2324,-3.2835,-3.3309,-3.3713,-3.403,-3.3903,-3.3477,-3.3686,0.0,0.0,-3.3007,-3.3198,-3.3372,-3.3375,-3.3443,-3.3565,-3.3706,-3.3921,-3.4176,0.0,0.0,0.0,0.0,0.0,0.0,-3.055,-3.0578,-3.0606,-3.0602,-3.0622,-3.066,-3.0725,-3.0776,-3.0795,-3.0798,0.0,0.0,0.0,0.0,0.0,0.0,0.0,0.0,0.0,0.0,0.0,0.0,0.0,0.0,0.0,0.0,0.0,0.0,0.0,0.0,0.0,0.0,0.0,0.0,0.0,0.0,0.0,0.0,0.0,0.0,0.0,0.0,0.0,0.0,0.0,0.0,-2.2905,-2.1868,0.0,0.0,-2.0047,-2.0688,-2.1474,-2.2273,-2.3048,-2.3736,-2.4273,-2.4634,-2.4694,0.0,0.0,-2.5469,-2.5753,-2.5965,-2.5842,-2.575,-2.548,0.0,0.0,0.0,0.0,0.0,0.0,0.0,0.0,0.0,0.0,0.0,0.0,0.0,0.0,0.0,-2.4037,-2.6092,-2.747,-2.79,-2.8203,-2.8672,-2.9381,-2.9939,-3.0569,-3.1216,-3.1889,-3.2202,-3.2185,-3.2614,-3.2527,-3.2087,-3.2361,0.0,0.0,-3.2453,-3.2617,-3.2753,-3.2868,-3.2922,-3.2996,-3.3335,-3.3534,-3.3684,0.0,0.0,0.0,0.0,0.0,-3.049,-3.0491,-3.0559,-3.0597,-3.0597,-3.0606,-3.0638,-3.0694,-3.0755,-3.0796,-3.0792,-3.0799,0.0,0.0,0.0,0.0,0.0,0.0,0.0,0.0,0.0,0.0,-2.8603,0.0,0.0,0.0,0.0,0.0,0.0,0.0,0.0,0.0,0.0,0.0,0.0,0.0,0.0,0.0,0.0,0.0,0.0,0.0,0.0,0.0,0.0,0.0,0.0,0.0,0.0,0.0,0.0,-2.0794,-2.1229,-2.1744,-2.2386,-2.3011,-2.3629,-2.4122,-2.449,0.0,0.0,-2.4814,-2.4587,-2.4667,-2.4589,-2.4054,-2.3858,-2.3533,0.0,0.0,-2.1542,0.0,0.0,0.0,0.0,0.0,0.0,0.0,0.0,0.0,0.0,0.0,0.0,-1.995,-2.2331,-2.4271,-2.5555,-2.5977,-2.6615,-2.7519,-2.8158,-2.8881,-2.9673,-3.0408,-3.0739,-3.0725,-3.1221,-3.1276,-3.1014,-3.1307,0.0,0.0,-3.1853,-3.2051,-3.2203,-3.2299,-3.2422,-3.2574,-3.2904,-3.3134,-3.3282,0.0,0.0,0.0,0.0,0.0,0.0,-3.0491,-3.0559,-3.0597,-3.0597,-3.0606,-3.0638,-3.0694,-3.0767,-3.0802,-3.0799,-3.0801,0.0,0.0,0.0,0.0,0.0,0.0,0.0,0.0,0.0,-2.9485,-2.9293,-2.9093,-2.9299,0.0,0.0,0.0,0.0,0.0,0.0,0.0,0.0,0.0,0.0,0.0,0.0,0.0,0.0,0.0,0.0,0.0,0.0,0.0,0.0,0.0,0.0,0.0,0.0,0.0,0.0,-2.1345,-2.1218,-2.1757,-2.216,-2.2571,-2.3258,-2.3976,-2.449,0.0,0.0,-2.4454,-2.4236,-2.3936,-2.3437,-2.2582,-2.2278,-2.1731,-2.0611,0.0,0.0,0.0,0.0,0.0,0.0,0.0,0.0,0.0,0.0,0.0,0.0,0.0,0.0,-1.7683,-1.8318,-1.9806,-2.2264,-2.3121,-2.395,-2.4731,-2.5487,-2.6299,-2.7255,-2.7973,-2.8688,-2.9341,-2.9884,-3.019,-3.0312,0.0,0.0,0.0,-3.1219,-3.1481,-3.1695,-3.1694,-3.2005,-3.2398,-3.2425,-3.2715,-3.3123,0.0,0.0,0.0,0.0,0.0,0.0,0.0,-3.055,-3.0597,-3.0597,-3.0637,-3.068,-3.0751,-3.0782,-3.0794,-3.0805,-3.08,0.0,0.0,0.0,0.0,0.0,0.0,0.0,0.0,0.0,-2.9779,-2.957,-3.0055,-3.0333,-3.0394,-3.0923,0.0,0.0,0.0,0.0,0.0,0.0,0.0,0.0,0.0,0.0,0.0,0.0,0.0,0.0,0.0,0.0,0.0,0.0,0.0,0.0,0.0,0.0,0.0,0.0,0.0,0.0,-2.2342,-2.2683,-2.3061,-2.3491,-2.4047,-2.4418,-2.4152,0.0,-2.3714,-2.3113,-2.2574,-2.1902,-2.0894,-2.0136,-1.9433,-1.8604,0.0,0.0,0.0,0.0,0.0,0.0,0.0,0.0,0.0,0.0,0.0,0.0,0.0,0.0,-1.6083,-1.687,-1.835,-2.0575,-2.1469,-2.2462,-2.3537,-2.4253,-2.5252,-2.6471,-2.7183,-2.7914,-2.8643,-2.9166,-2.9557,0.0,0.0,0.0,0.0,-3.0836,-3.0999,-3.1102,-3.1422,-3.1652,-3.1823,-3.2259,-3.248,-3.266,0.0,0.0,0.0,0.0,0.0,0.0,0.0,-3.0559,-3.0606,-3.0602,-3.0653,-3.074,-3.08,-3.0793,-3.0804,-3.0792,-3.082,0.0,0.0,0.0,0.0,0.0,0.0,0.0,0.0,-3.0145,-3.0152,-3.0345,-3.0825,-3.1271,-3.1745,-3.225,-3.289,-3.3575,0.0,0.0,0.0,0.0,0.0,0.0,0.0,0.0,-3.3753,0.0,0.0,0.0,0.0,0.0,0.0,0.0,0.0,0.0,0.0,0.0,0.0,0.0,0.0,0.0,0.0,-2.2989,-2.3352,-2.3557,-2.4073,0.0,0.0,0.0,-2.3261,-2.244,-2.1662,-2.0771,-1.9514,-1.8616,-1.778,-1.7003,0.0,0.0,0.0,0.0,0.0,0.0,0.0,0.0,0.0,0.0,0.0,0.0,0.0,0.0,-1.4977,-1.5858,-1.7074,-1.8749,-2.0051,-2.1221,-2.2322,-2.329,-2.442,-2.5592,-2.6389,-2.7217,-2.8026,-2.856,-2.899,0.0,0.0,0.0,0.0,-3.0401,-3.0612,-3.0762,-3.1102,-3.135,-3.1537,-3.2023,-3.2219,-3.2302,0.0,0.0,0.0,0.0,0.0,0.0,0.0,-3.0564,-3.0608,-3.0606,-3.0649,-3.0737,-3.0786,-3.0802,-3.0794,-3.0816,0.0,0.0,0.0,0.0,0.0,0.0,0.0,0.0,-3.041,-3.0343,-3.0659,-3.1401,-3.145,-3.2214,-3.3611,-3.362,-3.3995,-3.4716,-3.4591,-3.4517,0.0,0.0,0.0,0.0,0.0,0.0,0.0,0.0,0.0,0.0,0.0,0.0,0.0,0.0,0.0,0.0,0.0,0.0,0.0,0.0,0.0,0.0,0.0,0.0,0.0,0.0,0.0,0.0,0.0,0.0,0.0,0.0,0.0,0.0,0.0,0.0,0.0,0.0,0.0,0.0,0.0,0.0,0.0,0.0,0.0,0.0,0.0,0.0,0.0,0.0,0.0,0.0,-1.4307,-1.5193,-1.6098,-1.6952,-1.8829,-2.0255,-2.1126,-2.2531,-2.3728,-2.4671,-2.5627,-2.6561,-2.7484,-2.8026,-2.8449,0.0,0.0,0.0,0.0,-2.9927,-3.0249,-3.0582,-3.0732,-3.1073,-3.1495,-3.1712,-3.187,-3.2025,0.0,0.0,0.0,0.0,0.0,0.0,0.0,0.0,0.0,0.0,-3.0691,-3.0734,-3.0784,-3.0806,-3.0826,0.0,0.0,0.0,0.0,0.0,0.0,0.0,0.0,0.0,-3.0406,-3.1013,-3.1353,-3.1393,-3.2714,-3.35,-3.3769,-3.4367,-3.4718,-3.4858,-3.4768,-3.4666,0.0,0.0,0.0,0.0,0.0,0.0,0.0,0.0,0.0,0.0,-3.2318,-3.1657,0.0,0.0,0.0,0.0,0.0,0.0,0.0,0.0,-2.5646,0.0,-2.4954,0.0,-2.4361,-2.4099,-2.4564,0.0,0.0,0.0,0.0,0.0,0.0,0.0,0.0,0.0,0.0,0.0,0.0,0.0,0.0,0.0,0.0,0.0,0.0,0.0,0.0,0.0,0.0,0.0,0.0,-1.3392,-1.4139,-1.5019,-1.5933,-1.6952,-1.8287,-1.952,-2.0653,-2.1966,-2.3176,-2.4324,-2.5264,-2.6208,-2.7142,-2.7676,-2.817,0.0,0.0,0.0,-2.9446,-2.9634,-2.9927,-3.0264,-3.0522,-3.0881,-3.1205,-3.1481,-3.1697,-3.187,0.0,0.0,0.0,0.0,0.0,0.0,0.0,0.0,0.0,0.0,0.0,-3.076,-3.0801,-3.0801,0.0,0.0,0.0,0.0,0.0,0.0,0.0,0.0,0.0,-3.1129,-3.0992,-3.1813,-3.2378,-3.2651,-3.3509,-3.4105,-3.441,-3.4802,-3.4955,-3.4906,-3.4788,-3.4706,0.0,0.0,0.0,0.0,-3.496,0.0,0.0,0.0,0.0,0.0,-3.2454,-3.1859,0.0,-3.0601,-2.9946,-2.9325,0.0,0.0,0.0,0.0,-2.7304,-2.7058,-2.6901,-2.6014,-2.5154,-2.5129,-2.5382,-2.5546,0.0,0.0,0.0,0.0,0.0,0.0,0.0,0.0,0.0,0.0,0.0,0.0,0.0,0.0,0.0,0.0,0.0,0.0,0.0,0.0,0.0,0.0,0.0,-1.3561,-1.4307,-1.5235,-1.6229,-1.7286,-1.8416,-1.949,-2.0508,-2.1738,-2.3027,-2.4215,-2.5052,-2.5943,-2.6871,-2.7423,-2.7934,0.0,0.0,0.0,-2.9289,-2.9446,-2.9741,-3.0111,-3.0371,-3.0672,-3.0984,-3.1234,-3.1395,-3.1497,0.0,0.0,0.0,0.0,0.0,0.0,0.0,0.0,0.0,0.0,0.0,0.0,0.0,0.0,0.0,0.0,0.0,0.0,0.0,0.0,0.0,0.0,0.0,-3.2034,-3.1901,-3.2691,-3.3435,-3.4096,-3.409,-3.444,-3.5092,-3.502,-3.4936,-3.4868,-3.4747,-3.472,0.0,0.0,0.0,0.0,-3.5795,0.0,0.0,0.0,0.0,0.0,0.0,0.0,0.0,-3.0982,-3.041,-2.9892,-2.9666,0.0,0.0,0.0,0.0,0.0,-2.8668,-2.7379,-2.6166,-2.6337,-2.6329,-2.6126,0.0,0.0,0.0,0.0,0.0,0.0,0.0,0.0,0.0,0.0,0.0,0.0,0.0,0.0,0.0,0.0,0.0,0.0,0.0,0.0,0.0,0.0,0.0,-1.3857,-1.4741,-1.5624,-1.6648,-1.7691,-1.8816,-1.9795,-2.0692,-2.1901,-2.3091,-2.4251,-2.5016,-2.5838,-2.6714,-2.7289,-2.7736,-2.8112,0.0,0.0,-2.9099,-2.9275,-2.962,-3.008,-3.0205,-3.0477,-3.0791,-3.0984,-3.1087,-3.1146,0.0,0.0,0.0,0.0,0.0,0.0,0.0,0.0,0.0,0.0,0.0,0.0,0.0,0.0,0.0,0.0,0.0,0.0,0.0,0.0,0.0,-3.2819,-3.2889,-3.2885,-3.28,-3.359,-3.4024,-3.4096,-3.4706,-3.5018,-3.5092,-3.4964,-3.484,-3.4737,-3.4655,-3.4955,-3.5544,-3.5647,-3.6061,-3.6634,-3.6545,0.0,0.0,0.0,0.0,0.0,0.0,0.0,0.0,-3.1353,-3.0922,-3.0605,-3.0767,0.0,0.0,0.0,0.0,0.0,-2.9773,-2.89,-2.7862,-2.7346,-2.7131,-2.6879,-2.6346,0.0,0.0,0.0,0.0,0.0,0.0,0.0,0.0,0.0,0.0,0.0,0.0,0.0,0.0,0.0,0.0,0.0,0.0,0.0,0.0,0.0,0.0,-1.4292,-1.4999,-1.5865,-1.6837,-1.7925,-1.9155,-2.0372,-2.1603,-2.2467,-2.3386,-2.4384,-2.5347,-2.6141,-2.6714,-2.7423,-2.7868,-2.8112,0.0,-2.8812,-2.9099,-2.9125,-2.9407,-2.9884,-3.0066,-3.0341,-3.0642,-3.0791,-3.0955,-3.1102,0.0,0.0,0.0,0.0,0.0,0.0,0.0,0.0,0.0,0.0,0.0,0.0,0.0,0.0,0.0,0.0,0.0,0.0,0.0,0.0,0.0,-3.4521,-3.4492,-3.4221,-3.372,-3.4456,-3.4815,-3.4749,-3.5021,-3.5091,-3.4992,-3.4821,-3.4699,-3.4663,-3.5034,-3.5371,-3.5747,-3.6603,-3.7131,-3.7446,0.0,0.0,0.0,0.0,0.0,0.0,0.0,0.0,0.0,0.0,-3.1587,-3.1618,-3.1589,0.0,0.0,0.0,0.0,0.0,-3.1402,-3.0438,-2.9375,-2.8653,-2.7641,-2.6666,-2.605,0.0,0.0,0.0,0.0,0.0,0.0,0.0,0.0,0.0,0.0,0.0,0.0,0.0,0.0,0.0,0.0,0.0,0.0,0.0,0.0,0.0,0.0,0.0,-1.559,-1.6484,-1.7489,-1.8656,-1.9668,-2.0952,-2.2419,-2.3239,-2.4082,-2.4898,-2.5699,-2.644,-2.7154,-2.759,-2.7954,-2.8216,0.0,-2.8844,-2.9099,-2.923,-2.9467,-2.9808,-2.9884,-3.0097,-3.0355,-3.0416,-3.0582,-3.0821,0.0,0.0,0.0,0.0,0.0,0.0,0.0,0.0,0.0,0.0,0.0,0.0,0.0,0.0,0.0,0.0,0.0,0.0,0.0,0.0,-3.5077,-3.5644,-3.5623,-3.5282,-3.4596,-3.5095,-3.5335,-3.5277,-3.5145,-3.4992,-3.4831,-3.4668,-3.4572,-3.4595,-3.5336,-3.5781,-3.6043,-3.7403,-3.8072,-3.8231,0.0,0.0,0.0,0.0,0.0,0.0,0.0,0.0,0.0,0.0,0.0,0.0,0.0,0.0,0.0,-3.3517,-3.348,-3.3324,-3.2551,-3.1399,-3.0223,-2.936,0.0,-2.6526,-2.5847,0.0,0.0,0.0,0.0,0.0,0.0,0.0,0.0,0.0,0.0,0.0,0.0,0.0,0.0,0.0,0.0,0.0,0.0,0.0,0.0,0.0,0.0,0.0,-1.6211,-1.7057,-1.8063,-1.9262,-2.0265,-2.1499,-2.3001,-2.3936,-2.4731,-2.5453,-2.606,-2.6735,-2.749,-2.7756,-2.8039,-2.832,-2.8656,-2.8894,-2.9131,-2.9306,-2.9543,-2.9761,-2.9777,-2.9929,-3.008,-3.008,-3.0264,-3.0492,0.0,0.0,0.0,0.0,0.0,0.0,0.0,0.0,0.0,0.0,0.0,0.0,0.0,0.0,0.0,0.0,0.0,0.0,0.0,0.0,-3.5674,-3.5612,-3.5595,-3.5547,-3.5411,-3.5333,-3.5278,-3.5209,-3.5073,-3.487,-3.4615,-3.4612,-3.4528,-3.4453,-3.5254,-3.6019,-3.677,-3.7562,-3.8298,-3.8933,-3.8847,0.0,0.0,0.0,0.0,0.0,0.0,0.0,0.0,0.0,0.0,0.0,0.0,0.0,-3.4337,0.0,-3.4423,-3.3763,-3.2558,-3.1249,-2.9935,-2.8684,0.0,0.0,-2.6417,-2.573,0.0,0.0,0.0,0.0,0.0,0.0,0.0,0.0,0.0,0.0,0.0,0.0,0.0,0.0,0.0,0.0,0.0,0.0,0.0,0.0,0.0,0.0,-1.6607,-1.7489,-1.8367,-1.9262,-2.0875,-2.2107,-2.3001,-2.4288,-2.5241,-2.5863,-2.6418,-2.6952,-2.749,-2.7901,-2.8164,-2.832,-2.8643,-2.8912,-2.9131,-2.9314,-2.9484,-2.9634,-2.9761,-2.9929,-3.008,-3.008,-3.0111,-3.0142,0.0,0.0,0.0,0.0,0.0,0.0,0.0,0.0,0.0,0.0,0.0,0.0,0.0,0.0,0.0,0.0,0.0,0.0,0.0,-3.5765,-3.5708,-3.5604,-3.5602,-3.5522,-3.5379,-3.5339,-3.525,-3.5149,-3.4964,-3.478,-3.4602,-3.4517,-3.4439,-3.4384,-3.5659,-3.6387,-3.6758,-3.8007,-3.8687,-3.8921,-3.8848,-3.8637,0.0,0.0,0.0,0.0,0.0,0.0,0.0,0.0,-3.4339,-3.4779,0.0,0.0,0.0,0.0,-3.4668,-3.3736,-3.2909,-3.1374,-2.9803,-2.8899,0.0,0.0,0.0,0.0,0.0,0.0,0.0,0.0,0.0,0.0,0.0,0.0,0.0,0.0,0.0,0.0,0.0,0.0,0.0,0.0,0.0,0.0,0.0,0.0,0.0,0.0,-1.7106,-1.7974,-1.8886,-1.9844,-2.1116,-2.2295,-2.3372,-2.4443,-2.5406,-2.6233,-2.6658,-2.7235,-2.7868,-2.8013,-2.8229,-2.8509,-2.883,-2.9022,-2.9131,-2.9498,-2.9685,-2.973,-2.9777,-2.9806,-2.9803,-2.9803,-2.9851,-2.9915,0.0,0.0,0.0,0.0,0.0,0.0,0.0,0.0,0.0,0.0,0.0,0.0,0.0,0.0,0.0,0.0,0.0,0.0,-3.5806,-3.5747,-3.5669,-3.5595,-3.5578,-3.5483,-3.5289,-3.5266,-3.5193,-3.5098,-3.4879,-3.4687,-3.4528,-3.4427,-3.4316,-3.4308,-3.5884,-3.6591,-3.6675,-3.8241,-3.8896,-3.8848,-3.8822,-3.8758,0.0,0.0,0.0,0.0,0.0,0.0,0.0,0.0,0.0,0.0,0.0,0.0,0.0,0.0,0.0,-3.386,-3.3104,-3.1517,-2.9894,0.0,0.0,0.0,0.0,0.0,0.0,0.0,0.0,0.0,0.0,0.0,0.0,0.0,0.0,0.0,0.0,0.0,0.0,0.0,0.0,0.0,0.0,0.0,0.0,0.0,0.0,0.0,0.0,-1.8304,-1.9222,-2.0167,-2.1346,-2.2494,-2.3604,-2.4587,-2.5511,-2.6358,-2.6794,-2.7382,-2.8112,-2.8112,-2.8308,-2.8683,-2.8972,-2.9162,-2.9289,-2.9637,-2.9853,-2.9884,-2.9808,-2.973,-2.9651,-2.9602,-2.9651,-2.973,0.0,0.0,0.0,0.0,0.0,0.0,0.0,0.0,0.0,0.0,0.0,0.0,0.0,0.0,0.0,0.0,0.0,0.0,-3.5803,-3.5742,-3.5658,-3.5604,-3.5547,-3.5437,-3.5289,-3.5171,-3.5098,-3.5092,-3.482,-3.4602,-3.4386,-3.4328,-3.4221,-3.4173,-3.5845,-3.6545,-3.6607,-3.8208,-3.8848,-3.8807,-3.8807,-3.8683,-3.8476,0.0,0.0,0.0,0.0,0.0,0.0,0.0,0.0,0.0,0.0,0.0,0.0,0.0,-3.533,-3.4216,-3.3006,-3.1616,0.0,0.0,0.0,0.0,0.0,0.0,0.0,0.0,0.0,0.0,0.0,0.0,0.0,0.0,0.0,0.0,0.0,0.0,0.0,0.0,0.0,0.0,0.0,0.0,0.0,0.0,0.0,0.0,0.0,-1.8514,-1.939,-2.0167,-2.1634,-2.2777,-2.3604,-2.4743,-2.5594,-2.6198,-2.6739,-2.7382,-2.8079,-2.8112,-2.8373,-2.8812,-2.9004,-2.9289,-2.9602,-2.9761,-2.9929,-3.008,-2.9884,-2.9808,-2.9777,-2.9665,-2.9602,-2.9602,0.0,0.0,0.0,0.0,0.0,0.0,0.0,0.0,0.0,0.0,0.0,0.0,0.0,0.0,0.0,0.0,0.0,0.0,-3.5722,-3.5708,-3.5658,-3.5604,-3.5547,-3.5437,-3.5289,-3.5124,-3.4983,-3.4888,-3.4708,-3.4539,-3.4404,-3.4281,-3.4185,-3.4136,-3.5148,-3.5924,-3.65,-3.7489,-3.8168,-3.8588,-3.8588,-3.8525,-3.8415,0.0,0.0,0.0,0.0,0.0,0.0,0.0,0.0,0.0,0.0,0.0,0.0,-3.5991,-3.5019,-3.3956,-3.2756,0.0,0.0,0.0,0.0,0.0,0.0,0.0,0.0,0.0,0.0,0.0,0.0,0.0,0.0,0.0,0.0,0.0,0.0,0.0,0.0,0.0,0.0,0.0,0.0,0.0,0.0,0.0,0.0,0.0,0.0,-1.8745,-1.9618,-2.044,-2.1606,-2.259,-2.3372,-2.4371,-2.5264,-2.6002,-2.6405,-2.6939,-2.7703,-2.798,-2.8308,-2.8683,-2.8972,-2.9289,-2.9634,-2.9991,-3.019,-3.0249,-3.0066,-2.9929,-2.9777,-2.9665,-2.9602,-2.9602,0.0,0.0,0.0,0.0,0.0,0.0,0.0,0.0,0.0,0.0,-3.5929,0.0,0.0,0.0,0.0,0.0,0.0,0.0,0.0,-3.5708,-3.5658,-3.5604,-3.5515,-3.5395,-3.5215,-3.5046,-3.4908,-3.4798,-3.4645,-3.4506,-3.4404,-3.4233,-3.4124,-3.4098,-3.4855,-3.5418,-3.5891,-3.6953,-3.7644,-3.8024,-3.8334,-3.8415,-3.837,0.0,0.0,0.0,0.0,0.0,0.0,0.0,0.0,0.0,0.0,0.0,0.0,-3.6098,-3.5117,-3.4064,-3.2801,0.0,0.0,0.0,0.0,0.0,0.0,0.0,0.0,0.0,0.0,0.0,0.0,0.0,0.0,0.0,0.0,0.0,0.0,0.0,0.0,0.0,0.0,0.0,0.0,0.0,0.0,0.0,0.0,0.0,0.0,-1.836,-1.9285,-2.0312,-2.1302,-2.2286,-2.3298,-2.4215,-2.5004,-2.5676,-2.6151,-2.6667,-2.7188,-2.7736,-2.8249,-2.8702,-2.9257,-2.9602,-2.982,-3.0235,-3.0417,-3.0417,-3.0249,-3.0052,-2.9898,-2.9744,-2.9665,-2.9602,0.0,0.0,0.0,0.0,0.0,0.0,0.0,0.0,0.0,0.0,-3.5886,-3.5866,0.0,0.0,0.0,0.0,0.0,0.0,0.0,0.0,-3.5658,-3.5604,-3.547,-3.5304,-3.5101,-3.4964,-3.4879,-3.4798,-3.4583,-3.4461,-3.4404,-3.4185,-3.4061,-3.4035,-3.4755,-3.4995,-3.4993,-3.6446,-3.7116,-3.7255,-3.8,-3.8281,-3.829,-3.829,0.0,0.0,0.0,0.0,0.0,0.0,0.0,0.0,0.0,0.0,-3.7506,-3.638,-3.5419,-3.4441,0.0,0.0,0.0,0.0,0.0,0.0,0.0,0.0,0.0,0.0,0.0,0.0,0.0,0.0,0.0,0.0,0.0,0.0,0.0,0.0,0.0,0.0,0.0,0.0,0.0,0.0,0.0,0.0,0.0,0.0,0.0,-1.7644,-1.8667,-1.9901,-2.0872,-2.1976,-2.3195,-2.4156,-2.4826,-2.5264,-2.6,-2.6461,-2.6726,-2.7443,-2.817,-2.8867,-2.9713,-3.008,-3.0111,-3.0462,-3.0598,-3.0568,-3.0387,-3.0249,-3.0111,-2.9884,-2.9699,-2.9602,0.0,0.0,0.0,0.0,0.0,0.0,0.0,0.0,0.0,0.0,0.0,0.0,0.0,0.0,0.0,0.0,0.0,0.0,0.0,0.0,-3.5658,-3.5604,-3.5416,-3.5251,-3.5088,-3.4982,-3.4879,-3.4798,-3.4539,-3.4397,-3.4386,-3.4136,-3.4011,-3.3985,-3.4022,-3.4348,-3.492,-3.5195,-3.6033,-3.7139,-3.7303,-3.7727,-3.8225,-3.8225,-3.8225,0.0,0.0,0.0,0.0,0.0,0.0,0.0,-3.8017,-3.7984,-3.7626,-3.6088,-3.5346,0.0,0.0,0.0,0.0,0.0,0.0,0.0,0.0,0.0,0.0,0.0,0.0,0.0,0.0,0.0,0.0,0.0,0.0,0.0,0.0,0.0,0.0,0.0,0.0,0.0,0.0,0.0,0.0,0.0,0.0,0.0,-1.6851,-1.7644,-1.8499,-1.9424,-2.0608,-2.1654,-2.2506,-2.3537,-2.4419,0.0,-2.5558,-2.6094,-2.6726,-2.7443,-2.8235,-2.9053,-2.9637,-2.996,-3.0111,-3.0462,-3.0598,-3.0568,-3.0387,-3.0296,-3.0235,-2.9901,-2.9777,-2.973,0.0,0.0,0.0,0.0,0.0,0.0,0.0,0.0,0.0,0.0,0.0,0.0,0.0,0.0,0.0,0.0,0.0,0.0,0.0,0.0,-3.5653,-3.556,-3.5388,-3.5235,-3.5105,-3.501,-3.4908,-3.4798,-3.4561,-3.4439,-3.4386,-3.4124,-3.3998,-3.3985,-3.3793,-3.3922,-3.43,-3.463,-3.5196,-3.5937,-3.6318,-3.6937,-3.7629,-3.7629,-3.7865,-3.8209,-3.8209,0.0,0.0,0.0,0.0,0.0,0.0,0.0,-3.7934,-3.6638,0.0,0.0,0.0,0.0,0.0,0.0,0.0,0.0,0.0,0.0,0.0,0.0,0.0,0.0,0.0,0.0,0.0,0.0,0.0,0.0,0.0,0.0,0.0,0.0,0.0,0.0,0.0,0.0,0.0,0.0,0.0,-1.5694,-1.6334,-1.7126,-1.7975,-1.8975,-1.9992,-2.1039,-2.2161,-2.3111,-2.3972,-2.479,-2.5241,-2.5943,-2.6871,-2.7676,-2.8352,-2.8976,-2.9481,-2.9837,-3.0111,-3.0371,-3.0507,-3.0598,-3.0477,-3.0387,-3.0282,-3.0099,-2.9931,-2.9777,0.0,0.0,0.0,0.0,0.0,0.0,0.0,0.0,0.0,0.0,0.0,0.0,0.0,0.0,0.0,0.0,0.0,0.0,0.0,0.0,0.0,-3.5714,-3.5592,-3.5465,-3.535,-3.5265,-3.5078,-3.4798,-3.4612,-3.4484,-3.4386,-3.4124,-3.3998,-3.3985,-3.378,-3.3643,-3.3628,-3.4218,-3.451,-3.463,-3.5284,-3.6041,-3.6779,-3.6779,-3.7268,-3.7991,-3.7991,-3.8132,-3.8307,-3.8307,0.0,0.0,0.0,0.0,-3.83,-3.7421,0.0,0.0,0.0,0.0,0.0,0.0,0.0,0.0,0.0,0.0,0.0,0.0,0.0,0.0,0.0,0.0,0.0,0.0,0.0,0.0,0.0,0.0,0.0,0.0,0.0,0.0,0.0,0.0,0.0,0.0,0.0,-1.5272,-1.578,-1.6508,-1.7413,-1.8535,-1.9381,-2.0435,-2.1732,-2.2693,-2.3567,-2.4398,-2.5099,-2.5965,-2.6973,-2.7829,-2.8417,-2.8835,-2.9338,-2.9758,-3.0111,-3.0235,-3.0417,-3.0598,-3.0598,-3.0507,-3.0357,-3.0312,-3.0099,-2.9853,0.0,0.0,0.0,0.0,0.0,0.0,0.0,0.0,0.0,0.0,0.0,0.0,0.0,0.0,0.0,0.0,0.0,0.0,0.0,0.0,0.0,-3.6601,-3.651,-3.6388,-3.6298,-3.6177,-3.5695,-3.4798,-3.4655,-3.4517,-3.4386,-3.4124,-3.3998,-3.3985,-3.3726,-3.3619,-3.3591,-3.352,-3.3867,-3.4501,-3.4495,-3.5049,-3.5867,-3.5867,-3.6405,-3.7158,-3.7158,-3.7642,-3.8307,-3.8307,-3.8469,0.0,0.0,0.0,0.0,0.0,0.0,0.0,0.0,0.0,0.0,0.0,0.0,0.0,0.0,0.0,0.0,0.0,0.0,0.0,0.0,0.0,0.0,0.0,0.0,0.0,0.0,0.0,0.0,0.0,0.0,0.0,0.0,0.0,0.0,0.0,-1.4617,-1.5199,-1.5762,-1.6508,-1.7273,-1.8061,-1.9209,-2.0131,-2.0773,-2.2218,-2.3242,-2.3898,-2.5387,-2.6302,-2.6782,-2.751,-2.8189,-2.8835,-2.9184,-2.962,-3.0111,-3.0235,-3.0417,-3.0598,-3.0598,-3.0568,-3.0538,-3.0357,-3.0205,-3.0036,0.0,0.0,0.0,0.0,0.0,0.0,0.0,0.0,0.0,0.0,0.0,0.0,0.0,0.0,0.0,0.0,0.0,0.0,0.0,0.0,0.0,0.0,-3.6664,-3.6569,-3.6506,-3.6366,-3.5809,-3.4798,-3.4697,-3.4561,0.0,-3.4161,-3.4036,-3.3985,-3.3726,-3.3605,-3.3591,-3.3396,-3.3509,-3.3818,-3.3671,-3.4139,-3.4907,-3.499,-3.5559,-3.6278,-3.6311,-3.6622,-3.7023,-3.7051,-3.7519,-3.8085,-3.8129,0.0,0.0,0.0,0.0,0.0,0.0,0.0,0.0,0.0,0.0,0.0,0.0,0.0,0.0,0.0,0.0,0.0,0.0,0.0,0.0,0.0,0.0,0.0,0.0,0.0,0.0,0.0,0.0,0.0,0.0,0.0,0.0,0.0,-1.4605,-1.5177,-1.5762,-1.6508,-1.7254,-1.7974,-1.8798,-1.9635,-2.042,-2.1402,-2.257,-2.3921,-2.5246,-2.6094,-2.6564,-2.7289,-2.7973,-2.8546,-2.8976,-2.9432,-2.9834,-3.0097,-3.0266,-3.0447,-3.0568,-3.0598,-3.0598,-3.0507,-3.0357,-3.0189,0.0,0.0,0.0,0.0,0.0,0.0,0.0,0.0,0.0,0.0,0.0,0.0,0.0,0.0,0.0,0.0,0.0,0.0,0.0,0.0,0.0,0.0,0.0,-3.6998,-3.7154,-3.6812,-3.615,-3.516,0.0,0.0,-3.4427,-3.4233,-3.4099,0.0,-3.3726,-3.3605,-3.3591,0.0,-3.3247,-3.3247,-3.3104,-3.3414,-3.3984,-3.4083,-3.465,-3.5399,-3.5449,-3.5714,-3.6009,-3.6083,-3.6633,-3.7344,-3.741,0.0,0.0,0.0,0.0,0.0,0.0,0.0,0.0,0.0,0.0,0.0,0.0,0.0,0.0,0.0,0.0,0.0,0.0,0.0,0.0,0.0,0.0,0.0,0.0,0.0,0.0,0.0,0.0,0.0,0.0,0.0,0.0,0.0,-1.4677,-1.5248,-1.5833,-1.6517,-1.7254,-1.7974,-1.8506,-1.9241,-2.0103,-2.0874,-2.2173,-2.4013,-2.4974,-2.575,-2.6427,-2.7154,-2.7756,-2.8268,-2.883,-2.9289,-2.9634,-2.9958,-3.0219,-3.0387,-3.0568,-3.0672,-3.0732,-3.0672,-3.0538,-3.0357,0.0,0.0,0.0,0.0,0.0,0.0,0.0,0.0,0.0,0.0,0.0,0.0,-3.5612,-3.5657,-3.5707,-3.5693,0.0,0.0,0.0,0.0,0.0,0.0,0.0,0.0,-3.8957,-3.8021,-3.7072,-3.614,0.0,0.0,-3.4495,-3.4351,-3.4185,-3.3985,-3.3726,-3.3605,-3.3591,0.0,0.0,-3.3101,-3.2945,-3.2965,-3.3066,0.0,0.0,0.0,0.0,-3.5178,-3.6009,-3.6083,-3.6295,-3.6579,0.0,0.0,0.0,0.0,0.0,0.0,0.0,0.0,0.0,0.0,0.0,0.0,0.0,0.0,0.0,0.0,0.0,0.0,0.0,0.0,0.0,0.0,0.0,0.0,0.0,0.0,0.0,0.0,0.0,0.0,0.0,0.0,0.0,0.0,-1.4883,-1.5453,-1.6061,-1.6586,-1.7254,-1.7974,-1.8506,-1.9052,-1.9647,-2.0974,-2.2443,-2.4013,-2.4659,-2.5441,-2.6427,-2.7154,-2.7736,-2.8145,-2.8812,-2.9289,-2.9634,-2.9958,-3.028,-3.0598,-3.0732,-3.0925,-3.1043,-3.0866,-3.0702,-3.0568,0.0,0.0,0.0,0.0,0.0,0.0,0.0,0.0,0.0,0.0,0.0,0.0,0.0,-3.5612,-3.564,-3.5643,-3.5689,0.0,0.0,0.0,0.0,0.0,0.0,0.0,0.0,-3.8117,0.0,0.0,0.0,-3.4727,-3.455,-3.4374,-3.4221,-3.4049,-3.3793,-3.3629,-3.3591,-3.3238,0.0,-3.3086,-3.2963,-3.2916,-3.2932,0.0,0.0,0.0,0.0,0.0,0.0,0.0,0.0,0.0,0.0,0.0,0.0,0.0,0.0,0.0,0.0,0.0,0.0,0.0,0.0,0.0,0.0,0.0,0.0,0.0,0.0,0.0,0.0,0.0,0.0,0.0,0.0,0.0,0.0,0.0,0.0,0.0,0.0,0.0,0.0,0.0,0.0,0.0,0.0,-1.5753,-1.6061,-1.6716,-1.7382,-1.7974,-1.8506,-1.9208,-2.0107,-2.1172,-2.2166,-2.3105,-2.4263,-2.5395,-2.6417,-2.7152,-2.7703,-2.8145,-2.8812,-2.9212,-2.9449,-2.9913,-3.028,-3.0598,-3.0762,-3.0925,-3.1087,-3.1014,-3.0895,-3.0702,0.0,0.0,0.0,0.0,0.0,0.0,0.0,0.0,0.0,-3.7849,0.0,0.0,0.0,0.0,-3.5606,-3.5607,-3.5658,-3.5698,-3.5707,-3.5635,0.0,0.0,0.0,0.0,0.0,-3.8286,0.0,0.0,0.0,0.0,0.0,-3.445,-3.4269,-3.4086,-3.3842,-3.3684,0.0,0.0,0.0,-3.3086,-3.2932,-3.287,-3.2868,0.0,0.0,0.0,0.0,0.0,0.0,0.0,0.0,0.0,0.0,0.0,0.0,0.0,0.0,0.0,0.0,0.0,0.0,0.0,0.0,0.0,0.0,0.0,0.0,0.0,0.0,0.0,0.0,0.0,0.0,0.0,0.0,0.0,0.0,0.0,0.0,0.0,0.0,0.0,0.0,0.0,0.0,0.0,0.0,0.0,-1.6351,-1.6934,-1.7613,-1.8347,-1.8875,-1.9572,-2.0378,-2.1134,-2.1885,-2.266,-2.3755,-2.4971,-2.6271,-2.6933,-2.7584,-2.8197,-2.8894,-2.923,-2.9341,-2.9929,-3.0371,-3.0687,-3.0925,-3.1117,-3.122,-3.1234,-3.1117,-3.094,0.0,0.0,0.0,0.0,0.0,0.0,0.0,0.0,-3.9399,-3.9304,0.0,0.0,0.0,0.0,0.0,-3.5679,-3.5742,-3.5773,-3.576,-3.5712,-3.6413,0.0,0.0,0.0,0.0,0.0,0.0,0.0,0.0,0.0,0.0,0.0,-3.4351,-3.4099,-3.3895,-3.3726,-3.3591,0.0,-3.3101,-3.307,0.0,-3.2807,-3.2807,0.0,0.0,0.0,-3.3055,-3.3268,0.0,-3.3739,0.0,0.0,0.0,0.0,0.0,0.0,0.0,0.0,0.0,0.0,0.0,0.0,0.0,0.0,0.0,0.0,0.0,0.0,0.0,0.0,0.0,0.0,0.0,0.0,0.0,0.0,0.0,0.0,0.0,0.0,0.0,0.0,0.0,0.0,0.0,0.0,-1.5921,-1.6386,-1.6874,-1.7245,-1.7954,-1.9108,-1.9638,-2.0074,-2.041,-2.0935,-2.1699,-2.2686,-2.3051,-2.4159,-2.5897,-2.6434,-2.7299,-2.8306,-2.9012,-2.931,-2.9373,-3.0038,-3.0507,-3.0851,-3.1321,-3.1509,-3.1496,-3.1523,-3.1423,-3.1263,0.0,0.0,0.0,0.0,0.0,0.0,-4.0712,-4.0456,-4.0048,0.0,0.0,0.0,-3.7733,-3.748,-3.7372,-3.7461,-3.7506,-3.7512,-3.7518,-3.7443,-3.7887,-3.8926,-3.8904,-3.9353,-4.0388,0.0,0.0,0.0,-3.578,-3.4869,-3.4768,-3.4591,0.0,0.0,-3.3959,-3.378,-3.3591,-3.3238,0.0,-3.307,-3.2886,-3.2807,0.0,0.0,0.0,0.0,0.0,-3.3268,-3.352,0.0,-3.3921,-3.4124,0.0,0.0,0.0,0.0,0.0,0.0,-3.4179,0.0,0.0,0.0,0.0,0.0,0.0,0.0,0.0,0.0,0.0,0.0,0.0,0.0,0.0,0.0,0.0,0.0,0.0,0.0,0.0,0.0,0.0,0.0,0.0,0.0,0.0,0.0,-1.6751,-1.7107,-1.7245,-1.7988,-1.8798,-1.9671,-2.0074,-2.0496,-2.0978,-2.1463,-2.1922,-2.2351,-2.3336,-2.4368,-2.5441,-2.6393,-2.7226,-2.7921,-2.8866,-2.9529,-2.9901,-3.0357,-3.0777,-3.119,-3.1408,-3.1653,-3.184,-3.1868,-3.1682,-3.1437,0.0,0.0,0.0,0.0,0.0,-4.0798,-4.0688,-4.0628,-4.0417,0.0,0.0,0.0,-3.8104,-3.7998,-3.804,-3.8099,-3.8138,-3.8164,-3.8164,-3.8099,-3.8432,-3.9259,-3.9258,-3.9437,-3.9859,-3.8506,-3.7549,-3.709,-3.5675,-3.4927,-3.48,-3.4615,-3.4427,0.0,0.0,0.0,0.0,0.0,0.0,0.0,-3.2804,0.0,0.0,-3.2674,-3.2724,0.0,0.0,0.0,-3.3452,-3.3671,-3.3947,0.0,0.0,0.0,0.0,0.0,0.0,0.0,0.0,0.0,0.0,0.0,0.0,0.0,-3.2385,-3.186,-3.1227,0.0,0.0,0.0,0.0,0.0,0.0,0.0,0.0,0.0,0.0,0.0,0.0,0.0,0.0,0.0,0.0,-1.7731,-1.7873,-1.7873,-1.8132,-1.8311,-1.8337,-1.8965,-1.9594,-2.015,-2.0614,-2.0999,-2.1411,-2.187,-2.2254,-2.2494,-2.3262,-2.4126,-2.5081,-2.5901,-2.6863,-2.7976,-2.8878,-2.9673,-3.0403,-3.0792,-3.1161,-3.1408,-3.1752,-3.1938,-3.2025,-3.2122,-3.1966,-3.171,0.0,0.0,0.0,-4.0903,-4.0834,-4.0745,-4.0628,-4.0591,-4.0565,0.0,-3.9873,-3.9142,-3.8365,-3.8279,-3.8289,-3.8289,-3.8336,-3.8375,-3.8375,-3.8329,-3.8597,-3.9271,-3.9299,-3.9208,-3.8966,-3.8161,-3.731,-3.6401,-3.5538,-3.5001,-3.4812,-3.4668,-3.4473,-3.4209,0.0,0.0,0.0,0.0,0.0,-3.2963,-3.2705,-3.2556,0.0,0.0,-3.254,-3.2622,-3.29,-3.3106,-3.3322,-3.3615,-3.3972,0.0,0.0,0.0,0.0,0.0,-3.455,0.0,0.0,0.0,0.0,0.0,0.0,0.0,-3.283,-3.2402,-3.1878,-3.1172,0.0,0.0,0.0,0.0,0.0,0.0,0.0,0.0,0.0,0.0,0.0,0.0,0.0,0.0,-1.9721,-1.9889,-1.9971,-1.9971,-1.9877,-1.9897,-1.9996,-2.0293,-2.0596,-2.0875,-2.1374,-2.1698,-2.1839,-2.2285,-2.2665,-2.2969,-2.3138,-2.3812,-2.4917,-2.5316,-2.6467,-2.8227,-2.8902,-2.9854,-3.0881,-3.135,-3.1566,-3.1623,-3.2188,-3.2274,-3.2137,-3.2358,-3.2302,-3.2038,0.0,0.0,-4.0924,-4.0898,-4.0798,-4.0681,-4.0602,-4.0549,-4.0508,-4.0507,-4.0364,-4.021,-4.0038,-4.0019,-4.0038,-4.008,-4.0094,-4.0114,-4.0114,-4.0106,-3.986,-3.9311,-3.9304,-3.8927,-3.8154,-3.7287,-3.6725,-3.6483,-3.5555,-3.5001,-3.4812,-3.471,0.0,0.0,0.0,0.0,0.0,0.0,0.0,-3.29,-3.2688,0.0,-3.2507,-3.2507,-3.2524,-3.2557,-3.282,-3.3011,-3.3208,-3.3694,-3.4023,-3.4245,0.0,0.0,0.0,-3.4572,0.0,0.0,0.0,0.0,0.0,0.0,0.0,0.0,-3.3172,-3.283,-3.2419,0.0,0.0,0.0,0.0,0.0,0.0,0.0,0.0,0.0,0.0,0.0,0.0,0.0,0.0,0.0,-2.1899,-2.1795,-2.1702,-2.1702,-2.1831,-2.2105,-2.2551,-2.2651,-2.2695,-2.2699,-2.2965,-2.2946,-2.2665,-2.303,-2.33,-2.348,-2.3747,-2.4246,-2.4866,-2.5623,-2.6707,-2.8088,-2.8984,-3.0061,-3.1248,-3.1726,-3.1981,-3.2079,-3.2315,-3.2523,-3.2734,-3.2788,-3.2676,-3.2465,0.0,0.0,-4.0893,-4.0858,-4.0775,-4.0668,-4.0602,-4.0546,-4.0487,-4.051,-4.0458,-4.0458,-4.0502,-4.0507,-4.0519,-4.0558,-4.0539,-4.0539,-4.0539,-4.0173,-3.9761,-3.9323,-3.8873,-3.8243,-3.7325,-3.6834,-3.6377,-3.5903,-3.5354,-3.5029,-3.4908,0.0,0.0,0.0,0.0,0.0,0.0,0.0,-3.2979,-3.2331,-3.2528,0.0,-3.2353,-3.2353,-3.2388,-3.2473,-3.269,-3.2979,-3.3301,-3.3643,-3.3908,0.0,0.0,-3.4363,-3.4461,0.0,-3.4528,-3.4484,0.0,0.0,0.0,-3.4036,0.0,0.0,0.0,-3.3187,-3.2829,-3.2468,0.0,0.0,0.0,0.0,0.0,0.0,0.0,0.0,0.0,0.0,0.0,0.0,0.0,0.0,-2.4532,-2.4376,-2.4178,-2.4004,-2.4092,-2.4183,-2.4332,-2.4417,-2.4297,-2.396,-2.4195,-2.4063,-2.3497,-2.3721,-2.3927,-2.4044,-2.4218,-2.4576,-2.5115,-2.5643,-2.6595,-2.7826,-2.8841,-2.9996,-3.1202,-3.1998,-3.2496,-3.2757,-3.2823,-3.2947,-3.3112,-3.3176,-3.3081,-3.2942,0.0,0.0,0.0,-4.0782,-4.0732,-4.0654,-4.06,-4.0508,-4.0485,-4.0468,-4.0281,-4.0166,-4.0227,0.0,0.0,0.0,-4.0008,-4.0015,-4.0015,-3.9419,-3.8969,-3.8815,-3.8123,-3.7358,-3.6495,-3.6393,-3.601,-3.53,-3.5162,-3.5066,0.0,0.0,0.0,0.0,0.0,0.0,0.0,0.0,0.0,-3.1513,0.0,-3.1981,-3.176,-3.1742,-3.1812,-3.1932,-3.2114,-3.2498,-3.2944,-3.3261,-3.3515,-3.3795,-3.408,-3.4257,0.0,0.0,0.0,0.0,0.0,0.0,0.0,0.0,0.0,-3.3847,0.0,0.0,0.0,0.0,0.0,0.0,0.0,0.0,0.0,0.0,0.0,0.0,0.0,0.0,0.0,0.0,0.0,0.0,-2.7202,-2.7,-2.6765,-2.6486,-2.6427,-2.6343,-2.6162,-2.6248,-2.6047,-2.5436,-2.5572,-2.5282,-2.4551,-2.4518,-2.4595,-2.4723,-2.4723,-2.5021,-2.5563,-2.5756,-2.6518,-2.7724,-2.8817,-3.0006,-3.1204,-3.2257,-3.2969,-3.3398,-3.3372,-3.3398,-3.3424,-3.3581,-3.3529,-3.344,-4.0902,-4.0913,0.0,0.0,-4.0668,-4.0593,-4.0519,-4.0444,0.0,0.0,0.0,0.0,0.0,0.0,0.0,0.0,0.0,0.0,-3.8277,0.0,-3.7796,-3.7019,-3.6904,-3.6462,-3.5647,-3.5499,-3.5404,-3.53,-3.5179,-3.5066,0.0,0.0,0.0,0.0,-3.4281,0.0,0.0,0.0,-3.1683,0.0,-3.0519,-3.0349,0.0,-3.0103,-3.012,-3.0217,-3.055,-3.0838,-3.1225,0.0,-3.2597,-3.2912,0.0,-3.4161,-3.4245,-3.4363,0.0,0.0,0.0,0.0,0.0,0.0,-3.4086,0.0,0.0,0.0,-3.3601,-3.3444,0.0,0.0,0.0,0.0,0.0,0.0,0.0,0.0,0.0,0.0,0.0,0.0,0.0,0.0,0.0,-2.9139,-2.8843,-2.8819,-2.8706,-2.8706,-2.8837,-2.8868,-2.8609,-2.8003,-2.749,-2.6877,-2.6168,-2.5562,-2.5356,-2.555,-2.555,-2.5797,-2.6203,-2.6336,-2.707,-2.8272,-2.9277,-3.0422,-3.1615,-3.2638,-3.3346,-3.3822,-3.3694,-3.3736,-3.3848,-3.3975,-3.3949,-3.3822,-4.0907,-4.0848,0.0,0.0,0.0,0.0,0.0,0.0,0.0,0.0,0.0,0.0,0.0,0.0,0.0,0.0,0.0,-3.7947,0.0,0.0,0.0,-3.6653,-3.6166,-3.5724,-3.5398,-3.532,-3.5297,-3.5297,-3.517,-3.5084,0.0,0.0,0.0,0.0,-3.4305,0.0,-3.2577,0.0,-3.1301,0.0,0.0,0.0,0.0,-2.9429,-2.9809,-2.9922,-3.0147,-3.0427,-3.0765,0.0,-3.1556,0.0,0.0,0.0,0.0,0.0,0.0,0.0,0.0,0.0,0.0,0.0,0.0,0.0,-3.4036,0.0,-3.3807,0.0,0.0,0.0,0.0,0.0,0.0,0.0,-3.41,0.0,0.0,0.0,0.0,0.0,0.0,0.0,0.0,0.0,0.0,0.0,-3.0705,-3.0704,-3.0704,-3.0704,-3.0323,-2.9537,-2.8885,-2.8094,-2.7157,-2.6489,-2.6163,-2.6163,-2.6163,-2.6365,-2.6712,-2.6855,-2.7299,-2.809,-2.944,-3.0494,-3.1367,-3.2845,-3.3668,-3.405,-3.43,-3.4374,-3.4349,-3.4349,-3.4349,-3.4349,-4.0844,0.0,0.0,0.0,0.0,0.0,0.0,0.0,0.0,0.0,0.0,0.0,-3.7445,-3.7184,0.0,0.0,-3.7179,-3.7186,0.0,0.0,-3.6228,0.0,0.0,0.0,-3.5308,-3.5308,-3.5285,-3.5269,-3.5153,-3.5084,0.0,0.0,0.0,0.0,0.0,-3.3469,-3.226,0.0,0.0,-2.903,-2.8709,-2.8089,-2.7508,-2.8636,-2.9118,-2.923,-2.939,-2.9622,-2.9929,-3.0299,-3.0563,0.0,-3.1874,0.0,0.0,0.0,0.0,0.0,-3.4233,0.0,0.0,0.0,0.0,0.0,0.0,0.0,0.0,0.0,0.0,0.0,0.0,0.0,0.0,0.0,0.0,0.0,0.0,0.0,0.0,0.0,0.0,0.0,0.0,0.0,0.0,-3.2482,-3.236,-3.2266,-3.217,-3.2086,-3.1734,-3.1013,-3.0102,-2.9185,-2.8348,-2.746,-2.693,-2.68,-2.68,-2.6959,-2.7222,-2.7361,-2.773,-2.8323,-2.9766,-3.0808,-3.1546,-3.3147,-3.4,-3.43,-3.4715,-3.4906,-3.493,-3.478,-3.4763,-3.4804,-4.07,-4.07,0.0,0.0,0.0,0.0,0.0,0.0,0.0,0.0,0.0,0.0,0.0,0.0,0.0,0.0,0.0,-3.5388,-3.5388,0.0,-3.5331,0.0,0.0,-3.5308,0.0,-3.5308,-3.5269,-3.5209,-3.5136,-3.5029,0.0,0.0,0.0,0.0,0.0,-3.3167,-3.1427,-3.1146,-2.9958,-2.8209,-2.7868,-2.7494,-2.7135,0.0,-2.7478,-2.7508,-2.7714,0.0,0.0,-2.9141,-2.9611,0.0,0.0,0.0,0.0,0.0,0.0,0.0,0.0,0.0,0.0,-3.4197,0.0,0.0,0.0,0.0,-3.4185,0.0,0.0,0.0,0.0,0.0,0.0,0.0,0.0,0.0,0.0,0.0,0.0,0.0,0.0,0.0,0.0,0.0,-3.3937,-3.3921,-3.3582,-3.3365,-3.3365,-3.3119,-3.2879,-3.273,-3.1191,-3.0236,-2.9917,-2.849,-2.7715,-2.756,-2.756,-2.7625,-2.7765,-2.7925,-2.8498,-2.9416,-3.0489,-3.1546,-3.2536,-3.3634,-3.4325,-3.4707,-3.4851,-3.5165,-3.5554,-3.536,-3.5198,-3.5105,0.0,0.0,0.0,0.0,0.0,0.0,0.0,-3.8994,0.0,0.0,0.0,0.0,0.0,-3.5254,-3.51,0.0,0.0,-3.5162,-3.5162,-3.5179,0.0,0.0,0.0,-3.5168,0.0,0.0,-3.5153,-3.5136,-3.5075,0.0,0.0,0.0,0.0,0.0,0.0,-3.3012,0.0,0.0,0.0,0.0,0.0,-2.734,-2.7119,0.0,0.0,-2.7277,-2.7494,-2.7674,0.0,-2.8369,-2.8629,-2.8919,-2.9921,-3.0475,-3.0888,-3.161,-3.2446,0.0,0.0,0.0,-3.4136,-3.4136,0.0,0.0,0.0,0.0,0.0,0.0,0.0,0.0,0.0,0.0,0.0,0.0,0.0,0.0,0.0,0.0,0.0,0.0,0.0,0.0,0.0,0.0,0.0,-3.4948,-3.4807,-3.4616,-3.4342,-3.4243,-3.4036,-3.3662,-3.2615,-3.1599,-3.0674,-2.9639,-2.8787,-2.8137,-2.8137,-2.8137,-2.8201,-2.8332,-2.8657,-2.9162,-3.0523,-3.1491,-3.2152,-3.364,-3.4423,-3.4715,-3.5041,-3.5344,-3.5577,-3.5418,-3.5441,-3.5549,-4.0489,0.0,0.0,0.0,0.0,0.0,0.0,0.0,0.0,0.0,-3.5932,0.0,-3.505,0.0,-3.5002,0.0,-3.5001,-3.5001,-3.5001,-3.5011,0.0,-3.5001,-3.5029,0.0,0.0,0.0,0.0,0.0,0.0,-3.4917,0.0,0.0,0.0,0.0,0.0,-3.2967,-3.118,0.0,-2.9751,0.0,0.0,-2.7214,0.0,0.0,-2.7168,-2.7181,0.0,-2.7557,-2.7686,-2.7879,-2.8071,-2.8326,-2.8999,-2.9488,-2.995,-3.064,-3.1468,-3.2193,-3.2287,-3.2742,0.0,-3.3247,-3.3487,0.0,-3.377,0.0,0.0,0.0,0.0,0.0,0.0,0.0,0.0,0.0,0.0,0.0,0.0,-3.7201,0.0,0.0,0.0,0.0,0.0,0.0,-3.6169,-3.5955,-3.5798,-3.5594,0.0,0.0,-3.4904,-3.4546,-3.3632,-3.2692,-3.1754,-3.0647,-2.9728,-2.9042,-2.8745,-2.8597,-2.8645,-2.874,-2.8991,-2.9446,-3.0561,-3.147,-3.2321,-3.351,-3.4316,-3.4875,-3.5205,-3.5487,-3.5734,-3.5583,-3.5689,-3.5861,0.0,0.0,0.0,0.0,-4.0019,0.0,0.0,0.0,-3.6977,0.0,-3.526,-3.4788,-3.4788,-3.4788,-3.479,-3.4802,-3.4812,-3.4812,-3.4812,-3.4851,0.0,0.0,-3.4917,-3.4992,-3.4992,0.0,0.0,0.0,0.0,0.0,0.0,0.0,0.0,0.0,-3.4074,0.0,-3.118,-3.0902,-2.9708,-2.7925,-2.7417,-2.712,-2.6991,-2.7008,-2.7023,-2.7119,-2.7312,-2.7483,-2.7617,-2.7672,-2.7922,-2.8182,-2.8196,-2.8901,-2.9735,-2.9748,-3.0487,-3.1317,-3.1329,-3.1458,-3.1602,-3.1668,0.0,0.0,0.0,0.0,-3.4274,0.0,0.0,0.0,0.0,0.0,0.0,0.0,0.0,0.0,0.0,0.0,0.0,0.0,0.0,0.0,0.0,-3.7189,-3.6939,-3.6939,-3.6557,0.0,0.0,0.0,-3.5543,-3.5337,-3.428,-3.351,-3.3129,-3.1515,-3.0527,-3.0228,-2.9344,-2.899,-2.9137,-2.9137,-2.9531,-3.0291,-3.0564,-3.1539,-3.2943,-3.3239,-3.403,-3.5062,-3.526,-3.5616,-3.5997,-3.5883,-3.5905,-3.6019,-4.0251,-4.0109,-3.9956,0.0,-3.9892,-3.9386,0.0,0.0,0.0,0.0,-3.4808,-3.4666,-3.4727,-3.4737,-3.4758,-3.4809,-3.479,0.0,0.0,0.0,0.0,-3.48,-3.482,-3.4859,-3.4859,-3.4868,0.0,-3.4839,0.0,0.0,-3.4623,0.0,0.0,0.0,0.0,0.0,-3.1029,-3.0761,-2.9491,-2.7602,-2.7244,-2.7087,0.0,0.0,-2.6942,-2.6975,-2.7184,-2.7355,-2.7539,-2.7657,-2.7864,-2.8071,-2.8168,-2.8416,-2.8707,-2.8869,-2.9533,-3.0223,-3.0343,-3.0888,-3.1446,-3.147,-3.1733,-3.2018,0.0,0.0,0.0,0.0,0.0,0.0,0.0,0.0,0.0,0.0,0.0,0.0,0.0,0.0,0.0,0.0,0.0,0.0,0.0,-3.7721,-3.7559,-3.7358,-3.7148,0.0,0.0,0.0,0.0,-3.5822,-3.5329,-3.4603,-3.3617,-3.2492,-3.1507,-3.0644,-2.9861,-2.9457,-2.9405,-2.9405,-2.9582,-2.9945,-3.0584,-3.1196,-3.1808,-3.256,-3.3425,-3.4301,-3.46,-3.5307,-3.6144,-3.617,-3.6195,-3.6216,-4.0138,0.0,0.0,-3.9682,0.0,0.0,-3.7935,0.0,0.0,-3.5312,-3.4772,0.0,-3.4561,-3.4561,-3.4572,-3.4623,-3.4634,0.0,-3.4634,0.0,0.0,-3.4634,-3.4655,-3.4666,-3.4666,-3.4687,0.0,-3.4666,0.0,0.0,-3.4473,0.0,0.0,0.0,0.0,-3.2652,0.0,-2.9794,-2.8617,-2.7434,-2.7168,0.0,0.0,-2.6859,-2.6842,-2.6909,-2.7023,-2.7198,-2.7386,-2.7569,-2.7733,-2.7879,-2.8028,-2.8154,-2.8291,-2.838,-2.8822,-2.9251,-2.9354,-2.9813,-3.0241,-3.0332,-3.0698,-3.105,-3.1108,-3.15,-3.1868,0.0,0.0,0.0,0.0,0.0,0.0,0.0,0.0,0.0,0.0,0.0,0.0,0.0,0.0,0.0,0.0,0.0,-3.8018,-3.7791,0.0,0.0,0.0,0.0,0.0,-3.6233,-3.5958,-3.5385,-3.4514,-3.3249,-3.2268,-3.1525,-3.0366,-2.9814,-2.9792,-2.9748,-2.9798,-2.9995,-3.0402,-3.0909,-3.1473,-3.2001,-3.2818,-3.3789,-3.4478,-3.5373,-3.6335,-3.6381,-3.6402,-3.6402,-3.9954,0.0,0.0,0.0,0.0,0.0,0.0,-3.7449,0.0,-3.5751,0.0,-3.434,-3.4351,-3.4351,-3.4351,-3.4363,0.0,-3.4363,-3.4363,-3.4363,-3.4363,-3.4363,-3.4439,-3.4473,-3.4473,-3.4539,-3.4539,0.0,0.0,0.0,0.0,0.0,0.0,0.0,0.0,0.0,0.0,-2.8552,-2.7585,-2.7373,-2.7105,-2.6959,-2.6893,-2.6742,-2.6758,-2.6893,-2.6893,-2.7023,-2.723,-2.7402,-2.7569,-2.7716,-2.7842,-2.8,-2.8186,-2.8182,-2.8313,-2.8484,-2.8549,-2.8637,-2.8737,-2.8893,-2.9495,-3.0068,-3.0196,-3.0846,-3.1444,-3.1455,-3.1637,-3.1798,0.0,0.0,0.0,0.0,0.0,0.0,0.0,0.0,0.0,0.0,0.0,0.0,0.0,0.0,0.0,0.0,0.0,0.0,0.0,0.0,0.0,-3.6588,-3.6305,-3.5946,-3.5515,0.0,-3.2835,-3.2551,-3.0899,-3.0146,-3.021,-3.0103,-3.0124,-3.0231,-3.0253,-3.0742,-3.1508,-3.1551,-3.2244,-3.3422,-3.4569,-3.5573,-3.6364,-3.6489,-3.6544,-3.6564,0.0,0.0,0.0,0.0,0.0,-3.8799,-3.8024,-3.7233,-3.6402,-3.549,-3.4617,-3.4086,-3.4148,-3.4161,-3.4173,-3.4233,-3.4233,0.0,0.0,0.0,0.0,-3.4233,-3.4293,-3.4328,-3.4328,-3.4386,-3.4397,0.0,0.0,0.0,0.0,0.0,0.0,0.0,0.0,0.0,-2.9501,-2.8182,0.0,-2.7373,-2.7105,-2.6959,-2.6893,-2.6742,-2.6708,-2.6742,-2.6859,-2.7023,-2.7197,-2.7228,-2.7446,-2.7701,-2.7716,-2.7864,-2.8056,-2.8168,-2.8223,-2.8277,-2.8393,-2.8523,-2.8625,-2.8662,-2.8907,-2.9142,-2.923,-2.9421,-2.958,-2.9636,-3.0206,-3.0713,-3.083,0.0,0.0,0.0,0.0,0.0,0.0,0.0,0.0,0.0,0.0,0.0,0.0,0.0,0.0,0.0,0.0,0.0,0.0,0.0,0.0,0.0,-3.6676,0.0,0.0,0.0,-3.3203,-3.2966,-3.1349,-3.0506,-3.0375,-3.0401,-3.0443,-3.0464,-3.0568,-3.0775,-3.1052,-3.1197,-3.1933,-3.3048,-3.4446,-3.5246,-3.5674,-3.6397,-3.6705,-3.6748,0.0,0.0,0.0,0.0,0.0,0.0,0.0,-3.6533,0.0,-3.5296,-3.445,-3.3908,-3.3934,-3.3947,-3.3959,-3.3985,-3.3998,-3.4011,-3.4049,-3.4049,-3.4061,-3.4099,-3.4124,0.0,-3.4148,-3.4173,-3.4173,-3.4148,0.0,0.0,0.0,0.0,0.0,0.0,0.0,-3.0137,0.0,0.0,0.0,-2.723,-2.7072,-2.6892,-2.6742,-2.6674,-2.6623,-2.6589,-2.6674,-2.6792,-2.6956,-2.7101,-2.7276,-2.7461,-2.7524,-2.7689,-2.7864,-2.7922,-2.8011,-2.8126,-2.8264,-2.8345,-2.8406,-2.8523,-2.865,-2.8761,-2.8834,-2.8929,-2.901,-2.9078,-2.9436,-2.9869,-3.0394,-3.1195,0.0,0.0,0.0,0.0,0.0,0.0,0.0,0.0,0.0,0.0,0.0,0.0,0.0,0.0,0.0,0.0,0.0,0.0,0.0,0.0,0.0,0.0,0.0,0.0,0.0,-3.3246,-3.162,-3.0794,-3.0667,-3.0692,-3.0712,-3.0712,-3.079,-3.0912,-3.1072,-3.131,-3.1963,-3.2889,-3.3692,-3.459,-3.5511,-3.5993,-3.6477,-3.6908,0.0,-3.9021,0.0,0.0,-3.7971,0.0,-3.6811,-3.5652,-3.4891,-3.5096,-3.4321,-3.3766,-3.3766,-3.3766,-3.3766,-3.3766,-3.3601,-3.3518,-3.359,-3.3406,-3.3353,-3.3405,-3.3418,-3.3504,-3.3688,-3.3701,-3.3781,0.0,0.0,0.0,0.0,0.0,0.0,0.0,0.0,0.0,0.0,0.0,-2.7355,-2.7103,-2.6974,-2.6809,-2.6589,-2.6572,-2.6554,-2.6502,-2.6502,-2.6572,-2.6691,-2.6908,-2.7053,-2.7197,-2.7308,-2.7494,-2.7642,-2.7672,-2.7806,-2.7968,-2.8081,-2.814,-2.8223,-2.8393,-2.8484,-2.8562,-2.8632,-2.8743,-2.8858,-2.8917,-2.901,-2.9292,-2.9975,-3.032,0.0,0.0,0.0,0.0,0.0,0.0,0.0,0.0,0.0,0.0,0.0,0.0,0.0,0.0,0.0,-3.8546,-3.8236,-3.8054,-3.781,0.0,0.0,-3.6928,-3.6606,0.0,-3.3805,-3.3522,-3.1884,-3.1055,-3.0975,-3.1012,-3.1012,-3.0975,-3.1012,-3.1131,-3.1291,-3.154,-3.2015,-3.2638,-3.3002,-3.4,-3.5314,-3.5601,-3.6243,-3.7007,0.0,0.0,0.0,0.0,0.0,0.0,-3.5172,-3.4706,-3.4601,-3.4819,-3.4126,-3.3633,-3.3633,-3.3633,-3.3633,-3.3633,-3.2958,-3.2534,-3.2534,-3.1871,-3.1451,-3.1464,-3.1528,-3.1884,-3.2622,-3.27,-3.3054,0.0,0.0,-3.256,0.0,0.0,0.0,0.0,0.0,0.0,0.0,-2.7404,-2.7181,-2.7086,-2.6825,-2.6691,-2.6589,-2.6537,-2.6502,-2.6502,-2.6502,-2.6502,-2.652,-2.6554,-2.6809,-2.7117,-2.7198,-2.7308,-2.745,-2.7554,-2.7674,-2.7745,-2.7818,-2.7965,-2.8126,-2.8209,-2.8291,-2.8367,-2.8479,-2.8587,-2.865,-2.8706,-2.8881,-2.9035,-2.912,-2.9842,-3.0479,0.0,0.0,0.0,0.0,0.0,0.0,0.0,0.0,0.0,0.0,-3.5553,0.0,0.0,-3.839,-3.8692,-3.8661,-3.8303,-3.8001,-3.7864,0.0,-3.7163,-3.6968,-3.5037,-3.4056,-3.4019,-3.2273,-3.1385,-3.1257,-3.1385,-3.1385,-3.1257,-3.1385,-3.15,-3.156,-3.1727,-3.1854,-3.2067,-3.287,-3.3765,-3.4677,-3.543,-3.6243,-3.7007,0.0,0.0,0.0,0.0,0.0,0.0,0.0,-3.3954,-3.3635,-3.371,-3.3467,-3.3298,-3.3298,-3.3298,-3.3132,-3.2676,-3.235,-3.1962,-3.1515,-3.1202,-3.1034,-3.1088,-3.1096,-3.1268,-3.1583,-3.1641,-3.1773,0.0,0.0,0.0,0.0,0.0,0.0,0.0,0.0,-2.8026,-2.7615,-2.734,-2.7135,-2.7023,-2.6792,-2.664,-2.6537,-2.6434,-2.6346,-2.631,-2.631,-2.6363,-2.6382,-2.6382,-2.659,-2.6858,-2.6891,-2.7069,-2.7293,-2.7355,-2.7463,-2.7615,-2.7716,-2.7789,-2.7893,-2.8039,-2.8168,-2.8246,-2.8318,-2.8393,-2.851,-2.8625,-2.8761,-2.8881,-2.8929,-2.9285,-2.9734,0.0,0.0,0.0,0.0,0.0,0.0,0.0,0.0,0.0,0.0,0.0,0.0,0.0,0.0,-3.8265,-3.8689,-3.8387,-3.8154,-3.8018,0.0,-3.7391,-3.7182,-3.5365,-3.433,-3.4079,-3.2466,-3.1595,-3.1406,-3.1479,-3.1462,-3.1426,-3.1595,-3.1707,-3.1727,-3.1911,-3.2001,-3.2054,-3.2457,-3.3104,-3.3945,-3.4789,-3.5598,-3.6355,-3.7992,0.0,-3.6814,0.0,-3.5123,-3.4265,-3.392,-3.3305,-3.2884,-3.2884,-3.2914,-3.2977,-3.3024,-3.3039,-3.2734,-3.1975,-3.1706,-3.125,-3.0498,-3.0242,-3.0129,-3.0166,-3.018,0.0,-3.0523,-3.0554,-3.0663,-3.0884,-3.0626,0.0,0.0,0.0,0.0,0.0,-2.8024,-2.7615,-2.7463,-2.7246,-2.7038,-2.6892,-2.6708,-2.6555,-2.6416,-2.6312,-2.624,-2.6202,-2.6202,-2.6222,-2.6277,-2.6277,-2.64,-2.659,-2.6674,-2.6858,-2.7053,-2.7119,-2.7261,-2.7432,-2.7522,-2.7597,-2.7672,-2.7882,-2.7982,-2.8067,-2.8126,-2.825,-2.8367,-2.8536,-2.8662,-2.8761,-2.8834,-2.8917,-2.9189,-2.9809,0.0,0.0,0.0,0.0,0.0,0.0,-3.4173,-3.4185,-3.4197,0.0,0.0,0.0,0.0,0.0,-3.8015,-3.8024,0.0,0.0,0.0,0.0,0.0,-3.5468,-3.4435,-3.3908,-3.2497,-3.1746,-3.1614,-3.1614,-3.1651,-3.1688,-3.1837,-3.1892,-3.191,-3.2055,-3.2126,-3.2126,-3.2214,-3.2739,-3.3527,-3.4389,-3.5162,-3.5915,-3.6988,-3.6809,-3.6255,-3.4526,-3.416,-3.3812,-3.2948,-3.269,-3.2588,-3.2588,-3.2606,-3.2688,-3.2884,-3.29,-3.2579,-3.1775,-3.0975,-3.0222,-2.9483,-2.8665,-2.8237,0.0,0.0,-2.8612,-2.9412,-2.9486,-2.988,-3.0591,0.0,0.0,-2.9301,0.0,-2.7929,-2.7719,-2.7647,-2.7448,-2.7197,-2.7055,-2.6892,-2.6691,-2.6555,-2.6416,-2.6295,-2.6239,-2.6202,-2.6202,-2.6202,-2.6202,-2.6202,-2.6202,-2.6258,-2.6348,-2.6607,-2.6708,-2.6758,-2.6925,-2.7104,-2.7197,-2.7197,-2.7355,-2.7524,-2.7672,-2.7698,-2.776,-2.7954,-2.8112,-2.8264,-2.8471,-2.8562,-2.8625,-2.8682,-2.8803,-2.8929,-2.8994,0.0,0.0,0.0,0.0,0.0,0.0,-3.4099,-3.4124,-3.4197,0.0,0.0,0.0,0.0,0.0,0.0,0.0,0.0,-3.7108,-3.7501,0.0,-3.6417,-3.5259,-3.4284,-3.3476,-3.2403,-3.1894,-3.1894,-3.1894,-3.1966,-3.209,-3.2108,-3.2108,-3.209,-3.2161,-3.2197,-3.2214,-3.2354,-3.2845,-3.3599,-3.4407,-3.5162,-3.5915,-3.5945,-3.5268,-3.463,-3.4015,-3.3449,-3.2973,-3.2626,-3.2524,-3.2439,-3.2336,-3.2301,-3.2056,-3.1581,-3.1778,-3.1622,0.0,-3.0009,-2.9228,0.0,-2.8209,-2.8067,-2.8067,-2.8067,-2.8191,-2.844,-2.8472,-2.8593,-2.8831,0.0,0.0,0.0,-2.7927,-2.7719,-2.7554,-2.7402,-2.7276,-2.7181,-2.6924,-2.6758,-2.6674,-2.6452,-2.6347,-2.6295,-2.6239,-2.615,-2.6079,-2.6168,-2.615,-2.6079,-2.6168,-2.6203,-2.6258,-2.6383,-2.6539,-2.6708,-2.6775,-2.6925,-2.7071,-2.7119,-2.6835,-2.6578,-2.6663,-2.6365,-2.6097,-2.6194,-2.6836,-2.7562,-2.8166,-2.8419,-2.8562,-2.8625,-2.8694,-2.8798,-2.8846,-2.9606,0.0,0.0,0.0,0.0,-3.3931,-3.4036,-3.4061,0.0,-3.4086,0.0,0.0,0.0,0.0,0.0,0.0,0.0,0.0,-3.6251,0.0,-3.5718,-3.464,-3.3882,-3.3494,-3.2546,-3.209,-3.2037,-3.2037,-3.2055,-3.2108,-3.2232,-3.2301,-3.2301,-3.2439,-3.2472,-3.2472,-3.2523,-3.2681,-3.3035,-3.4305,-3.492,-3.5308,-3.4903,-3.4231,-3.372,-3.3334,-3.2824,-3.2439,-3.2353,-3.2319,-3.2232,-3.2091,-3.2037,-3.1828,-3.1306,-3.0939,0.0,-2.9763,-2.9237,-2.8622,-2.7862,-2.781,-2.781,-2.781,-2.781,-2.781,-2.781,-2.7839,0.0,-2.781,-2.781,-2.7751,-2.7612,-2.7612,-2.7539,-2.7371,-2.7261,-2.7166,-2.707,-2.6808,-2.6674,-2.6606,-2.6383,-2.6278,-2.6241,-2.6151,-2.6063,-2.5959,-2.5748,-2.5631,-2.5512,-2.5352,-2.5322,-2.534,-2.5393,-2.5547,-2.5782,-2.6151,-2.6352,-2.6431,-2.622,-2.5887,-2.5635,-2.569,-2.5444,-2.5293,-2.5743,-2.636,-2.7108,-2.8021,-2.8304,-2.8419,-2.8497,-2.86,-2.8675,-2.8712,-2.9466,-3.0356,-3.1217,0.0,0.0,0.0,0.0,0.0,0.0,-3.4023,-3.4023,0.0,0.0,0.0,0.0,0.0,0.0,-3.5556,-3.5523,0.0,-3.4994,-3.4193,-3.3598,-3.3142,-3.2512,-3.2179,-3.2144,-3.2144,-3.2179,-3.2249,-3.2371,-3.2439,-3.2473,-3.2556,-3.2606,-3.2606,-3.2606,-3.2783,-3.319,-3.4376,-3.4993,-3.5415,-3.3845,-3.3617,-3.3318,0.0,-3.2267,0.0,-3.209,-3.2073,-3.2019,-3.1893,-3.1858,-3.184,-3.1731,-3.042,-2.9316,-2.8701,0.0,0.0,0.0,-2.7481,-2.7481,-2.7481,-2.7481,-2.7481,-2.7481,-2.7542,-2.7542,-2.7481,-2.7481,-2.7481,-2.7481,-2.7481,-2.7371,-2.7198,-2.7165,-2.7054,-2.6893,-2.6725,-2.6606,-2.6468,-2.6347,-2.6241,-2.6168,-2.6045,-2.5959,-2.5826,-2.5081,-2.4767,-2.462,-2.4014,-2.3835,-2.3885,-2.3885,-2.3968,-2.4247,-2.5144,-2.546,-2.5372,-2.4754,-2.4626,-2.4731,-2.4785,-2.4821,-2.5138,-2.624,-2.6504,-2.6817,-2.7935,-2.8168,-2.8223,-2.8371,-2.8484,-2.8574,-2.8587,-2.9421,-3.0329,-3.1081,0.0,0.0,0.0,0.0,0.0,0.0,-3.3972,-3.3972,0.0,0.0,0.0,0.0,0.0,-3.4761,-3.4707,-3.511,-3.497,-3.4233,-3.3889,-3.3348,-3.2589,-3.2336,-3.2214,-3.2214,-3.2214,-3.2318,-3.2507,-3.2506,-3.2557,-3.2622,-3.2622,-3.2622,-3.2622,-3.2675,-3.317,-3.3915,-3.4623,-3.5363,-3.6102,0.0,0.0,-3.2424,-3.2214,-3.2073,-3.1948,-3.1874,-3.1783,-3.169,-3.1614,-3.1595,-3.1353,-3.0787,-3.041,-2.964,-2.8271,-2.7802,-2.7467,-2.7277,-2.726,-2.726,-2.726,-2.726,-2.726,-2.726,-2.7293,-2.7293,-2.726,-2.726,-2.7228,-2.7181,-2.7181,-2.7135,-2.7039,-2.6891,-2.6791,-2.6725,-2.6504,-2.6383,-2.6347,-2.6258,-2.6151,-2.6045,-2.6026,-2.5591,-2.4992,-2.4848,-2.4421,-2.3879,-2.3817,-2.3801,-2.3818,-2.3818,-2.3868,-2.4001,-2.433,-2.451,-2.4572,-2.4403,-2.4056,-2.3738,-2.3735,-2.3497,-2.3619,-2.5048,-2.5502,-2.6027,-2.7507,-2.7954,-2.8085,-2.8223,-2.8331,-2.8393,-2.8432,-2.975,-3.0821,-3.1021,-3.2365,0.0,0.0,-3.3657,-3.3698,-3.3766,-3.3726,-3.3712,0.0,0.0,0.0,0.0,-3.3691,-3.3756,-3.3742,-3.3695,-3.3555,-3.3313,-3.3121,-3.2868,-3.2523,-3.2422,-3.2354,-3.2354,-3.2405,-3.2439,-3.2524,-3.2658,-3.274,-3.2756,-3.2804,-3.2836,-3.2889,-3.3496,-3.3853,-3.4174,-3.5367,-3.5914,-3.616,-3.216,-3.2019,-3.1947,-3.1893,-3.1801,-3.1709,-3.167,-3.1559,-3.1428,-3.1366,-3.1308,-3.1097,-3.0668,-3.0313,-2.9734,-2.8852,-2.8032,-2.7398,-2.6989,-2.6972,-2.6972,-2.6972,-2.6972,-2.6989,-2.7071,-2.7071,-2.7087,-2.712,-2.712,-2.7071,-2.7006,-2.7006,-2.6925,-2.6809,-2.6708,-2.664,-2.6589,-2.6347,-2.6241,-2.624,-2.6115,-2.6025,-2.5905,-2.5557,-2.5124,-2.4611,-2.3943,-2.342,-2.3012,-2.2753,-2.2671,-2.2704,-2.2704,-2.2768,-2.2848,-2.2944,-2.3301,-2.3641,-2.3336,-2.3011,-2.2782,-2.2871,-2.2711,-2.2949,-2.4569,-2.5057,-2.5631,-2.7267,-2.7721,-2.7853,-2.7996,-2.8095,-2.8178,-2.8246,-2.9417,-3.0305,-3.0305,-3.151,0.0,-3.2369,-3.2397,-3.2438,-3.2506,-3.2452,-3.2438,-3.2506,-3.2756,0.0,-3.2864,-3.312,-3.3289,-3.3352,-3.3168,-3.3042,-3.2995,-3.2804,-3.264,-3.2507,-3.244,-3.2616,-3.3002,-3.3019,-3.3282,-3.3686,-3.3805,-3.3873,-3.3888,-3.3938,-3.3937,-3.399,-3.4436,-3.4829,-3.5223,-3.5864,-3.634,-3.6656,-3.1857,-3.1801,-3.1726,-3.1615,-3.1519,-3.146,-3.146,-3.1329,-3.1215,-3.1171,-3.1072,-3.0955,-3.0912,-3.0285,-2.9811,-2.9674,-2.878,-2.7825,-2.6877,-2.6826,-2.6793,-2.6674,-2.6674,-2.6725,-2.6843,-2.6843,-2.6876,-2.6909,-2.6909,-2.6909,-2.6843,-2.6843,-2.6742,-2.6555,-2.6537,-2.6502,-2.6415,-2.6239,-2.615,-2.6132,-2.597,-2.5832,-2.5633,-2.4956,-2.4562,-2.4168,-2.2864,-2.2329,-2.2118,-2.1488,-2.1324,-2.1371,-2.1371,-2.1464,-2.1557,-2.1557,-2.2153,-2.2668,-2.2109,-2.1969,-2.2027,-2.2206,-2.235,-2.2863,-2.446,-2.4972,-2.5555,-2.7109,-2.7481,-2.7569,-2.7716,-2.7853,-2.794,-2.8042,-2.8838,-2.9454,-2.9472,0.0,-3.0842,-3.0842,-3.0912,-3.098,-3.1039,-3.0994,-3.0994,-3.1052,-3.1689,-3.2039,-3.2043,-3.2688,-3.3088,-3.3201,-3.3075,-3.3013,-3.2997,-3.2737,-3.2589,-3.2524,-3.258,-3.2984,-3.3706,-3.3829,-3.434,-3.5101,-3.5118,-3.5135,-3.5186,-3.5186,-3.5186,-3.5204,-3.5329,-3.581,-3.6399,-3.6307,-3.6711,-3.7239,-3.1557,-3.1538,-3.1536,-3.1517,-3.1366,-3.1249,-3.1249,-3.1092,-3.0972,-3.0952,-3.0932,-3.0912,-3.0892,-3.0791,-3.0376,-2.9526,-2.9281,-2.866,-2.7456,-2.7374,-2.7106,-2.6554,-2.6537,-2.6537,-2.6554,-2.6554,-2.6571,-2.6571,-2.6571,-2.6571,-2.6554,-2.6554,-2.6486,-2.633,-2.6292,-2.6187,-2.6081,-2.5972,-2.5952,-2.5952,-2.5899,-2.5484,-2.4857,-2.4759,-2.3891,-2.2735,-2.2491,-2.1956,-2.1376,-2.1247,-2.1231,-2.1215,-2.1215,-2.1309,-2.1417,-2.1417,-2.1608,-2.1812,-2.1756,-2.1825,-2.1926,-2.2013,-2.2572,-2.3306,-2.4259,-2.5061,-2.5868,-2.6868,-2.7136,-2.7261,-2.7494,-2.7572,-2.7647,-2.7821,-2.8588,-2.9204,-2.9315,0.0,-3.065,-3.065,-3.0708,-3.0751,-3.0751,-3.079,-3.085,-3.085,-3.1466,-3.1826,-3.1768,-3.244,-3.2787,-3.2705,-3.29,-3.2963,-3.2916,-3.2821,-3.2724,-3.2589,-3.3212,-3.3582,-3.3723,-3.4465,-3.4925,-3.5101,-3.5153,-3.5204,-3.5186,-3.5186,-3.5186,-3.5258,-3.5953,-3.6292,-3.647,-3.6946,-3.719,-3.7239,-3.1406,-3.1349,-3.1308,-3.1249,-3.1131,-3.1032,-3.1032,-3.0912,-3.077,-3.0692,-3.0651,-3.0589,-3.0526,-3.0526,-3.0332,-2.9881,-2.9827,-2.9407,-2.8431,-2.7621,-2.7044,-2.673,-2.6367,-2.6187,-2.624,-2.6311,-2.6346,-2.6346,-2.6346,-2.6311,-2.624,-2.624,-2.617,-2.6081,-2.6061,-2.6007,-2.5936,-2.5828,-2.5791,-2.5791,-2.5749,-2.5273,-2.4538,-2.4095,-2.3283,-2.2295,-2.1859,-2.1456,-2.1151,-2.1151,-2.1151,-2.1151,-2.1151,-2.1183,-2.123,-2.123,-2.1403,-2.1604,-2.1634,-2.1694,-2.1852,-2.2308,-2.2702,-2.3298,-2.4544,-2.5161,-2.5729,-2.6589,-2.6842,-2.6957,-2.7184,-2.7215,-2.731,-2.7539,-2.7957,0.0,0.0,-2.8756,-2.9042,-2.9089,-2.9118,-2.9176,-2.9298,-2.9294,-2.9308,-2.9336,-2.9979,-3.051,-3.0924,-3.1693,-3.2248,-3.2588,-3.2721,-3.277,-3.2737,-3.2673,-3.2625,-3.2557,-3.3266,-3.3847,-3.4323,-3.519,-3.5864,-3.6345,-3.6453,-3.6488,-3.6488,-3.6488,-3.6488,-3.6524,-3.6899,-3.6987,-3.6968,-3.7211,-3.722,-3.7105,-3.1235,-3.1173,-3.1092,-3.0995,-3.0912,-3.0851,-3.0794,-3.0708,-3.0589,-3.0443,-3.0396,-3.0295,-3.021,-3.0189,-3.0189,-3.0162,-3.0146,-2.9896,-2.9277,-2.8021,-2.7176,-2.691,-2.6258,-2.5917,-2.599,-2.6063,-2.6082,-2.6082,-2.6064,-2.6026,-2.5901,-2.5901,-2.5846,-2.5789,-2.5789,-2.5787,-2.5752,-2.5642,-2.5607,-2.5605,-2.5562,-2.4991,-2.4137,-2.35,-2.2759,-2.1938,-2.1311,-2.1087,-2.1054,-2.1054,-2.1054,-2.1054,-2.1054,-2.107,-2.1103,-2.1103,-2.1278,-2.1497,-2.1542,-2.1704,-2.1981,-2.2602,-2.3012,-2.3605,-2.4829,-2.5295,-2.5647,-2.6317,-2.6538,-2.6657,-2.6825,-2.6892,-2.6991,-2.7263,0.0,0.0,0.0,-2.7585,-2.7642,-2.7701,-2.773,-2.7821,-2.7968,-2.7954,-2.7954,-2.7996,-2.8809,-2.9574,-3.019,-3.1145,-3.194,-3.2521,-3.2589,-3.2606,-3.2606,-3.2557,-3.2612,-3.2789,-3.3477,-3.4251,-3.5116,-3.5967,-3.6713,-3.7373,-3.7503,-3.7558,-3.7558,-3.7594,-3.7595,-3.7613,-3.7576,-3.7485,-3.7392,-3.7278,-3.7143,-3.6968,-3.0935,-3.0932,-3.0912,-3.0912,-3.081,-3.0671,-3.0547,-3.0464,-3.0359,-3.0231,-3.021,-3.021,-3.0189,-3.0189,-3.0146,-3.0017,-3.0017,-2.9913,-2.9683,-2.8914,-2.7992,-2.6959,-2.6258,-2.5897,-2.5915,-2.5809,-2.5738,-2.5738,-2.5663,-2.5642,-2.5624,-2.5624,-2.5567,-2.5435,-2.5435,-2.5394,-2.5352,-2.5317,-2.5333,-2.5333,-2.5333,-2.4516,-2.3282,-2.3234,-2.2368,-2.1183,-2.1119,-2.1006,-2.091,-2.091,-2.091,-2.091,-2.091,-2.1006,-2.1103,-2.1103,-2.1135,-2.1183,-2.1356,-2.1969,-2.2539,-2.2605,-2.3637,-2.4686,-2.4802,-2.5415,-2.5962,-2.6028,-2.6207,-2.6349,-2.6435,-2.6555,-2.6708,-2.6975,0.0,0.0,-2.7197,-2.734,-2.7434,-2.7434,-2.7542,-2.7632,-2.7632,-2.7689,-2.773,-2.773,-2.9041,-2.9902,-3.0036,-3.1374,-3.2231,-3.2405,-3.254,-3.2606,-3.2606,-3.2606,-3.2945,-3.3618,-3.434,-3.5133,-3.5926,-3.6685,-3.7113,-3.7316,-3.7373,-3.7411,-3.7411,-3.754,-3.7595,-3.7577,-3.7466,-3.7411,-3.7373,-3.7106,-3.7009,-3.6948,-3.0912,-3.0831,-3.079,-3.079,-3.063,-3.0501,-3.0443,-3.0338,-3.0248,-3.0081,-3.0098,-3.0076,-3.0011,-2.9946,-2.9858,-2.9814,-2.9748,-2.9675,-2.9586,-2.8896,-2.7896,-2.6566,-2.5895,-2.5543,-2.5543,-2.547,-2.5454,-2.5454,-2.5432,-2.5413,-2.5413,-2.5413,-2.5394,-2.5336,-2.5336,-2.5317,-2.5294,-2.5294,-2.5294,-2.5294,-2.5294,-2.4465,-2.32,-2.3113,-2.2201,-2.0974,-2.0925,-2.0859,-2.0777,-2.0777,-2.0728,-2.0646,-2.0646,-2.0744,-2.0859,-2.0957,-2.0974,-2.1102,-2.1681,-2.2069,-2.2505,-2.3358,-2.4005,-2.4555,-2.5065,-2.541,-2.5661,-2.5775,-2.5866,-2.5975,-2.6119,-2.6259,-2.6399,-2.659,0.0,-2.6809,-2.699,-2.7056,-2.712,-2.7198,-2.7261,-2.7308,-2.7355,-2.7448,-2.7509,-2.7509,-2.85,-2.932,-2.984,-3.1307,-3.2144,-3.2214,-3.2266,-3.2353,-3.2473,-3.2914,-3.3284,-3.3582,-3.4831,-3.5568,-3.5884,-3.6717,-3.7127,-3.7166,-3.7279,-3.7334,-3.7353,-3.7391,-3.741,-3.741,-3.7353,-3.726,-3.7145,-3.7046,-3.6811,-3.653,-3.0773,-3.0692,-3.063,-3.0609,-3.0485,-3.0359,-3.029,-3.0205,-3.0098,-2.9973,-2.9946,-2.988,-2.9836,-2.972,-2.9653,-2.9653,-2.9541,-2.9473,-2.9434,-2.8535,-2.7498,-2.6358,-2.5659,-2.5294,-2.5294,-2.5259,-2.524,-2.524,-2.5162,-2.5139,-2.5139,-2.5103,-2.5084,-2.5084,-2.5084,-2.5084,-2.5084,-2.5084,-2.5084,-2.5084,-2.5084,-2.4385,-2.329,-2.2979,-2.2137,-2.1094,-2.0807,-2.0678,-2.0644,-2.0644,-2.0594,-2.051,-2.051,-2.0561,-2.0661,-2.0745,-2.0763,-2.0985,-2.2003,-2.2256,-2.2577,-2.3864,-2.438,-2.4686,-2.5243,-2.5375,-2.5413,-2.5549,-2.5589,-2.5661,-2.5844,-2.597,-2.6081,-2.626,-2.6382,-2.6537,-2.6691,-2.6759,-2.6842,-2.6924,-2.6989,-2.7071,-2.7103,-2.7215,-2.7366,-2.7591,-2.838,-2.9329,-3.0403,-3.1498,-3.209,-3.209,-3.209,-3.2179,-3.2301,-3.309,-3.3599,-3.3898,-3.5159,-3.5894,-3.6139,-3.6744,-3.7011,-3.7011,-3.7164,-3.7239,-3.7239,-3.7239,-3.7239,-3.7222,-3.7163,-3.7066,-3.6911,-3.6811,-3.6588,-3.628,-3.0526,-3.0506,-3.0485,-3.0417,-3.0396,-3.0312,-3.0038,-2.9995,-2.9973,-2.9902,-2.9786,-2.9697,-2.9697,-2.9586,-2.9496,-2.9496,-2.9496,-2.9434,-2.9289,-2.7908,-2.6867,-2.6306,-2.5643,-2.5294,-2.5294,-2.5166,-2.5107,-2.5107,-2.4886,-2.4802,-2.4802,-2.4666,-2.4609,-2.4609,-2.4609,-2.4609,-2.4609,-2.4609,-2.4609,-2.4609,-2.4609,-2.4204,-2.3538,-2.287,-2.2181,-2.1492,-2.076,-2.051,-2.051,-2.051,-2.051,-2.051,-2.051,-2.051,-2.051,-2.051,-2.051,-2.0807,-2.2212,-2.2605,-2.287,-2.3936,-2.4748,-2.5294,-2.5294,-2.5294,-2.5294,-2.5294,-2.5355,-2.5451,-2.5578,-2.5659,-2.5756,-2.5956,-2.6115,-2.6221,-2.6295,-2.6469,-2.6589,-2.6589,-2.6759,-2.6893,-2.6893,-2.6959,-2.7315,-2.8032,-2.8922,-3.0144,-3.1825,-3.202,-3.2108,-3.2108,-3.2108,-3.2108,-3.2108,-3.2965,-3.3843,-3.4705,-3.5364,-3.6075,-3.6809,-3.6809,-3.6809,-3.6809,-3.7011,-3.7108,-3.7108,-3.7108,-3.7108,-3.7089,-3.6871,-3.6809,-3.6768,-3.6426,-3.6301,-3.6237,-3.0506,-3.0464,-3.0422,-3.0401,-3.0231,-3.0081,-3.0017,-2.9968,-2.988,-2.9786,-2.9704,-2.9675,-2.9563,-2.9434,-2.935,-2.935,-2.9275,-2.8962,-2.8365,-2.7485,-2.6639,-2.59,-2.5285,-2.4942,-2.4942,-2.4811,-2.4751,-2.4751,-2.469,-2.4666,-2.4666,-2.4609,-2.4609,-2.4609,-2.4609,-2.4609,-2.4609,-2.4609,-2.4609,-2.4609,-2.4609,-2.4204,-2.3538,-2.287,-2.2181,-2.1492,-2.076,-2.046,-2.0424,-2.0424,-2.0407,-2.0373,-2.0407,-2.0424,-2.0441,-2.0477,-2.051,-2.0807,-2.2212,-2.2605,-2.2905,-2.4175,-2.4649,-2.4811,-2.4811,-2.4886,-2.4982,-2.5064,-2.5146,-2.5224,-2.5371,-2.5524,-2.5656,-2.5712,-2.5879,-2.6025,-2.6082,-2.6222,-2.6345,-2.6382,-2.652,-2.6623,-2.6623,-2.7198,-2.7657,-2.7877,-2.926,-3.0547,-3.1562,-3.1651,-3.167,-3.167,-3.167,-3.2003,-3.2653,-3.3619,-3.4237,-3.45,-3.5787,-3.6516,-3.6725,-3.6725,-3.6725,-3.6725,-3.6788,-3.6809,-3.6809,-3.6809,-3.6809,-3.6809,-3.6745,-3.6606,-3.6426,-3.6343,-3.6088,-3.5761,-3.0464,-3.0422,-3.0375,-3.0253,-3.0103,-2.9995,-2.9951,-2.988,-2.9786,-2.972,-2.9592,-2.9502,-2.9434,-2.9305,-2.9213,-2.9213,-2.8869,-2.8282,-2.7478,-2.6804,-2.6072,-2.5306,-2.49,-2.4701,-2.4726,-2.463,-2.4609,-2.4609,-2.4569,-2.4564,-2.4564,-2.4508,-2.4487,-2.4487,-2.4446,-2.4441,-2.4441,-2.44,-2.4364,-2.4364,-2.4364,-2.4117,-2.3654,-2.2717,-2.2096,-2.1633,-2.0643,-2.027,-2.025,-2.025,-2.02,-2.0183,-2.0233,-2.0252,-2.0287,-2.034,-2.0375,-2.0721,-2.2102,-2.2474,-2.28,-2.4146,-2.4549,-2.4609,-2.4609,-2.4666,-2.4746,-2.4826,-2.4926,-2.5025,-2.5158,-2.5298,-2.5429,-2.5467,-2.5637,-2.5805,-2.5842,-2.5989,-2.6097,-2.6152,-2.6489,-2.6744,-2.6814,-2.7575,-2.822,-2.8598,-2.9929,-3.0925,-3.1389,-3.1462,-3.1498,-3.1498,-3.1498,-3.1897,-3.2769,-3.3662,-3.4354,-3.484,-3.6052,-3.6623,-3.6623,-3.6623,-3.6602,-3.6544,-3.6602,-3.6602,-3.6544,-3.652,-3.6499,-3.6499,-3.644,-3.6318,-3.6174,-3.6067,-3.5827,-3.5577,-3.0417,-3.0396,-3.029,-3.0038,-2.9995,-2.9968,-2.988,-2.9786,-2.9697,-2.9675,-2.9441,-2.9305,-2.9266,-2.9167,-2.9075,-2.9075,-2.8338,-2.7541,-2.6736,-2.6049,-2.5347,-2.46,-2.4503,-2.4518,-2.4549,-2.4569,-2.4569,-2.4569,-2.4518,-2.4477,-2.4477,-2.4338,-2.4261,-2.4261,-2.4208,-2.4166,-2.4166,-2.4046,-2.4003,-2.4003,-2.4003,-2.4003,-2.3867,-2.259,-2.2039,-2.1827,-2.0552,-2.0051,-2.0005,-2.0005,-2.0005,-2.0005,-2.0005,-2.0043,-2.0098,-2.0098,-2.0168,-2.0562,-2.1898,-2.2267,-2.259,-2.3938,-2.4405,-2.4549,-2.4569,-2.4569,-2.4589,-2.4589,-2.4686,-2.4822,-2.4946,-2.5029,-2.5127,-2.5259,-2.5448,-2.5578,-2.5578,-2.5731,-2.5877,-2.5961,-2.6625,-2.7147,-2.7344,-2.8101,-2.8968,-2.99,-3.0723,-3.1193,-3.1257,-3.1385,-3.146,-3.146,-3.146,-3.1852,-3.2653,-3.3321,-3.4263,-3.5459,-3.6121,-3.6461,-3.6461,-3.6461,-3.6381,-3.628,-3.6402,-3.6381,-3.6259,-3.6187,-3.6161,-3.6122,-3.5997,-3.5954,-3.591,-3.5667,-3.5554,-3.5447,-3.0401,-3.0231,-3.006,-3.0017,-2.9968,-2.988,-2.9764,-2.972,-2.9614,-2.9418,-2.935,-2.9259,-2.9144,-2.9013,-2.8943,-2.8943,-2.8223,-2.7406,-2.661,-2.5911,-2.5185,-2.4395,-2.4343,-2.4317,-2.4291,-2.4338,-2.4364,-2.4364,-2.4291,-2.4286,-2.4265,-2.413,-2.4067,-2.4067,-2.4046,-2.4024,-2.4024,-2.4003,-2.4003,-2.4003,-2.4003,-2.4003,-2.3912,-2.3087,-2.2449,-2.1888,-2.1068,-2.0446,-2.0005,-2.0005,-2.0005,-2.0005,-2.0005,-2.0023,-2.0008,-2.0008,-2.0025,-2.0365,-2.1706,-2.2071,-2.2391,-2.3732,-2.4109,-2.4156,-2.4323,-2.4441,-2.4518,-2.4518,-2.4584,-2.4686,-2.4822,-2.4946,-2.5064,-2.5127,-2.5259,-2.5371,-2.5371,-2.5451,-2.574,-2.6367,-2.6694,-2.712,-2.7791,-2.8675,-2.9563,-3.0453,-3.0791,-3.0972,-3.0975,-3.1012,-3.1032,-3.1032,-3.1032,-3.1675,-3.3052,-3.333,-3.3976,-3.5029,-3.5766,-3.6105,-3.6105,-3.6105,-3.6084,-3.6062,-3.6105,-3.6019,-3.5905,-3.5883,-3.5839,-3.5734,-3.5711,-3.5605,-3.5515,-3.5412,-3.5228,-3.4894,-3.021,-3.0098,-2.9995,-2.9968,-2.9858,-2.9786,-2.972,-2.9592,-2.9464,-2.9328,-2.9236,-2.9144,-2.9013,-2.8943,-2.8732,-2.8303,-2.7564,-2.6789,-2.5982,-2.5302,-2.4734,-2.4271,-2.4234,-2.4208,-2.4103,-2.413,-2.4172,-2.4172,-2.4109,-2.4103,-2.4103,-2.4024,-2.4003,-2.4003,-2.394,-2.3903,-2.3903,-2.3839,-2.3818,-2.3818,-2.3818,-2.3818,-2.3721,-2.3032,-2.2545,-2.2134,-2.1415,-2.0737,-2.0142,-1.9809,-1.9756,-1.981,-1.981,-1.9848,-1.9902,-1.9902,-1.9937,-2.0294,-2.163,-2.1994,-2.2313,-2.3669,-2.4003,-2.4024,-2.4114,-2.4271,-2.4354,-2.4354,-2.4462,-2.4564,-2.4641,-2.4746,-2.4811,-2.4851,-2.5025,-2.5158,-2.5158,-2.5259,-2.5628,-2.6358,-2.6824,-2.7559,-2.8742,-2.9428,-2.9968,-3.0431,-3.0584,-3.0667,-3.0667,-3.0692,-3.0712,-3.0712,-3.0773,-3.1533,-3.3031,-3.3194,-3.3878,-3.5086,-3.5718,-3.5997,-3.5997,-3.5997,-3.5932,-3.5822,-3.5822,-3.5711,-3.5549,-3.5549,-3.5481,-3.535,-3.535,-3.5281,-3.5165,-3.5041,-3.4613,-3.3883,-3.0017,-2.9995,-2.9968,-2.9896,-2.9786,-2.9697,-2.9653,-2.9441,-2.9305,-2.9282,-2.9144,-2.9013,-2.8904,-2.8858,-2.8561,-2.7806,-2.6977,-2.6198,-2.5512,-2.4706,-2.4255,-2.4166,-2.4166,-2.4103,-2.3982,-2.3982,-2.3982,-2.4003,-2.3982,-2.3982,-2.3982,-2.394,-2.394,-2.3919,-2.3797,-2.3732,-2.3711,-2.361,-2.3566,-2.3566,-2.3566,-2.3566,-2.3485,-2.2878,-2.2568,-2.2369,-2.1698,-2.1073,-2.0474,-1.991,-1.9734,-1.9738,-1.9738,-1.9722,-1.9741,-1.9759,-1.9848,-2.0222,-2.1572,-2.1955,-2.2273,-2.3606,-2.394,-2.394,-2.394,-2.4046,-2.4166,-2.4166,-2.4312,-2.4457,-2.4457,-2.4523,-2.4605,-2.4609,-2.4786,-2.4926,-2.4926,-2.5175,-2.5624,-2.6309,-2.72,-2.8249,-2.9609,-2.9957,-3.0103,-3.0103,-3.0231,-3.0295,-3.0295,-3.038,-3.0405,-3.0405,-3.0547,-3.1307,-3.2807,-3.295,-3.3746,-3.5198,-3.5639,-3.5844,-3.5866,-3.5866,-3.5756,-3.5554,-3.5532,-3.5412,-3.5222,-3.5198,-3.5128,-3.4994,-3.4994,-3.4923,-3.4763,-3.4463,-3.3681,-3.2627,-2.9995,-2.9946,-2.9858,-2.9742,-2.972,-2.9614,-2.9396,-2.9328,-2.9259,-2.9144,-2.9013,-2.8904,-2.8904,-2.8748,-2.8542,-2.8321,-2.7126,-2.6311,-2.6091,-2.4912,-2.4166,-2.4024,-2.4024,-2.3961,-2.3839,-2.3839,-2.3882,-2.4003,-2.3882,-2.3839,-2.3818,-2.3717,-2.361,-2.3575,-2.3553,-2.3487,-2.3363,-2.3363,-2.3341,-2.3341,-2.3341,-2.3341,-2.3326,-2.3216,-2.2847,-2.2323,-2.2199,-2.1736,-2.1156,-2.1068,-2.071,-2.0292,-2.0292,-1.9908,-1.9468,-1.9593,-1.9629,-1.9949,-2.1355,-2.1734,-2.2034,-2.3323,-2.3653,-2.3653,-2.3653,-2.3861,-2.4024,-2.4024,-2.4145,-2.425,-2.4317,-2.4421,-2.4523,-2.4589,-2.463,-2.465,-2.465,-2.5238,-2.5942,-2.6718,-2.8151,-2.9166,-2.9509,-2.9697,-2.9786,-2.9786,-2.9826,-2.9875,-2.9875,-3.0,-3.006,-3.006,-3.0189,-3.098,-3.2442,-3.2539,-3.3311,-3.4787,-3.4954,-3.5182,-3.5389,-3.5389,-3.5383,-3.5337,-3.5205,-3.5088,-3.4947,-3.4828,-3.4691,-3.457,-3.457,-3.4497,-3.4284,-3.3306,-3.2334,-3.1346,-2.9946,-2.9858,-2.9764,-2.972,-2.957,-2.9457,-2.9328,-2.9236,-2.9144,-2.9013,-2.8943,-2.8873,-2.8748,-2.8597,-2.8314,-2.7873,-2.6888,-2.6098,-2.5671,-2.4658,-2.4024,-2.3882,-2.3882,-2.3839,-2.3696,-2.3696,-2.3711,-2.3726,-2.3646,-2.3625,-2.3625,-2.3516,-2.3429,-2.3385,-2.3385,-2.3363,-2.3297,-2.3297,-2.3297,-2.3297,-2.3297,-2.3297,-2.3297,-2.3223,-2.3003,-2.2688,-2.2278,-2.195,-2.1622,-2.1257,-2.1006,-2.0846,-2.0846,-2.0681,-2.047,-2.0543,-2.0562,-2.0769,-2.1762,-2.2049,-2.2257,-2.3213,-2.3436,-2.3436,-2.3436,-2.3523,-2.3668,-2.3839,-2.3982,-2.4103,-2.413,-2.4172,-2.4234,-2.4276,-2.4364,-2.4565,-2.4936,-2.5398,-2.6096,-2.7223,-2.8369,-2.9106,-2.9167,-2.9282,-2.9412,-2.948,-2.9493,-2.956,-2.9621,-2.9704,-2.9726,-2.9726,-3.0208,-3.0995,-3.2057,-3.2611,-3.3425,-3.4472,-3.4618,-3.4828,-3.5081,-3.5081,-3.5058,-3.497,-3.4899,-3.4763,-3.4546,-3.4497,-3.4349,-3.4176,-3.4176,-3.3808,-3.3124,-3.1788,-3.094,-3.0293]},{"header":{"parameterUnit":"m.s-1","parameterCategory":1,"la1":30.6,"la2":28.766,"lo1":-90.7593,"lo2":-88.6598,"dy":0.0162,"dx":0.0183,"nx":116,"ny":114,"refTime":"2023-03-04T18:00:00:Z","depth":0,"parameterNumber":3,"parameterNumberName":"V-component_of_WINDS"},"data":[0.0,0.0,0.0,0.0,0.0,0.0,0.0,0.0,0.0,0.0,0.0,0.0,0.0,0.0,0.0,0.0,0.0,0.0,0.0,0.0,0.0,0.0,0.0,0.0,0.0,0.0,0.0,0.0,0.0,0.0,0.0,0.0,0.0,0.0,0.0,0.0,0.0,0.0,0.0,0.0,0.0,0.0,0.0,0.0,0.0,0.0,0.0,0.0,0.0,0.0,0.0,0.0,0.0,0.0,0.0,0.0,0.0,0.0,0.0,0.0,0.0,0.0,0.0,0.0,0.0,0.0,0.0,0.0,0.0,0.0,0.0,0.0,0.0,0.0,0.0,0.0,0.0,0.0,0.0,0.0,0.0,0.0,0.0,0.0,0.0,0.0,0.0,0.0,0.0,0.0,0.0,0.0,0.0,0.0,0.0,0.0,0.0,0.0,0.0,0.0,0.0,0.0,0.0,0.0,0.0,0.0,0.0,0.0,0.0,0.0,0.0,0.0,0.0,0.0,0.0,0.0,0.0,0.0,0.0,0.0,0.0,0.0,0.0,0.0,0.0,0.0,0.0,0.0,0.0,0.0,0.0,0.0,0.0,0.0,0.0,0.0,0.0,0.0,0.0,0.0,0.0,0.0,0.0,0.0,0.0,0.0,0.0,0.0,0.0,0.0,0.0,0.0,0.0,0.0,0.0,0.0,0.0,0.0,0.0,0.0,0.0,0.0,0.0,0.0,0.0,0.0,0.0,0.0,0.0,0.0,0.0,0.0,0.0,0.0,0.0,0.0,0.0,0.0,0.0,0.0,0.0,0.0,0.0,0.0,0.0,0.0,0.0,0.0,0.0,0.0,0.0,0.0,0.0,0.0,0.0,0.0,0.0,0.0,0.0,0.0,0.0,0.0,0.0,0.0,0.0,0.0,0.0,0.0,0.0,0.0,0.0,0.0,0.0,0.0,0.0,0.0,0.0,0.0,0.0,0.0,0.0,0.0,0.0,0.0,0.0,0.0,0.0,0.0,0.0,0.0,0.0,0.0,0.0,0.0,0.0,0.0,0.0,0.0,0.0,0.0,0.0,0.0,0.0,0.0,0.0,0.0,0.0,0.0,0.0,0.0,0.0,0.0,0.0,0.0,0.0,0.0,0.0,0.0,0.0,0.0,0.0,0.0,0.0,0.0,0.0,0.0,0.0,0.0,0.0,0.0,0.0,0.0,0.0,0.0,0.0,0.0,0.0,0.0,0.0,0.0,0.0,0.0,0.0,0.0,0.0,0.0,0.0,0.0,0.0,0.0,0.0,0.0,0.0,0.0,0.0,0.0,0.0,0.0,0.0,0.0,0.0,0.0,0.0,0.0,0.0,0.0,0.0,0.0,0.0,0.0,0.0,0.0,0.0,0.0,0.0,0.0,0.0,0.0,0.0,0.0,0.0,0.0,0.0,0.0,0.0,0.0,0.0,0.0,0.0,0.0,0.0,0.0,0.0,0.0,0.0,0.0,0.0,0.0,0.0,0.0,0.0,0.0,0.0,0.0,0.0,0.0,0.0,0.0,0.0,0.0,0.0,0.0,0.0,0.0,0.0,0.0,0.0,0.0,0.0,0.0,0.0,0.0,0.0,0.0,0.0,0.0,0.0,0.0,0.0,0.0,0.0,0.0,0.0,0.0,0.0,0.0,0.0,0.0,0.0,0.0,0.0,0.0,0.0,0.0,0.0,0.0,0.0,0.0,0.0,0.0,0.0,0.0,0.0,0.0,0.0,0.0,0.0,0.0,0.0,0.0,0.0,0.0,0.0,0.0,0.0,0.0,0.0,0.0,0.0,0.0,0.0,0.0,0.0,0.0,0.0,0.0,0.0,0.0,0.0,0.0,0.0,0.0,0.0,0.0,0.0,0.0,0.0,0.0,0.0,0.0,0.0,0.0,0.0,0.0,0.0,0.0,0.0,0.0,0.0,0.0,0.0,0.0,0.0,0.0,0.0,0.0,0.0,0.0,0.0,0.0,0.0,0.0,0.0,0.0,0.0,0.0,0.0,0.0,0.0,0.0,0.0,0.0,0.0,0.0,0.0,0.0,0.0,0.0,0.0,0.0,0.0,0.0,0.0,0.0,0.0,0.0,0.0,0.0,0.0,0.0,0.0,0.0,0.0,0.0,0.0,0.0,0.0,0.0,0.0,0.0,0.0,0.0,0.0,0.0,0.0,0.0,0.0,0.0,0.0,0.0,0.0,0.0,0.0,0.0,0.0,0.0,0.0,0.0,0.0,0.0,0.0,0.0,0.0,0.0,0.0,0.0,0.0,0.0,0.0,0.0,0.0,0.0,0.0,0.0,0.0,0.0,0.0,0.0,0.0,0.0,0.0,0.0,0.0,0.0,0.0,0.0,0.0,0.0,0.0,0.0,0.0,0.0,0.0,0.0,0.0,0.0,0.0,0.0,0.0,0.0,0.0,0.0,0.0,0.0,0.0,0.0,0.0,0.0,0.0,0.0,0.0,0.0,0.0,0.0,0.0,0.0,0.0,0.0,0.0,0.0,0.0,0.0,0.0,0.0,0.0,0.0,0.0,0.0,0.0,0.0,0.0,0.0,0.0,0.0,0.0,0.0,0.0,0.0,0.0,0.0,0.0,0.0,0.0,0.0,0.0,0.0,0.0,0.0,0.0,0.0,0.0,0.0,0.0,0.0,0.0,0.0,0.0,0.0,0.0,0.0,0.0,0.0,0.0,0.0,0.0,0.0,0.0,0.0,0.0,0.0,0.0,0.0,0.0,0.0,0.0,0.0,0.0,0.0,0.0,0.0,0.0,0.0,0.0,0.0,0.0,0.0,0.0,0.0,0.0,0.0,0.0,0.0,0.0,0.0,0.0,0.0,0.0,0.0,0.0,0.0,0.0,0.0,0.0,0.0,0.0,0.0,0.0,0.0,0.0,0.0,0.0,0.0,0.0,0.0,0.0,0.0,0.0,0.0,0.0,0.0,0.0,0.0,0.0,0.0,0.0,0.0,0.0,0.0,0.0,0.0,0.0,0.0,0.0,0.0,0.0,0.0,0.0,0.0,0.0,0.0,0.0,0.0,0.0,0.0,0.0,0.0,0.0,0.0,0.0,0.0,0.0,0.0,0.0,0.0,0.0,0.0,0.0,0.0,0.0,0.0,0.0,0.0,0.0,0.0,0.0,0.0,0.0,0.0,0.0,0.0,0.0,0.0,0.0,0.0,0.0,0.0,0.0,0.0,0.0,0.0,0.0,0.0,0.0,0.0,0.0,0.0,0.0,0.0,0.0,0.0,0.0,0.0,0.0,0.0,0.0,0.0,0.0,0.0,0.0,0.0,0.0,0.0,0.0,0.0,0.0,0.0,0.0,0.0,0.0,0.0,0.0,0.0,0.0,0.0,0.0,0.0,0.0,0.0,0.0,0.0,0.0,0.0,0.0,0.0,0.0,0.0,0.0,0.0,0.0,0.0,0.0,0.0,0.0,0.0,0.0,0.0,0.0,0.0,0.0,0.0,0.0,0.0,0.0,0.0,0.0,0.0,0.0,0.0,0.0,0.0,0.0,0.0,0.0,0.0,0.0,0.0,0.0,0.0,0.0,0.0,0.0,0.0,0.0,0.0,0.0,0.0,0.0,0.0,0.0,0.0,0.0,0.0,0.0,0.0,0.0,0.0,0.0,0.0,0.0,0.0,0.0,0.0,0.0,0.0,0.0,0.0,0.0,0.0,0.0,0.0,0.0,0.0,0.0,0.0,0.0,0.0,0.0,0.0,0.0,0.0,0.0,0.0,0.0,0.0,0.0,0.0,0.0,0.0,0.0,0.0,0.0,0.0,0.0,0.0,0.0,0.0,0.0,0.0,0.0,0.0,0.0,0.0,0.0,0.0,0.0,0.0,0.0,0.0,0.0,0.0,0.0,0.0,0.0,0.0,0.0,0.0,0.0,0.0,0.0,0.0,0.0,0.0,0.0,0.0,0.0,0.0,0.0,0.0,0.0,0.0,0.0,0.0,0.0,0.0,0.0,0.0,0.0,0.0,0.0,0.0,0.0,0.0,0.0,0.0,0.0,0.0,0.0,0.0,0.0,0.0,0.0,0.0,0.0,0.0,0.0,0.0,0.0,0.0,0.0,0.0,0.0,0.0,0.0,0.0,0.0,0.0,0.0,0.0,0.0,0.0,0.0,0.0,0.0,0.0,0.0,0.0,0.0,0.0,0.0,0.0,0.0,0.0,0.0,0.0,0.0,0.0,0.0,0.0,0.0,0.0,0.0,0.0,0.0,0.0,0.0,0.0,0.0,0.0,0.0,0.0,0.0,0.0,0.0,0.0,0.0,0.0,0.0,0.0,0.0,0.0,0.0,0.0,0.0,0.0,0.0,0.0,0.0,0.0,0.0,0.0,0.0,0.0,0.0,0.0,0.0,0.0,0.0,0.0,0.0,0.0,0.0,0.0,0.0,0.0,0.0,0.0,0.0,0.0,0.0,0.0,0.0,0.0,0.0,0.0,0.0,0.0,0.0,0.0,0.0,0.0,0.0,0.0,0.0,0.0,0.0,0.0,0.0,0.0,0.0,0.0,0.0,0.0,0.0,0.0,0.0,0.0,0.0,0.0,0.0,0.0,0.0,0.0,0.0,0.0,0.0,0.0,0.0,0.0,0.0,0.0,0.0,0.0,0.0,0.0,0.0,0.0,0.0,0.0,0.0,0.0,0.0,0.0,0.0,0.0,0.0,0.0,0.0,0.0,0.0,0.0,0.0,0.0,0.0,0.0,0.0,0.0,0.0,0.0,0.0,0.0,0.0,0.0,0.0,0.0,0.0,0.0,0.0,0.0,0.0,0.0,0.0,0.0,0.0,0.0,0.0,0.0,0.0,0.0,0.0,0.0,0.0,0.0,0.0,0.0,0.0,0.0,0.0,0.0,0.0,0.0,0.0,0.0,0.0,0.0,0.0,0.0,0.0,0.0,0.0,0.0,0.0,0.0,0.0,0.0,0.0,0.0,0.0,0.0,0.0,0.0,0.0,0.0,0.0,0.0,0.0,0.0,0.0,0.0,0.0,0.0,0.0,0.0,0.0,0.0,0.0,0.0,0.0,0.0,0.0,0.0,0.0,0.0,0.0,0.0,0.0,0.0,0.0,0.0,0.0,0.0,0.0,0.0,0.0,0.0,0.0,0.0,0.0,0.0,0.0,0.0,0.0,0.0,0.0,0.0,0.0,0.0,0.0,0.0,0.0,0.0,0.0,0.0,0.0,0.0,0.0,0.0,0.0,0.0,0.0,0.0,0.0,0.0,0.0,0.0,0.0,0.0,0.0,0.0,0.0,0.0,0.0,0.0,0.0,0.0,0.0,0.0,0.0,0.0,0.0,0.0,0.0,0.0,0.0,0.0,0.0,0.0,0.0,0.0,0.0,0.0,0.0,0.0,0.0,0.0,0.0,0.0,0.0,0.0,0.0,0.0,0.0,0.0,0.0,0.0,0.0,0.0,0.0,0.0,0.0,0.0,0.0,0.0,0.0,0.0,0.0,0.0,0.0,0.0,0.0,0.0,0.0,0.0,0.0,0.0,0.0,0.0,0.0,0.0,0.0,0.0,0.0,0.0,0.0,0.0,0.0,0.0,0.0,0.0,0.0,0.0,0.0,0.0,0.0,0.0,0.0,0.0,0.0,0.0,0.0,0.0,0.0,0.0,0.0,0.0,0.0,0.0,0.0,0.0,0.0,0.0,0.0,0.0,0.0,0.0,0.0,0.0,0.0,0.0,0.0,0.0,0.0,0.0,0.0,0.0,0.0,0.0,0.0,0.0,0.0,0.0,0.0,0.0,0.0,0.0,0.0,0.0,0.0,0.0,0.0,0.0,0.0,0.0,0.0,0.0,0.0,0.0,0.0,0.0,0.0,0.0,0.0,0.0,0.0,0.0,0.0,0.0,0.0,0.0,0.0,0.0,0.0,0.0,0.0,0.0,0.0,0.0,0.0,0.0,0.0,0.0,0.0,0.0,0.0,0.0,0.0,0.0,0.0,0.0,0.0,0.0,0.0,0.0,0.0,0.0,0.0,0.0,0.0,0.0,0.0,0.0,0.0,0.0,0.0,0.0,0.0,0.0,0.0,0.0,0.0,0.0,0.8164,0.0,0.0,0.0,0.0,0.0,0.0,0.0,0.0,0.0,0.0,0.0,0.0,0.0,0.0,0.0,0.0,0.0,0.0,0.0,0.0,0.0,0.0,0.0,0.0,0.0,0.0,0.0,0.0,0.0,0.0,0.0,0.0,0.0,0.0,0.0,0.0,0.0,0.0,0.0,0.0,0.0,0.0,0.0,0.0,0.0,0.0,0.0,0.0,0.0,0.0,0.0,0.0,0.0,0.0,0.0,0.0,0.0,0.0,0.0,0.0,0.0,0.0,0.0,0.0,0.0,0.0,0.0,0.0,0.0,0.0,0.0,0.0,0.0,0.0,0.0,0.0,0.0,0.0,0.0,0.0,0.0,0.0,0.0,0.0,0.0,0.0,0.0,0.0,0.0,0.0,0.0,0.0,0.0,0.0,0.0,0.0,0.0,0.0,0.0,0.0,0.0,0.0,0.0,0.0,0.0,0.0,0.0,0.0,0.0,0.0,0.0,0.0,0.0,0.0,0.0,0.0,0.79,0.0,0.0,0.0,0.0,0.0,0.0,0.0,0.0,0.0,0.0,0.0,0.0,0.0,0.0,0.0,0.0,0.0,0.0,0.0,0.0,0.0,0.0,0.0,0.0,0.0,0.0,0.0,0.0,0.0,0.0,0.0,0.0,0.0,0.0,0.0,0.0,0.0,0.0,0.0,0.0,0.0,0.0,0.0,0.0,0.0,0.0,0.0,0.0,0.0,0.0,0.0,0.0,0.0,0.0,0.0,0.0,0.0,0.0,0.0,0.0,0.0,0.0,0.0,0.0,0.0,0.0,0.0,0.0,0.0,0.0,0.0,0.0,0.0,0.0,0.0,0.0,0.0,0.0,0.0,0.0,0.0,0.0,0.0,0.0,0.0,0.0,0.0,0.0,0.0,0.0,0.0,0.0,0.0,0.0,0.0,0.0,0.0,0.0,0.0,0.0,0.0,0.0,0.0,0.0,0.0,0.0,0.0,0.0,1.0727,1.0337,0.9646,0.9432,0.9174,0.8867,0.8204,0.794,0.7856,0.7319,0.0,0.0,0.0,0.0,0.0,0.0,0.0,0.0,0.0,0.0,0.0,0.0,0.0,0.0,0.0,0.0,0.0,0.0,0.0,0.0,0.0,0.0,0.0,0.0,0.0,0.0,0.0,0.0,0.0,0.0,0.0,0.0,0.0,0.0,0.0,0.0,0.0,0.0,0.8699,0.8086,0.7437,0.6719,0.5117,0.0,0.0,0.0,0.0,0.0,0.0,0.0,0.0,0.0,0.0,0.0,0.0,0.0,0.0,0.0,0.0,0.0,0.0,0.0,0.0,0.0,0.0,0.0,0.0,0.0,0.0,0.0,0.0,0.0,0.0,0.0,0.0,0.0,0.0,0.0,0.0,0.0,0.0,0.0,0.0,0.0,0.0,0.0,1.3052,1.3476,0.0,0.0,0.0,0.0,0.0,0.0,0.0,0.0,0.0,0.0,0.0,0.0,0.0,1.2203,1.1957,1.1742,1.1516,1.1241,1.0852,1.0424,0.9951,0.9519,0.9174,0.8867,0.8376,0.0,0.7856,0.7319,0.0,0.0,0.0,0.0,0.0,0.0,0.0,0.0,0.0,0.0,0.0,0.0,0.0,0.0,0.0,0.0,0.0,0.0,0.0,0.0,0.0,0.0,0.0,0.0,0.0,0.0,0.0,0.0,0.0,0.0,0.0,0.0,0.0,0.0,0.0,0.0,1.0388,1.0224,1.0097,0.9564,0.8962,0.8323,0.6953,0.5507,0.4056,0.3052,0.0,0.0,0.0,0.0,0.0,0.0,0.0,0.0,0.0,0.0,0.0,0.0,0.0,0.0,0.0,0.0,0.0,0.0,0.0,0.0,0.0,0.0,0.0,0.0,0.0,0.0,0.0,0.0,0.0,0.0,0.0,0.0,0.0,0.0,0.0,0.0,0.0,0.0,0.0,1.3393,1.3952,1.4338,1.4602,1.4838,0.0,0.0,0.0,0.0,0.0,0.0,0.0,0.0,0.0,1.2966,1.2705,1.2491,1.2369,1.2175,1.1899,1.1537,1.1494,1.1155,1.0571,1.0165,0.9809,0.9401,0.8902,0.8532,0.821,0.7583,0.7102,0.6795,0.0,0.0,0.0,0.0,0.5822,0.5688,0.0,0.0,0.0,0.0,0.0,0.0,0.0,0.0,0.0,0.0,0.0,0.0,0.0,0.0,0.0,0.7721,0.0,0.0,0.0,0.0,0.0,0.0,0.0,0.0,0.0,0.0,0.0,0.0,1.1973,1.1819,1.1626,1.1128,1.0546,0.9831,0.8763,0.7074,0.4921,0.3851,0.2714,0.0,0.0,0.0,0.0,0.0,0.0,0.0,0.0,0.0,0.0,0.0,0.0,0.0,0.0,0.0,0.0,0.0,0.0,0.0,0.0,0.0,0.0,0.0,0.0,0.0,0.0,0.0,0.0,0.0,0.0,0.0,0.0,0.0,0.0,0.0,0.0,0.0,0.0,1.4479,1.4886,1.5323,1.5603,1.5833,0.0,0.0,0.0,0.0,0.0,0.0,1.4498,1.4113,1.3866,1.3743,1.3392,1.317,1.3126,1.2851,1.2511,1.2199,1.215,1.1819,1.1267,1.0806,1.0385,0.9972,0.9512,0.9065,0.8607,0.7852,0.7361,0.6969,0.6836,0.6574,0.6266,0.6216,0.6041,0.5822,0.0,0.0,0.0,0.0,0.0,0.0,0.0,0.0,0.0,0.0,0.0,0.0,0.0,0.0,0.7798,0.8654,0.9252,0.9742,0.0,0.0,0.0,0.0,0.0,0.0,0.0,0.0,0.0,1.3876,1.3687,1.3498,1.3347,1.2838,1.2143,1.1361,1.0337,0.8452,0.5943,0.4547,0.3349,0.2249,0.0,0.0,0.0,0.0,0.0,0.0,0.0,0.0,0.0,0.0,0.0,0.0,0.0,0.0,0.0,0.0,0.0,0.0,0.0,0.0,0.0,0.0,0.0,0.0,0.0,0.0,0.0,0.0,0.0,0.0,0.0,0.0,0.0,0.0,0.0,0.0,0.0,0.0,0.0,1.6587,1.6974,0.0,0.0,0.0,0.0,1.65,1.6183,1.5809,1.5339,1.5311,1.5089,1.4648,1.4603,1.4462,1.4231,1.3761,1.3547,1.3501,1.2546,1.2094,1.2002,1.1032,1.0575,1.0528,1.0069,0.9554,0.9021,0.815,0.7672,0.7401,0.6956,0.6779,0.6735,0.6473,0.6257,0.6127,0.0,0.0,0.0,0.0,0.0,0.0,0.0,0.0,0.0,0.0,0.0,0.0,0.0,0.7683,0.8477,0.918,1.0059,1.0771,1.1227,0.0,0.0,0.0,0.0,0.0,0.0,0.0,1.4982,1.5177,1.508,1.4982,1.4836,1.4355,1.3691,1.286,1.1781,1.016,0.8135,0.5953,0.4209,0.2783,0.1444,0.0101,0.0,0.0,0.0,0.0,0.0,0.0,0.0,0.0,0.0,0.0,0.0,0.0,0.0,0.0,0.0,0.0,0.0,0.0,0.0,0.0,0.0,0.0,0.0,0.0,0.0,0.0,0.0,0.0,0.0,0.0,0.0,0.0,0.0,0.0,0.0,0.0,0.0,1.7495,1.7544,0.0,1.8018,1.7918,1.7755,1.755,1.7104,1.6791,1.6637,1.612,1.5791,1.5613,1.5308,1.5084,1.4988,1.4689,1.4458,1.432,1.379,1.3348,1.2964,1.231,1.1838,1.1456,1.0976,1.0466,0.9961,0.9149,0.8456,0.7867,0.7405,0.7143,0.6962,0.6745,0.6523,0.6299,0.0,0.0,0.0,0.0,0.0,0.0,0.0,0.0,0.0,0.0,0.0,0.605,0.7167,0.8202,0.909,0.9728,1.0747,1.1542,1.2089,0.0,0.0,0.0,0.0,0.0,0.0,1.6262,1.6433,1.6648,1.6648,1.6592,1.6497,1.6042,1.539,1.4584,1.3356,1.1889,1.0166,0.769,0.5417,0.3345,0.1777,0.0269,-0.121,0.0,0.0,0.0,0.0,0.0,0.0,0.0,0.0,0.0,0.0,0.0,0.0,0.0,0.0,0.0,0.0,0.0,0.0,0.0,0.0,0.0,0.0,0.0,0.0,0.0,0.0,0.0,0.0,0.0,0.0,0.0,0.0,0.0,0.0,0.0,1.7851,1.8483,1.8387,1.8437,1.885,1.8643,1.845,1.845,1.8056,1.7789,1.769,1.7206,1.6824,1.6651,1.6335,1.6109,1.5934,1.5722,1.5445,1.5071,1.4731,1.4292,1.3757,1.3286,1.2754,1.2273,1.1785,1.1259,1.0683,1.0153,0.9384,0.8532,0.7942,0.7496,0.7228,0.7102,0.6836,0.652,0.0,0.0,0.0,0.0,0.0,0.0,0.0,0.0,0.0,0.0,0.5345,0.647,0.7423,0.8592,0.9594,1.0269,1.124,1.2104,1.2795,1.3575,0.0,0.0,0.0,0.0,1.7435,1.7655,1.7957,1.834,1.834,1.8367,1.834,1.7879,1.7263,1.6525,1.51,1.3588,1.1905,0.968,0.6951,0.3895,0.2072,0.0335,-0.121,0.0,0.0,0.0,0.0,0.0,0.0,0.0,0.0,0.0,0.0,0.0,0.0,0.0,0.0,0.0,0.0,0.0,0.0,0.0,0.0,0.0,0.0,0.0,0.0,0.0,0.0,0.0,0.0,0.0,0.0,0.0,0.0,0.0,1.7874,1.8354,1.8942,1.9546,1.9633,1.9633,1.9633,1.9379,1.9234,1.9234,1.8966,1.8727,1.8542,1.8542,1.8265,1.7768,1.7721,1.7488,1.7026,1.6777,1.6393,1.5825,1.5391,1.4867,1.4346,1.3757,1.3281,1.2813,1.2516,1.198,1.1228,1.0986,1.0357,0.944,0.8475,0.7889,0.7536,0.7499,0.7238,0.684,0.0,0.0,0.0,0.0,0.0,0.0,0.0,0.0,0.0,0.0,0.551,0.6535,0.7722,0.8818,0.9811,1.0737,1.1732,1.2689,1.3614,0.0,0.0,0.0,0.0,0.0,1.8697,1.8845,1.9123,1.9541,1.9541,1.958,1.9683,1.9192,1.8667,1.8039,1.6787,1.5138,1.3147,1.0856,0.8222,0.5375,0.2775,0.0602,-0.1241,0.0,0.0,0.0,0.0,0.0,0.0,0.0,0.0,0.0,0.0,0.0,0.0,0.0,0.0,0.0,0.0,0.0,0.0,0.0,0.0,0.0,0.0,0.0,0.0,0.0,0.0,0.0,0.0,0.0,0.0,0.0,0.0,1.8919,1.896,1.9317,1.9773,2.0329,2.0255,2.0164,2.0382,2.0155,1.9928,1.97,1.9654,1.9525,1.9296,1.9104,1.8958,1.8773,1.8596,1.8365,1.8079,1.78,1.7426,1.6857,1.6386,1.592,1.535,1.4682,1.4202,1.3817,1.305,1.2565,1.2316,1.1478,1.0899,1.0386,0.9163,0.8399,0.7981,0.7852,0.7591,0.7282,0.0,0.0,0.0,0.0,0.0,0.0,0.0,0.0,0.0,0.0,0.5514,0.6568,0.7749,0.8909,0.9996,1.0919,1.2042,1.3108,1.4025,0.0,0.0,0.0,0.0,1.8963,1.9605,1.9863,2.022,2.0671,2.0721,2.0881,2.1075,2.0631,2.018,1.9647,1.841,1.6654,1.4449,1.2149,0.9458,0.6493,0.3622,0.1094,-0.1132,-0.2461,-0.3333,-0.381,-0.3542,-0.3114,-0.2552,-0.1327,0.0,0.0,0.0,0.0,0.0,0.0,0.0,0.0,0.0,0.0,0.0,0.0,0.0,0.0,0.0,0.0,0.0,0.0,0.0,0.0,0.0,0.0,0.0,0.0,1.941,2.0052,2.0563,2.0559,2.0663,2.106,2.097,2.097,2.1105,2.088,2.0708,2.0527,2.0419,2.0292,2.0073,1.9928,1.9783,1.9646,1.9425,1.9142,1.895,1.8589,1.8133,1.7613,1.7145,1.6574,1.5961,1.5404,1.4825,1.425,1.3673,1.3195,1.2764,1.2127,1.1511,0.0,0.0,0.0,0.0,0.0,0.7812,0.7635,0.0,0.0,0.0,0.0,0.0,0.0,0.0,0.0,0.0,0.0,0.0,0.6498,0.7544,0.8935,1.0091,1.0919,1.2212,1.3403,0.0,0.0,0.0,1.8333,1.8963,1.9605,2.0295,2.0696,2.1177,2.1698,2.1864,2.2109,2.2429,2.2077,2.1706,2.1274,2.0015,1.8159,1.5818,1.3552,1.071,0.7465,0.4611,0.1782,-0.0861,-0.228,-0.3115,-0.3492,-0.3216,-0.2659,-0.1895,-0.0432,0.0,0.0,0.0,0.0,0.0,0.0,0.0,0.0,0.0,0.0,0.0,0.0,0.0,0.0,0.0,0.0,0.0,0.0,0.0,0.0,0.0,0.0,0.0,0.0,2.0551,2.1307,2.2375,2.2052,2.1696,2.182,2.1865,2.1874,2.183,2.1651,2.1526,2.1482,2.1284,2.1042,2.0835,0.0,0.0,0.0,0.0,1.9928,1.9691,1.9188,1.8689,1.8179,1.7652,1.7044,1.6332,1.6015,1.535,1.4442,1.4346,1.3769,1.2861,1.2813,1.2047,1.0811,0.9855,0.9278,0.8849,0.8222,0.794,0.794,0.0,0.0,0.0,0.0,0.0,0.0,0.0,0.0,0.0,0.422,0.5279,0.6334,0.7419,0.8742,0.9958,1.093,1.2143,1.3666,0.0,0.0,1.7936,1.8827,1.9488,2.0156,2.0835,2.1337,2.1851,2.2328,2.2686,2.3024,2.3341,2.3275,2.301,2.2593,2.1576,1.9815,1.7478,1.493,1.2031,0.8838,0.5752,0.2665,-0.0245,-0.1828,-0.2745,-0.3125,-0.2659,-0.208,-0.1297,0.0432,0.1883,0.3251,0.4944,0.0,0.0,0.0,0.0,0.0,0.0,0.0,0.0,0.0,0.0,0.0,0.0,0.0,0.0,0.0,0.0,0.0,0.0,0.0,0.0,2.0741,2.1363,2.2131,2.3337,2.3406,2.3232,2.2872,2.2828,2.275,2.2583,2.2539,2.2362,2.2008,2.1919,2.1785,2.1508,2.1338,2.1257,2.1167,2.0916,2.06,2.0155,2.0065,1.9554,1.8643,0.0,0.0,1.7091,1.6433,1.5764,1.5153,1.4586,1.3919,1.3346,1.2958,1.2047,1.0806,0.9939,0.9416,0.9066,0.8617,0.8328,0.8113,0.0,0.0,0.0,0.0,0.0,0.0,0.0,0.0,0.0,0.0,0.4918,0.6013,0.6999,0.8291,0.9506,1.0546,1.2343,0.0,0.0,1.6983,1.7979,1.896,1.9708,2.0447,2.118,2.1793,2.2365,2.2965,2.3399,2.3815,2.4256,2.4348,2.423,2.3909,2.3119,2.1501,1.9231,1.6684,1.377,1.0632,0.7397,0.4512,0.189,-0.0655,-0.1933,-0.2334,-0.1826,-0.1058,-0.0034,0.1727,0.3429,0.5097,0.6719,0.8379,0.9863,0.0,0.0,0.0,0.0,0.0,0.0,0.0,0.0,0.0,0.0,0.0,0.0,0.0,0.0,1.8718,0.0,0.0,2.0961,2.2048,2.2689,2.3398,2.436,2.4519,2.4348,2.3864,2.3701,2.3634,2.3503,2.3285,2.3067,2.2803,2.2662,2.253,2.2397,2.223,2.2097,2.2097,2.1597,2.123,2.1015,2.0518,2.0065,1.9554,1.8958,1.8311,1.766,1.6958,1.6251,1.5581,1.4975,1.44,1.3823,1.3098,1.2453,1.1735,1.0838,1.0035,0.9382,0.9059,0.8859,0.8727,0.0,0.0,0.0,0.0,0.0,0.0,0.0,0.0,0.0,0.0,0.4489,0.5587,0.6441,0.7739,0.909,0.0,0.0,0.0,0.0,1.6765,1.7804,1.8895,1.9734,2.0548,2.1337,2.2077,2.2777,2.3428,2.4,2.4538,2.5079,2.5316,2.5354,2.5144,2.4507,2.3071,2.1014,1.8632,1.582,1.2729,0.9539,0.6918,0.4598,0.1479,-0.036,-0.1174,-0.0759,0.0195,0.1478,0.3204,0.5145,0.7137,0.8764,1.0488,1.2095,1.2976,1.4047,0.0,0.0,0.0,0.0,0.0,0.0,0.0,0.0,0.0,1.9173,1.9301,1.9539,1.9937,2.0763,2.1593,2.2438,2.3337,2.4039,2.468,2.5316,2.5443,2.5316,2.4967,2.4647,2.4454,2.4411,2.4013,2.3754,2.3711,2.3484,2.3353,2.3319,2.3101,2.2925,2.2838,2.222,2.182,2.1696,2.097,2.0473,2.0292,1.9371,1.8681,1.8226,1.7441,1.669,1.6015,1.5356,1.4783,1.425,1.3389,1.2953,1.2689,1.1833,1.0841,0.9885,0.9562,0.938,0.9305,0.0,0.0,0.0,0.0,0.0,0.0,0.0,0.0,0.0,0.0,0.0,0.0,0.0,0.0,0.0,0.0,0.0,0.0,1.5381,1.6464,1.7545,1.8673,1.9567,2.0409,2.1204,2.218,2.2979,2.3573,2.442,2.5118,2.5705,2.6087,2.6213,2.6127,2.5577,2.4395,2.2687,2.0645,1.8106,1.5252,1.2431,0.982,0.7349,0.5299,0.2821,0.0461,0.077,0.1628,0.2948,0.4866,0.6966,0.9123,1.1019,1.2771,1.4364,1.5459,0.0,1.6936,1.7623,1.8552,1.9469,2.0033,2.0207,2.0265,0.0,0.0,2.0566,2.0605,2.0808,2.1179,2.1906,2.2592,2.3379,2.4311,2.4944,2.5527,2.603,2.6238,2.6362,2.6385,2.579,2.5285,2.5115,2.4861,2.4637,2.4413,2.437,2.4251,2.4067,2.3841,2.3493,2.3091,2.2794,2.2353,2.1696,2.1597,2.1105,2.0292,1.9783,1.9234,1.8689,1.7707,1.7138,1.6803,1.5622,1.4819,1.425,1.3908,1.3383,1.2786,1.2395,1.1812,1.1013,1.0129,0.9589,0.9305,0.0,0.0,0.0,0.0,0.0,0.0,0.0,0.0,0.0,0.0,0.0,0.0,0.0,0.0,0.0,0.0,0.0,0.0,1.4717,1.594,1.7073,1.8174,1.9214,2.0182,2.1055,2.2072,2.3017,2.3885,2.4716,2.5526,2.6264,2.6707,2.6951,2.6981,2.6589,2.5704,2.4357,2.2351,2.011,1.7618,1.481,1.2314,1.0066,0.8143,0.6382,0.475,0.3317,0.3569,0.0,0.0,0.8953,1.1316,1.3266,1.5188,1.6999,1.8051,1.8835,0.0,2.0428,2.1098,0.0,0.0,2.2054,2.2038,2.1804,2.1852,2.1928,2.1928,2.208,2.2529,2.3467,2.4122,2.4803,0.0,2.624,2.661,2.6899,2.7021,2.7156,2.7342,2.6951,2.6445,2.5863,2.558,2.5422,2.5327,2.5147,2.5062,2.4946,2.4605,2.4272,2.3927,2.358,2.3101,2.252,2.2141,2.1651,2.1105,2.0374,1.9828,1.9425,1.8396,1.7505,1.6716,1.5866,1.5296,1.4914,1.4519,1.4094,1.3613,1.3211,1.2601,1.1833,1.0885,1.0357,1.0125,0.0,0.0,0.0,0.0,0.0,0.0,0.0,0.0,0.0,0.0,0.0,0.0,0.0,0.0,0.0,0.0,0.0,0.0,0.0,1.5196,1.6443,1.7611,1.8738,1.9837,2.087,2.1941,2.3024,2.4065,2.4996,2.5877,2.6723,2.7222,2.756,2.7704,2.745,2.6801,2.5801,2.3954,2.2028,1.9934,1.7308,1.4965,1.2855,1.0984,0.9774,0.8734,0.6025,0.5846,0.0,0.0,1.1136,1.3705,1.5614,1.772,1.962,2.0642,2.1366,2.2097,2.3075,0.0,0.0,2.3913,2.394,2.3734,2.3412,2.3313,2.3313,2.3276,2.335,2.3798,2.4936,2.5438,2.6065,2.7088,2.7441,2.7603,2.7765,2.7846,2.7926,2.8042,2.7938,2.7592,2.6887,2.6498,2.6229,2.6188,2.601,2.5832,2.5695,2.5369,2.5041,2.4711,2.4229,2.3754,2.3319,2.2662,2.222,2.1865,2.1006,2.0419,2.0065,1.8988,1.7978,1.6958,1.644,1.6008,1.5724,1.5283,1.4854,1.4478,1.4011,1.3339,1.2609,1.1874,1.1279,1.0852,0.0,0.0,0.0,0.0,0.0,0.0,0.0,0.0,0.0,0.0,0.0,0.0,0.0,0.0,0.0,0.0,0.0,0.0,0.0,1.4225,1.5564,1.6957,1.8112,1.9321,2.0585,2.1846,2.2988,2.3998,2.5211,2.6195,2.7001,2.7604,2.8014,2.8255,2.8,2.7525,2.6868,2.5497,2.3917,2.2132,2.0156,1.799,1.5797,1.4096,1.2759,1.1425,0.8678,0.0,0.0,0.0,1.3718,1.6412,1.8207,2.0294,0.0,2.3225,2.3774,0.0,0.0,0.0,2.5023,2.5825,2.5718,2.5357,2.5004,2.4933,2.4862,2.4671,2.4636,2.4964,2.6056,2.6434,2.6919,2.8001,2.8351,2.8471,2.8471,2.8645,2.8685,2.851,2.8657,2.8685,0.0,2.7684,2.7074,2.6891,2.685,2.6674,2.6185,2.5968,2.5644,2.52,2.47,2.4229,2.3797,2.3309,2.2828,2.2353,2.1678,2.1087,2.0546,1.9325,1.8504,1.804,1.7473,1.7005,1.6534,1.6292,1.5717,1.5026,1.4699,1.4111,1.3438,1.3129,1.2287,1.1284,0.0,0.0,0.0,0.0,0.0,0.0,0.0,0.0,0.0,0.0,0.0,0.0,0.0,0.0,0.0,0.0,0.0,0.0,0.0,1.3567,1.4875,1.6148,1.7484,1.8756,2.0042,2.1496,2.2825,2.3998,2.5252,2.6352,2.7286,2.7851,2.8273,2.8556,2.8417,2.8002,2.7341,2.6252,2.492,2.3368,2.1583,1.98,1.797,1.6378,1.5263,1.4335,0.0,0.0,0.0,0.0,0.0,0.0,2.0483,0.0,0.0,2.5666,0.0,0.0,0.0,0.0,2.6727,2.7341,2.7232,2.6841,2.6377,2.6183,2.6114,2.6045,2.6342,2.6861,2.7679,2.82,2.8762,2.9475,2.9535,2.9509,2.9509,2.9457,2.9367,2.9289,2.9367,0.0,0.0,0.0,0.0,2.7777,2.7482,2.7156,2.6899,2.6674,2.6343,2.5863,2.5591,2.5211,2.4733,2.4122,2.3647,2.3309,2.2476,2.1624,2.0862,2.0102,1.9554,1.9042,1.8342,1.7839,1.7567,1.7318,1.6729,1.5936,1.5695,1.5077,1.4329,1.4112,1.3683,1.3088,0.0,0.0,0.0,0.0,0.0,0.0,0.0,0.0,0.0,0.0,0.0,0.0,0.0,0.0,0.0,0.0,0.0,0.0,0.0,0.0,1.3957,1.5245,1.6694,1.8128,1.953,2.1083,2.2526,2.3888,2.5198,2.6335,2.7315,2.7936,2.8391,2.8694,2.8632,2.8268,2.7689,2.6818,2.5688,2.4342,2.3045,2.1591,2.0078,1.892,1.8014,0.0,0.0,0.0,0.0,0.0,0.0,0.0,0.0,0.0,0.0,0.0,0.0,0.0,0.0,2.8751,2.858,2.8941,2.8716,2.8293,2.7723,2.7471,2.7369,2.7488,2.7838,2.8377,2.9201,2.9678,3.0108,3.0642,3.0558,3.0444,3.0444,3.0292,3.0177,3.0177,3.0177,3.0101,0.0,0.0,0.0,2.8447,2.8115,2.7834,2.7551,2.736,2.7033,2.6558,2.6249,2.5926,2.5569,2.4893,2.4294,2.3797,2.3135,2.2334,2.149,2.0997,2.0546,2.0048,1.9355,1.895,1.8711,1.8302,1.7713,1.7002,1.6631,1.606,1.5383,1.5034,1.4831,1.4538,0.0,0.0,0.0,0.0,0.0,0.0,0.0,0.0,0.0,0.0,0.0,0.0,0.0,0.0,0.0,0.0,0.0,0.0,0.0,0.0,0.0,1.4287,1.5803,1.7379,1.901,2.0629,2.2183,2.3655,2.501,2.6164,2.7092,2.7897,2.8414,2.8669,2.8612,2.8357,2.794,2.7191,2.6214,2.5098,2.4463,2.3355,2.204,2.1537,0.0,0.0,0.0,0.0,0.0,0.0,0.0,0.0,0.0,0.0,0.0,0.0,0.0,3.0212,3.0419,3.0517,3.0556,3.0558,3.0222,2.9685,2.9012,2.8739,2.8657,2.9027,2.9107,2.9468,0.0,0.0,3.1007,3.1496,3.1405,3.127,3.127,3.1147,3.1061,0.0,0.0,0.0,0.0,0.0,0.0,2.8988,0.0,2.8645,2.8259,2.7983,2.7649,2.7255,2.6816,2.6475,2.6268,2.5611,2.4818,2.3884,2.3691,2.3212,2.2441,2.2015,2.1516,2.1042,2.06,2.0212,1.9872,1.9268,1.871,1.8205,1.7528,1.7004,1.6526,1.6012,1.5775,1.5609,0.0,0.0,0.0,0.0,0.0,0.0,0.0,0.0,0.0,0.0,0.0,0.0,0.0,0.0,0.0,0.0,0.0,0.0,0.0,0.0,0.0,0.0,0.0,0.0,0.0,0.0,0.0,0.0,0.0,2.5755,2.6756,2.7542,2.8069,2.8322,2.8313,2.8124,2.7728,2.6985,2.6407,2.5895,0.0,2.3994,2.325,0.0,0.0,0.0,0.0,0.0,0.0,0.0,0.0,0.0,0.0,0.0,3.0501,0.0,0.0,3.1128,3.1366,3.1451,3.149,3.1511,3.1116,3.0569,3.0054,2.9685,2.9572,3.004,3.0474,3.1029,0.0,0.0,0.0,3.2804,3.2547,0.0,3.2331,3.2019,0.0,3.1813,0.0,3.1776,3.1593,3.1408,0.0,0.0,2.9755,2.9157,2.8895,2.8673,2.8355,2.7966,2.762,2.7366,2.7185,2.6475,2.5737,2.4861,2.4807,2.4294,2.344,2.3159,2.2687,2.2017,2.1767,2.121,2.0481,2.0316,1.9713,1.8929,1.8598,1.8103,1.7597,1.7318,1.696,1.6632,0.0,0.0,0.0,0.0,0.0,0.0,0.0,0.0,0.0,0.0,0.0,0.0,0.0,0.0,0.0,0.0,0.0,0.0,0.0,0.0,0.0,0.0,0.0,0.0,0.0,0.0,0.0,0.0,0.0,0.0,0.0,2.6933,2.748,2.7765,2.7759,2.7566,2.7239,2.6808,0.0,0.0,0.0,0.0,0.0,0.0,0.0,0.0,0.0,0.0,0.0,0.0,0.0,2.9459,3.0567,3.1111,3.134,3.1393,0.0,3.222,3.2154,3.2393,3.2583,3.2353,3.1905,3.1378,3.0851,3.0523,3.0495,3.1116,3.1535,0.0,0.0,0.0,0.0,0.0,0.0,0.0,3.3164,3.2903,3.2712,0.0,3.2783,0.0,3.2596,3.2453,3.2273,0.0,3.0746,2.9857,2.9677,2.947,2.9118,2.8618,2.8435,2.8143,2.762,2.7255,2.664,2.5779,2.5779,2.5274,2.4391,2.4284,2.3851,2.3169,0.0,2.2208,2.1575,2.1109,2.0518,1.987,1.9565,1.9195,1.8789,1.8496,1.8256,1.7925,0.0,0.0,0.0,0.0,0.0,0.0,0.0,0.0,0.0,0.0,0.0,0.0,0.0,0.0,0.0,0.0,0.0,0.0,0.0,0.0,0.0,0.0,0.0,0.0,0.0,0.0,0.0,0.0,0.0,0.0,0.0,0.0,0.0,0.0,0.0,0.0,0.0,0.0,0.0,0.0,0.0,0.0,0.0,0.0,0.0,0.0,0.0,0.0,0.0,0.0,3.0112,3.0767,3.1414,3.1766,3.1912,3.1894,3.2584,3.3224,3.2752,3.3176,3.3601,3.3044,3.2574,3.2107,3.1509,3.1204,3.1308,3.213,0.0,3.2699,3.3951,3.423,3.4298,3.4481,0.0,3.3977,3.3977,3.3796,3.3679,3.3699,3.3885,3.3934,3.3859,3.3652,3.343,3.3255,3.1909,3.0973,3.0659,3.0368,2.9947,2.9314,2.9248,2.8831,2.8039,2.8011,2.7568,2.6723,2.6693,2.6238,2.5359,2.5359,2.4988,2.4251,2.358,2.3078,2.2702,2.1737,2.1172,2.0905,2.0537,2.0274,2.006,1.9687,1.9499,1.9323,0.0,0.0,0.0,0.0,0.0,0.0,0.0,0.0,0.0,0.0,-0.2253,-0.1547,0.0,0.0,0.0,0.0,0.0,0.0,0.0,0.0,0.0,0.0,0.0,0.0,0.0,0.0,0.0,0.0,0.0,0.0,0.0,0.0,0.0,0.0,0.0,0.0,0.0,0.0,0.0,0.0,0.0,0.0,0.0,0.0,0.0,0.0,0.0,0.0,0.0,0.0,3.0128,3.1024,3.1579,3.1911,3.2037,3.1856,3.2601,3.3368,3.2884,3.339,3.3924,3.3487,3.2942,3.2425,3.1981,3.1653,0.0,0.0,0.0,3.326,3.4519,3.4902,3.5016,3.5049,0.0,0.0,0.0,0.0,3.4695,0.0,0.0,0.0,0.0,0.0,0.0,0.0,0.0,3.2854,3.1873,3.1307,3.0809,3.0342,3.0024,2.9678,2.9381,2.9028,2.8514,2.781,2.7649,2.7121,2.6279,2.6279,2.5703,2.4701,2.4395,0.0,2.2681,2.2348,2.198,2.1632,2.1561,2.1415,2.1185,2.0964,2.0644,2.0226,0.0,0.0,0.0,0.0,0.0,0.0,0.0,-0.393,-0.3696,-0.3527,-0.2958,-0.2252,-0.1446,-0.0504,0.0403,0.0,0.0,0.0,0.0,0.0,0.0,0.0,0.0,0.0,0.0,0.0,0.0,0.0,0.0,0.0,0.0,0.0,0.0,0.0,0.0,0.0,0.0,0.0,0.0,0.0,0.0,0.0,0.0,0.0,0.0,0.0,0.0,0.0,0.0,0.0,2.9275,3.0323,3.1281,3.1691,3.1783,3.1709,3.2443,3.316,3.2796,3.3319,3.3924,3.3581,3.3134,3.266,3.2302,0.0,0.0,0.0,3.3015,3.3566,3.4629,0.0,0.0,0.0,0.0,0.0,0.0,0.0,0.0,0.0,0.0,0.0,0.0,0.0,0.0,0.0,0.0,3.447,3.3052,3.2354,3.1809,3.1405,3.1108,3.0733,3.033,3.0024,2.9549,2.8924,2.8621,2.7933,2.6955,2.6875,2.6211,2.5203,2.4746,0.0,2.3509,2.3037,2.267,2.244,2.244,2.2268,2.2048,2.1901,2.1624,2.1336,0.0,0.0,0.0,0.0,0.0,0.0,0.0,-0.4131,-0.3961,-0.3825,-0.346,-0.2824,-0.1883,-0.1008,-0.0168,0.0,0.0,0.0,0.0,0.0,0.0,0.0,0.0,0.0,0.0,0.0,0.0,0.0,0.0,0.0,0.0,0.0,0.0,0.0,0.0,0.0,0.0,0.0,0.0,0.0,0.0,0.0,0.0,0.0,0.0,0.0,0.0,0.0,0.0,0.0,2.8148,2.9223,3.046,3.1069,3.1315,3.1389,3.2026,3.2679,3.2524,3.3062,3.3629,3.3533,3.3203,3.2816,3.2508,3.2247,0.0,0.0,3.3156,3.3909,3.4696,0.0,0.0,0.0,0.0,0.0,0.0,0.0,0.0,0.0,0.0,0.0,0.0,0.0,0.0,0.0,0.0,0.0,3.4008,3.3308,3.2709,3.2148,3.1921,3.1528,3.0997,3.0727,3.0269,2.9682,2.9263,2.8514,2.7524,2.7293,2.6628,2.5739,2.5127,0.0,0.0,2.3799,2.3446,2.3261,2.3202,2.3058,2.2877,2.2718,2.258,2.2285,0.0,0.0,0.0,0.0,0.0,0.0,0.0,-0.4131,-0.3961,-0.3825,-0.346,-0.2993,-0.2389,-0.1547,-0.0739,0.0,0.0,0.0,0.0,0.0,0.0,0.0,0.0,0.0,0.0,0.0,0.0,0.0,0.0,0.0,0.0,0.0,0.0,0.0,0.0,0.0,0.0,0.0,0.0,0.0,0.0,0.0,0.0,0.0,0.0,0.0,0.0,0.0,0.0,0.0,0.0,2.7905,2.8763,2.98,3.0703,3.0757,0.0,0.0,3.2076,3.2514,3.3003,3.3395,3.3203,3.2827,3.2629,0.0,0.0,3.2846,3.3588,3.4377,3.5186,3.6288,3.7163,0.0,0.0,0.0,0.0,0.0,0.0,0.0,0.0,0.0,0.0,0.0,0.0,0.0,0.0,0.0,3.4347,3.3915,3.3263,3.231,3.1984,3.1622,3.1288,3.0767,3.0231,2.9685,2.9178,2.8575,2.7914,2.7557,2.6967,2.6214,2.5849,0.0,0.0,2.4479,2.4286,2.408,2.3806,2.3745,2.3776,2.3711,2.3368,2.2889,0.0,0.0,0.0,0.0,0.0,0.0,-0.4498,-0.4298,-0.4097,-0.3825,-0.3658,-0.3324,-0.2654,-0.1983,-0.1244,-0.037,0.0,0.0,0.0,0.0,0.0,0.0,0.0,0.0,0.0,0.0,0.0,0.0,0.0,0.0,0.0,0.0,0.0,0.0,0.0,0.0,0.0,0.0,0.0,0.0,0.0,0.0,0.0,0.0,0.0,0.0,0.0,0.0,0.0,0.0,0.0,0.0,2.754,2.837,0.0,0.0,3.0577,3.1183,3.1762,3.2257,3.2764,3.3354,3.3256,3.2989,3.292,0.0,0.0,3.282,3.3562,3.4457,3.5568,3.669,3.7776,0.0,0.0,0.0,0.0,0.0,0.0,0.0,0.0,0.0,0.0,0.0,0.0,0.0,0.0,0.0,3.5805,3.5021,3.4226,3.3471,3.3241,3.2838,3.2205,3.1687,3.1107,3.0542,2.9867,2.9123,2.835,2.7855,2.7233,2.6509,2.6205,0.0,0.0,2.5241,2.5028,2.485,2.46,2.4528,2.4527,2.4164,2.392,2.3641,0.0,0.0,0.0,0.0,0.0,-0.4761,-0.4625,-0.4431,-0.4164,-0.3859,-0.3792,-0.3525,-0.2787,-0.2285,-0.1648,-0.0739,0.0302,0.0,0.0,0.0,0.0,0.0,0.0,0.0,0.0,0.0,0.0,1.1267,0.0,0.0,0.0,0.0,0.0,0.0,0.0,0.0,0.0,0.0,0.0,0.0,0.0,0.0,0.0,0.0,0.0,0.0,0.0,0.0,0.0,0.0,0.0,0.0,0.0,0.0,0.0,0.0,2.9836,3.0389,3.1126,3.1749,3.2335,3.2974,3.3124,3.3096,0.0,0.0,3.278,3.2926,3.3718,3.4712,3.5746,3.7091,3.8402,0.0,0.0,4.0728,0.0,0.0,0.0,0.0,0.0,0.0,0.0,0.0,0.0,0.0,0.0,0.0,3.6839,3.5999,3.5149,3.43,3.4007,3.3534,3.2796,3.225,3.1656,3.0997,3.0276,2.949,2.8652,2.8111,2.755,2.7019,2.6679,0.0,0.0,2.6025,2.5781,2.5558,2.5406,2.5217,2.5052,2.4683,2.4406,2.4236,0.0,0.0,0.0,0.0,0.0,0.0,-0.4625,-0.4431,-0.4164,-0.3859,-0.3792,-0.3525,-0.2787,-0.2388,-0.1884,-0.1143,-0.0101,0.0,0.0,0.0,0.0,0.0,0.0,0.0,0.0,0.0,0.8839,0.9518,1.0053,1.07,0.0,0.0,0.0,0.0,0.0,0.0,0.0,0.0,0.0,0.0,0.0,0.0,0.0,0.0,0.0,0.0,0.0,0.0,0.0,0.0,0.0,0.0,0.0,0.0,0.0,0.0,2.8912,2.9271,3.0014,3.0783,3.157,3.2159,3.2699,3.3096,0.0,0.0,3.3123,3.3282,3.4264,3.5242,3.5704,3.7539,3.9204,3.9805,0.0,0.0,0.0,0.0,0.0,0.0,0.0,0.0,0.0,0.0,0.0,0.0,0.0,0.0,3.7073,3.6741,3.5916,3.4447,3.3878,3.3345,3.2819,3.2185,3.1551,3.0807,3.0129,2.9449,2.8771,2.8235,2.7908,2.7776,0.0,0.0,0.0,2.6782,2.6474,2.6186,2.6126,2.5744,2.5312,2.5276,2.4933,2.4454,0.0,0.0,0.0,0.0,0.0,0.0,0.0,-0.4498,-0.4164,-0.3859,-0.3694,-0.3326,-0.2589,-0.2186,-0.1681,-0.0975,-0.0134,0.0,0.0,0.0,0.0,0.0,0.0,0.0,0.0,0.0,0.7944,0.8619,0.9046,0.96,1.017,1.0497,0.0,0.0,0.0,0.0,0.0,0.0,0.0,0.0,0.0,0.0,0.0,0.0,0.0,0.0,0.0,0.0,0.0,0.0,0.0,0.0,0.0,0.0,0.0,0.0,0.0,0.0,2.9581,3.0376,3.1165,3.1964,3.2646,3.315,3.3319,0.0,3.3633,3.4025,3.4595,3.5393,3.665,3.7671,3.887,4.0588,0.0,0.0,0.0,0.0,0.0,0.0,0.0,0.0,0.0,0.0,0.0,0.0,0.0,0.0,3.7773,3.745,3.6704,3.5459,3.4948,3.4342,3.3614,3.3077,3.2321,3.1407,3.0792,3.0131,2.9467,2.8976,2.8605,0.0,0.0,0.0,0.0,2.7222,2.7066,2.6918,2.6483,2.6208,2.6,2.5488,2.5206,2.5004,0.0,0.0,0.0,0.0,0.0,0.0,0.0,-0.4431,-0.4097,-0.3825,-0.356,-0.3129,-0.2458,-0.2018,-0.148,-0.0739,-0.0067,0.0,0.0,0.0,0.0,0.0,0.0,0.0,0.0,0.6511,0.71,0.7707,0.8115,0.8635,0.9253,0.9476,0.986,1.0425,0.0,0.0,0.0,0.0,0.0,0.0,0.0,0.0,1.2452,0.0,0.0,0.0,0.0,0.0,0.0,0.0,0.0,0.0,0.0,0.0,0.0,0.0,0.0,0.0,0.0,2.9825,3.0849,3.1404,3.2311,0.0,0.0,0.0,3.3924,3.4472,3.492,3.5616,3.6895,3.7749,3.8903,4.0798,0.0,0.0,0.0,0.0,0.0,0.0,0.0,0.0,0.0,0.0,0.0,0.0,0.0,0.0,3.8267,3.7932,3.7357,3.6501,3.5803,3.5144,3.4456,3.3809,3.3002,3.2102,3.145,3.0763,3.0054,2.9574,2.918,0.0,0.0,0.0,0.0,2.7736,2.7503,2.7335,2.6918,2.6598,2.6346,2.5816,2.5571,2.5465,0.0,0.0,0.0,0.0,0.0,0.0,0.0,-0.4261,-0.3928,-0.3792,-0.3424,-0.296,-0.2389,-0.1884,-0.1277,-0.0538,0.0,0.0,0.0,0.0,0.0,0.0,0.0,0.0,0.5362,0.583,0.6342,0.689,0.7297,0.7883,0.8653,0.8851,0.9188,0.9587,0.996,1.0143,0.0,0.0,0.0,0.0,0.0,0.0,0.0,0.0,0.0,0.0,0.0,0.0,0.0,0.0,0.0,0.0,0.0,0.0,0.0,0.0,0.0,0.0,0.0,0.0,0.0,0.0,0.0,0.0,0.0,0.0,0.0,0.0,0.0,0.0,0.0,0.0,0.0,0.0,0.0,0.0,0.0,0.0,0.0,0.0,0.0,0.0,0.0,0.0,0.0,0.0,0.0,0.0,3.8523,3.8203,3.7809,3.7413,3.646,3.571,3.5247,3.4366,3.3575,3.2815,3.2074,3.1305,3.0524,3.0054,2.9654,0.0,0.0,0.0,0.0,2.8276,2.7901,2.7536,2.7369,2.6952,2.6427,2.6258,2.6097,2.5875,0.0,0.0,0.0,0.0,0.0,0.0,0.0,0.0,0.0,0.0,-0.3023,-0.2554,-0.1849,-0.1446,-0.0908,0.0,0.0,0.0,0.0,0.0,0.0,0.0,0.0,0.0,0.5156,0.5538,0.6059,0.6744,0.7103,0.7619,0.8263,0.8449,0.8737,0.9137,0.9397,0.9695,0.0,0.0,0.0,0.0,0.0,0.0,0.0,0.0,0.0,0.0,1.5719,1.701,0.0,0.0,0.0,0.0,0.0,0.0,0.0,0.0,2.5147,0.0,2.6936,0.0,2.9883,3.0094,3.137,0.0,0.0,0.0,0.0,0.0,0.0,0.0,0.0,0.0,0.0,0.0,0.0,0.0,0.0,0.0,0.0,0.0,0.0,0.0,0.0,0.0,0.0,0.0,0.0,3.8892,3.8585,3.8251,3.7879,3.7413,3.6779,3.6139,3.5504,3.473,3.3958,3.3097,3.241,3.1652,3.0881,3.0403,2.9946,0.0,0.0,0.0,2.8748,2.8554,2.8276,2.7914,2.7603,2.7201,2.6829,2.6474,2.6245,2.6097,0.0,0.0,0.0,0.0,0.0,0.0,0.0,0.0,0.0,0.0,0.0,-0.2218,-0.1547,-0.1076,0.0,0.0,0.0,0.0,0.0,0.0,0.0,0.0,0.0,0.4306,0.5082,0.5502,0.6001,0.6643,0.7123,0.76,0.8103,0.8315,0.8594,0.9027,0.9322,0.9625,0.0,0.0,0.0,0.0,1.0772,0.0,0.0,0.0,0.0,0.0,1.548,1.6629,0.0,1.8844,1.9868,2.0773,0.0,0.0,0.0,0.0,2.4639,2.551,2.6378,2.7897,2.9322,2.9881,3.1066,3.2188,0.0,0.0,0.0,0.0,0.0,0.0,0.0,0.0,0.0,0.0,0.0,0.0,0.0,0.0,0.0,0.0,0.0,0.0,0.0,0.0,0.0,0.0,0.0,3.8833,3.8523,3.8186,3.7774,3.7281,3.6736,3.6178,3.5611,3.4873,3.4059,3.3177,3.2574,3.1894,3.1117,3.0657,3.0219,0.0,0.0,0.0,2.8908,2.8748,2.8471,2.8079,2.7769,2.7436,2.7113,2.6794,2.6636,2.6546,0.0,0.0,0.0,0.0,0.0,0.0,0.0,0.0,0.0,0.0,0.0,0.0,0.0,0.0,0.0,0.0,0.0,0.0,0.0,0.0,0.0,0.0,0.0,0.4324,0.5088,0.5581,0.6084,0.6589,0.7207,0.7714,0.8102,0.8327,0.867,0.9099,0.9473,0.9792,0.0,0.0,0.0,0.0,1.1243,0.0,0.0,0.0,0.0,0.0,0.0,0.0,0.0,1.825,1.9187,2.002,2.0628,0.0,0.0,0.0,0.0,0.0,2.5984,2.72,2.8555,2.9637,3.0759,3.1694,0.0,0.0,0.0,0.0,0.0,0.0,0.0,0.0,0.0,0.0,0.0,0.0,0.0,0.0,0.0,0.0,0.0,0.0,0.0,0.0,0.0,0.0,0.0,3.8728,3.8401,3.8071,3.7613,3.7091,3.6533,3.5989,3.5481,3.4794,3.3993,3.315,3.2602,3.1979,3.1278,3.0777,3.0401,3.008,0.0,0.0,2.9099,2.8894,2.8541,2.8112,2.7921,2.7623,2.7302,2.7113,2.7024,2.6956,0.0,0.0,0.0,0.0,0.0,0.0,0.0,0.0,0.0,0.0,0.0,0.0,0.0,0.0,0.0,0.0,0.0,0.0,0.0,0.0,0.0,0.3703,0.4111,0.4585,0.5158,0.5772,0.6229,0.6589,0.7219,0.7723,0.8102,0.8475,0.897,0.9511,0.9733,1.0106,1.0529,1.0729,1.1111,1.1507,1.1786,0.0,0.0,0.0,0.0,0.0,0.0,0.0,0.0,1.7604,1.8351,1.917,2.022,0.0,0.0,0.0,0.0,0.0,2.5767,2.6251,2.6847,2.8628,3.0,3.1058,3.1537,0.0,0.0,0.0,0.0,0.0,0.0,0.0,0.0,0.0,0.0,0.0,0.0,0.0,0.0,0.0,0.0,0.0,0.0,0.0,0.0,0.0,0.0,3.8611,3.8322,3.795,3.7486,3.6956,3.6312,3.5644,3.4911,3.4431,3.379,3.3029,3.237,3.1783,3.1278,3.0657,3.028,3.008,0.0,2.9383,2.9099,2.8935,2.8648,2.8235,2.8099,2.7802,2.7469,2.7302,2.7146,2.6977,0.0,0.0,0.0,0.0,0.0,0.0,0.0,0.0,0.0,0.0,0.0,0.0,0.0,0.0,0.0,0.0,0.0,0.0,0.0,0.0,0.0,0.4277,0.4656,0.5038,0.5341,0.6037,0.657,0.6912,0.7524,0.8021,0.8441,0.9046,0.9501,0.9776,1.0253,1.0561,1.0801,1.1278,1.1618,1.1852,0.0,0.0,0.0,0.0,0.0,0.0,0.0,0.0,0.0,0.0,1.7825,1.8671,1.9548,0.0,0.0,0.0,0.0,0.0,2.5372,2.5711,2.6103,2.7489,2.8561,2.9421,2.9967,0.0,0.0,0.0,0.0,0.0,0.0,0.0,0.0,0.0,0.0,0.0,0.0,0.0,0.0,0.0,0.0,0.0,0.0,0.0,0.0,0.0,0.0,0.0,3.8106,3.7685,3.7186,3.6615,3.6037,3.5305,3.444,3.3892,3.3298,3.2668,3.2092,3.1509,3.0896,3.0507,3.0174,2.9929,0.0,2.9352,2.9099,2.8912,2.8643,2.8287,2.8235,2.8066,2.7815,2.7749,2.7536,2.7268,0.0,0.0,0.0,0.0,0.0,0.0,0.0,0.0,0.0,0.0,0.0,0.0,0.0,0.0,0.0,0.0,0.0,0.0,0.0,0.0,0.4074,0.4732,0.5165,0.547,0.5673,0.6346,0.6868,0.7257,0.7872,0.8441,0.9008,0.9614,0.9954,1.0084,1.0677,1.1025,1.1105,1.1793,1.2141,1.2284,0.0,0.0,0.0,0.0,0.0,0.0,0.0,0.0,0.0,0.0,0.0,0.0,0.0,0.0,0.0,2.1975,2.301,2.4045,2.4696,2.5032,2.536,2.609,0.0,2.7952,2.8581,0.0,0.0,0.0,0.0,0.0,0.0,0.0,0.0,0.0,0.0,0.0,0.0,0.0,0.0,0.0,0.0,0.0,0.0,0.0,0.0,0.0,0.0,0.0,3.7846,3.7429,3.6933,3.6322,3.5727,3.4998,3.4101,3.3403,3.2819,3.2287,3.1824,3.1234,3.0598,3.0357,3.0068,2.9777,2.9481,2.9275,2.9067,2.8862,2.8592,2.8365,2.832,2.8216,2.8112,2.8112,2.7914,2.7636,0.0,0.0,0.0,0.0,0.0,0.0,0.0,0.0,0.0,0.0,0.0,0.0,0.0,0.0,0.0,0.0,0.0,0.0,0.0,0.0,0.4341,0.4965,0.5359,0.5789,0.6244,0.6668,0.7057,0.7484,0.8097,0.8856,0.9803,0.9884,1.0105,1.0492,1.0947,1.1314,1.1594,1.2069,1.2583,1.3027,1.3281,0.0,0.0,0.0,0.0,0.0,0.0,0.0,0.0,0.0,0.0,0.0,0.0,0.0,2.0479,0.0,2.2408,2.315,2.3438,2.3762,2.4079,2.4337,0.0,0.0,2.8082,2.8765,0.0,0.0,0.0,0.0,0.0,0.0,0.0,0.0,0.0,0.0,0.0,0.0,0.0,0.0,0.0,0.0,0.0,0.0,0.0,0.0,0.0,0.0,3.7631,3.7186,3.6739,3.6322,3.5351,3.4617,3.4101,3.3124,3.2453,3.201,3.1553,3.1073,3.0598,3.0249,3.0005,2.9777,2.9467,2.923,2.9067,2.8744,2.8597,2.8554,2.8365,2.8216,2.8112,2.8112,2.8079,2.8046,0.0,0.0,0.0,0.0,0.0,0.0,0.0,0.0,0.0,0.0,0.0,0.0,0.0,0.0,0.0,0.0,0.0,0.0,0.0,0.4075,0.4543,0.5162,0.544,0.5944,0.6637,0.6949,0.7292,0.7672,0.8556,0.9279,0.9922,1.0143,1.0406,1.0718,1.1543,1.1955,1.2077,1.2717,1.3085,1.3307,1.3519,1.3587,0.0,0.0,0.0,0.0,0.0,0.0,0.0,0.0,1.6609,1.7482,0.0,0.0,0.0,0.0,2.1401,2.1961,2.2565,2.2742,2.292,2.3559,0.0,0.0,0.0,0.0,0.0,0.0,0.0,0.0,0.0,0.0,0.0,0.0,0.0,0.0,0.0,0.0,0.0,0.0,0.0,0.0,0.0,0.0,0.0,0.0,0.0,0.0,3.7428,3.6954,3.6474,3.5985,3.523,3.4496,3.3848,3.3033,3.2299,3.1682,3.1351,3.0851,3.028,3.0172,2.9943,2.9651,2.9338,2.9149,2.9067,2.861,2.8417,2.8398,2.832,2.8346,2.8406,2.8406,2.8327,2.8203,0.0,0.0,0.0,0.0,0.0,0.0,0.0,0.0,0.0,0.0,0.0,0.0,0.0,0.0,0.0,0.0,0.0,0.0,0.3882,0.4231,0.4696,0.5359,0.5595,0.6057,0.6899,0.7215,0.7561,0.7902,0.8899,0.962,1.0105,1.0443,1.0738,1.1023,1.192,1.2332,1.2449,1.3121,1.344,1.3519,1.3652,1.3773,0.0,0.0,0.0,0.0,0.0,0.0,0.0,0.0,0.0,0.0,0.0,0.0,0.0,0.0,0.0,2.0851,2.1498,2.1763,2.202,0.0,0.0,0.0,0.0,0.0,0.0,0.0,0.0,0.0,0.0,0.0,0.0,0.0,0.0,0.0,0.0,0.0,0.0,0.0,0.0,0.0,0.0,0.0,0.0,0.0,0.0,0.0,0.0,3.6814,3.6343,3.5827,3.5091,3.4391,3.371,3.2926,3.2216,3.1552,3.1234,3.0746,3.008,3.008,2.9896,2.9509,2.9226,2.9035,2.8908,2.8495,2.8268,2.8235,2.8287,2.8398,2.8509,2.8587,2.8509,2.8398,0.0,0.0,0.0,0.0,0.0,0.0,0.0,0.0,0.0,0.0,0.0,0.0,0.0,0.0,0.0,0.0,0.0,0.0,0.4079,0.427,0.4774,0.5559,0.5789,0.6209,0.6899,0.7476,0.7902,0.8102,0.9127,0.9922,1.0513,1.07,1.1037,1.1434,1.2037,1.2406,1.2649,1.3156,1.3519,1.3695,1.3695,1.3984,1.4433,0.0,0.0,0.0,0.0,0.0,0.0,0.0,0.0,0.0,0.0,0.0,0.0,0.0,1.9735,1.9954,2.0226,2.0777,0.0,0.0,0.0,0.0,0.0,0.0,0.0,0.0,0.0,0.0,0.0,0.0,0.0,0.0,0.0,0.0,0.0,0.0,0.0,0.0,0.0,0.0,0.0,0.0,0.0,0.0,0.0,0.0,0.0,3.6731,3.6276,3.5827,3.4961,3.425,3.371,3.2834,3.2176,3.171,3.1307,3.0746,3.0111,3.008,2.9834,2.9383,2.9194,2.8908,2.8587,2.8365,2.8216,2.8112,2.8235,2.8287,2.832,2.8522,2.8587,2.8587,0.0,0.0,0.0,0.0,0.0,0.0,0.0,0.0,0.0,0.0,0.0,0.0,0.0,0.0,0.0,0.0,0.0,0.0,0.4268,0.4384,0.4774,0.5559,0.5789,0.6209,0.6899,0.7787,0.8479,0.8941,0.9544,1.0067,1.0519,1.085,1.1149,1.1422,1.2145,1.2589,1.2836,1.3321,1.3798,1.4188,1.4188,1.4356,1.465,0.0,0.0,0.0,0.0,0.0,0.0,0.0,0.0,0.0,0.0,0.0,0.0,1.8289,1.8424,1.8629,1.9007,0.0,0.0,0.0,0.0,0.0,0.0,0.0,0.0,0.0,0.0,0.0,0.0,0.0,0.0,0.0,0.0,0.0,0.0,0.0,0.0,0.0,0.0,0.0,0.0,0.0,0.0,0.0,0.0,0.0,0.0,3.6591,3.6131,3.5672,3.5001,3.4374,3.3848,3.3087,3.241,3.1896,3.1538,3.1058,3.0431,3.0203,2.9896,2.9509,2.9226,2.8908,2.8554,2.8151,2.7908,2.7901,2.8099,2.8216,2.832,2.8522,2.8587,2.8587,0.0,0.0,0.0,0.0,0.0,0.0,0.0,0.0,0.0,0.0,0.2198,0.0,0.0,0.0,0.0,0.0,0.0,0.0,0.0,0.4384,0.4774,0.5559,0.5864,0.644,0.7365,0.8131,0.8784,0.9284,0.9771,1.018,1.0519,1.0999,1.1335,1.1533,1.2215,1.2673,1.2975,1.3541,1.3981,1.4358,1.4476,1.465,1.4873,0.0,0.0,0.0,0.0,0.0,0.0,0.0,0.0,0.0,0.0,0.0,0.0,1.7412,1.7461,1.7638,1.8135,0.0,0.0,0.0,0.0,0.0,0.0,0.0,0.0,0.0,0.0,0.0,0.0,0.0,0.0,0.0,0.0,0.0,0.0,0.0,0.0,0.0,0.0,0.0,0.0,0.0,0.0,0.0,0.0,0.0,0.0,3.5647,3.5334,3.5182,3.4592,3.4153,3.3899,3.3177,3.2586,3.2135,3.1724,3.1292,3.0866,3.0401,2.9898,2.9463,2.894,2.8587,2.836,2.7888,2.7689,2.7689,2.7901,2.8085,2.8249,2.8411,2.8522,2.8587,0.0,0.0,0.0,0.0,0.0,0.0,0.0,0.0,0.0,0.0,0.2549,0.2823,0.0,0.0,0.0,0.0,0.0,0.0,0.0,0.0,0.4774,0.5559,0.6015,0.6822,0.8063,0.8475,0.8899,0.9284,0.9916,1.0331,1.0519,1.1149,1.1521,1.1719,1.2265,1.2694,1.304,1.3672,1.4108,1.4347,1.4587,1.4887,1.5131,1.5131,0.0,0.0,0.0,0.0,0.0,0.0,0.0,0.0,0.0,0.0,1.6406,1.6627,1.6704,1.6845,0.0,0.0,0.0,0.0,0.0,0.0,0.0,0.0,0.0,0.0,0.0,0.0,0.0,0.0,0.0,0.0,0.0,0.0,0.0,0.0,0.0,0.0,0.0,0.0,0.0,0.0,0.0,0.0,0.0,0.0,0.0,3.4258,3.4113,3.4382,3.3894,3.3679,3.3827,3.3172,3.2722,3.241,3.1823,3.1466,3.1292,3.0613,2.9946,2.9247,2.8444,2.8112,2.8079,2.7669,2.749,2.7523,2.7723,2.7901,2.8079,2.8235,2.843,2.8587,0.0,0.0,0.0,0.0,0.0,0.0,0.0,0.0,0.0,0.0,0.0,0.0,0.0,0.0,0.0,0.0,0.0,0.0,0.0,0.0,0.4774,0.5559,0.6325,0.7092,0.7859,0.8399,0.8899,0.9284,1.0067,1.0475,1.0513,1.1298,1.1669,1.1744,1.2341,1.2757,1.3013,1.3334,1.3877,1.4536,1.46,1.4909,1.5347,1.5347,1.5347,0.0,0.0,0.0,0.0,0.0,0.0,0.0,1.5602,1.5733,1.5778,1.5504,1.5737,0.0,0.0,0.0,0.0,0.0,0.0,0.0,0.0,0.0,0.0,0.0,0.0,0.0,0.0,0.0,0.0,0.0,0.0,0.0,0.0,0.0,0.0,0.0,0.0,0.0,0.0,0.0,0.0,0.0,0.0,0.0,3.4742,3.4258,3.3894,3.3643,3.3712,3.3585,3.321,3.3304,3.3076,0.0,3.2203,3.1796,3.1292,3.0613,2.9884,2.9117,2.8495,2.8183,2.8079,2.7669,2.749,2.7523,2.7723,2.7822,2.7888,2.8189,2.832,2.8398,0.0,0.0,0.0,0.0,0.0,0.0,0.0,0.0,0.0,0.0,0.0,0.0,0.0,0.0,0.0,0.0,0.0,0.0,0.0,0.0,0.4813,0.5712,0.6479,0.7169,0.7783,0.8284,0.8784,0.9284,0.9992,1.0406,1.0513,1.1335,1.1706,1.1744,1.2342,1.2725,1.2995,1.3337,1.382,1.4337,1.4489,1.4783,1.5155,1.5155,1.525,1.5389,1.5389,0.0,0.0,0.0,0.0,0.0,0.0,0.0,1.5182,1.4896,0.0,0.0,0.0,0.0,0.0,0.0,0.0,0.0,0.0,0.0,0.0,0.0,0.0,0.0,0.0,0.0,0.0,0.0,0.0,0.0,0.0,0.0,0.0,0.0,0.0,0.0,0.0,0.0,0.0,0.0,0.0,3.4337,3.3582,3.3163,3.2934,3.2865,3.2784,3.2866,3.3088,3.3006,3.2919,3.2823,3.2453,3.1894,3.1117,3.0403,2.9747,2.9166,2.8656,2.8314,2.8079,2.7769,2.759,2.749,2.7623,2.7723,2.7809,2.8006,2.8157,2.832,0.0,0.0,0.0,0.0,0.0,0.0,0.0,0.0,0.0,0.0,0.0,0.0,0.0,0.0,0.0,0.0,0.0,0.0,0.0,0.0,0.0,0.5856,0.6557,0.7215,0.7756,0.8223,0.8746,0.9284,0.9884,1.0255,1.0513,1.1335,1.1706,1.1744,1.2378,1.2746,1.2951,1.3479,1.3855,1.4079,1.439,1.4653,1.486,1.486,1.5057,1.5301,1.5301,1.5213,1.509,1.509,0.0,0.0,0.0,0.0,1.4511,1.4458,0.0,0.0,0.0,0.0,0.0,0.0,0.0,0.0,0.0,0.0,0.0,0.0,0.0,0.0,0.0,0.0,0.0,0.0,0.0,0.0,0.0,0.0,0.0,0.0,0.0,0.0,0.0,0.0,0.0,0.0,0.0,3.3414,3.2353,3.1966,3.1905,3.2104,3.1783,3.2,3.2834,3.256,3.2586,3.2897,3.2489,3.1851,3.1029,3.0237,2.9685,2.9279,2.883,2.8425,2.8079,2.7888,2.7689,2.749,2.749,2.759,2.7756,2.7776,2.8006,2.8268,0.0,0.0,0.0,0.0,0.0,0.0,0.0,0.0,0.0,0.0,0.0,0.0,0.0,0.0,0.0,0.0,0.0,0.0,0.0,0.0,0.0,0.5879,0.6643,0.7279,0.7715,0.8352,0.8858,0.9284,0.9733,1.0143,1.0513,1.1335,1.1706,1.1744,1.2526,1.2863,1.2936,1.3543,1.3985,1.4291,1.4509,1.4652,1.4719,1.4719,1.4847,1.4966,1.4966,1.5018,1.509,1.509,1.4671,0.0,0.0,0.0,0.0,0.0,0.0,0.0,0.0,0.0,0.0,0.0,0.0,0.0,0.0,0.0,0.0,0.0,0.0,0.0,0.0,0.0,0.0,0.0,0.0,0.0,0.0,0.0,0.0,0.0,0.0,0.0,0.0,0.0,0.0,0.0,3.3023,3.2781,3.2318,3.1966,3.1648,3.1362,3.15,3.1523,3.1385,3.2176,3.2434,3.2149,3.1916,3.1625,3.1219,3.0553,2.9901,2.9279,2.8931,2.8541,2.8079,2.7888,2.7689,2.749,2.749,2.7523,2.7556,2.7756,2.7921,2.8131,0.0,0.0,0.0,0.0,0.0,0.0,0.0,0.0,0.0,0.0,0.0,0.0,0.0,0.0,0.0,0.0,0.0,0.0,0.0,0.0,0.0,0.0,0.6671,0.7274,0.7676,0.8229,0.8804,0.9284,0.9582,0.9992,0.0,1.1223,1.1595,1.1744,1.2526,1.29,1.2936,1.3535,1.388,1.4051,1.4249,1.4447,1.4638,1.4538,1.4593,1.4796,1.4717,1.4518,1.4351,1.4223,1.3981,1.3627,1.3502,0.0,0.0,0.0,0.0,0.0,0.0,0.0,0.0,0.0,0.0,0.0,0.0,0.0,0.0,0.0,0.0,0.0,0.0,0.0,0.0,0.0,0.0,0.0,0.0,0.0,0.0,0.0,0.0,0.0,0.0,0.0,0.0,0.0,3.29,3.264,3.2318,3.1966,3.1614,3.121,3.1132,3.112,3.122,3.1433,3.1642,3.1888,3.1953,3.1796,3.1379,3.0777,3.0129,2.956,2.9166,2.8734,2.8373,2.8066,2.7855,2.7656,2.7523,2.749,2.749,2.759,2.7756,2.7967,0.0,0.0,0.0,0.0,0.0,0.0,0.0,0.0,0.0,0.0,0.0,0.0,0.0,0.0,0.0,0.0,0.0,0.0,0.0,0.0,0.0,0.0,0.0,0.7317,0.7728,0.8203,0.8721,0.9216,0.0,0.0,1.0443,1.0999,1.1409,0.0,1.2526,1.29,1.2936,0.0,1.3899,1.3899,1.4137,1.4356,1.4513,1.438,1.4441,1.4572,1.4503,1.4158,1.3777,1.3581,1.3333,1.3087,1.2836,0.0,0.0,0.0,0.0,0.0,0.0,0.0,0.0,0.0,0.0,0.0,0.0,0.0,0.0,0.0,0.0,0.0,0.0,0.0,0.0,0.0,0.0,0.0,0.0,0.0,0.0,0.0,0.0,0.0,0.0,0.0,0.0,0.0,3.2868,3.2607,3.2283,3.1983,3.1614,3.121,3.0875,3.0791,3.103,3.0729,3.1014,3.1794,3.1893,3.1799,3.1495,3.0896,3.0357,2.9853,2.9338,2.8908,2.8554,2.8243,2.7934,2.7723,2.7523,2.7436,2.7369,2.7436,2.7556,2.7756,0.0,0.0,0.0,0.0,0.0,0.0,0.0,0.0,0.0,0.0,0.0,0.0,0.5243,0.4932,0.4701,0.4659,0.0,0.0,0.0,0.0,0.0,0.0,0.0,0.0,0.7882,0.8342,0.8729,0.9011,0.0,0.0,1.0218,1.0625,1.1149,1.1744,1.2526,1.29,1.2936,0.0,0.0,1.4093,1.4453,1.4505,1.4421,0.0,0.0,0.0,0.0,1.4079,1.3777,1.3581,1.3121,1.255,0.0,0.0,0.0,0.0,0.0,0.0,0.0,0.0,0.0,0.0,0.0,0.0,0.0,0.0,0.0,0.0,0.0,0.0,0.0,0.0,0.0,0.0,0.0,0.0,0.0,0.0,0.0,0.0,0.0,0.0,0.0,0.0,0.0,0.0,3.2753,3.2489,3.2214,3.1947,3.1614,3.121,3.0875,3.0564,3.0254,3.0305,3.0819,3.1794,3.142,3.1346,3.1495,3.0896,3.0401,3.005,2.9383,2.8908,2.8554,2.8243,2.7868,2.749,2.7369,2.718,2.7045,2.7248,2.7403,2.7523,0.0,0.0,0.0,0.0,0.0,0.0,0.0,0.0,0.0,0.0,0.0,0.0,0.0,0.5243,0.5049,0.489,0.454,0.0,0.0,0.0,0.0,0.0,0.0,0.0,0.0,0.8363,0.0,0.0,0.0,0.9549,1.003,1.055,1.1037,1.1558,1.2342,1.2783,1.2936,1.3768,0.0,1.4129,1.4461,1.4569,1.4533,0.0,0.0,0.0,0.0,0.0,0.0,0.0,0.0,0.0,0.0,0.0,0.0,0.0,0.0,0.0,0.0,0.0,0.0,0.0,0.0,0.0,0.0,0.0,0.0,0.0,0.0,0.0,0.0,0.0,0.0,0.0,0.0,0.0,0.0,0.0,0.0,0.0,0.0,0.0,0.0,0.0,0.0,0.0,0.0,3.2388,3.2214,3.1857,3.1521,3.121,3.0875,3.0443,2.988,3.0167,3.0369,3.0522,3.0986,3.1082,3.0863,3.069,3.0431,3.005,2.9383,2.8958,2.8688,2.8262,2.7868,2.749,2.7335,2.718,2.7024,2.7079,2.7214,2.7403,0.0,0.0,0.0,0.0,0.0,0.0,0.0,0.0,0.0,0.5868,0.0,0.0,0.0,0.0,0.5282,0.5004,0.4774,0.4621,0.4701,0.5087,0.0,0.0,0.0,0.0,0.0,0.8225,0.0,0.0,0.0,0.0,0.0,1.0368,1.0887,1.1446,1.215,1.2636,0.0,0.0,0.0,1.4129,1.4533,1.4721,1.4677,0.0,0.0,0.0,0.0,0.0,0.0,0.0,0.0,0.0,0.0,0.0,0.0,0.0,0.0,0.0,0.0,0.0,0.0,0.0,0.0,0.0,0.0,0.0,0.0,0.0,0.0,0.0,0.0,0.0,0.0,0.0,0.0,0.0,0.0,0.0,0.0,0.0,0.0,0.0,0.0,0.0,0.0,0.0,0.0,0.0,3.209,3.1764,3.137,3.0992,3.0651,3.021,2.972,2.9835,2.9848,2.9732,3.0268,3.0495,3.0422,3.0309,3.0169,2.9974,2.9275,2.8912,2.8771,2.8216,2.7769,2.739,2.7121,2.693,2.6841,2.6794,2.693,2.7134,0.0,0.0,0.0,0.0,0.0,0.0,0.0,0.0,0.6064,0.6533,0.0,0.0,0.0,0.0,0.0,0.5054,0.5023,0.4948,0.4748,0.5098,0.5564,0.0,0.0,0.0,0.0,0.0,0.0,0.0,0.0,0.0,0.0,0.0,1.0625,1.1409,1.2003,1.2526,1.2936,0.0,1.4093,1.4165,0.0,1.4908,1.4908,0.0,0.0,0.0,1.4201,1.3695,0.0,1.2489,0.0,0.0,0.0,0.0,0.0,0.0,0.0,0.0,0.0,0.0,0.0,0.0,0.0,0.0,0.0,0.0,0.0,0.0,0.0,0.0,0.0,0.0,0.0,0.0,0.0,0.0,0.0,0.0,0.0,0.0,0.0,0.0,0.0,0.0,0.0,0.0,3.2284,3.2072,3.1818,3.1596,3.1176,3.0506,3.0167,2.9902,2.9697,2.9282,2.9257,2.9565,2.9306,2.9569,3.0254,2.9812,2.9662,2.9763,2.9075,2.8803,2.8739,2.8072,2.759,2.7235,2.6633,2.644,2.6487,2.6393,2.6543,2.676,0.0,0.0,0.0,0.0,0.0,0.0,0.5586,0.6001,0.6343,0.0,0.0,0.0,0.6569,0.6314,0.6003,0.5557,0.5522,0.5481,0.544,0.5679,0.6001,0.6427,0.6904,0.7382,0.7896,0.0,0.0,0.0,0.8673,0.8937,0.9397,0.996,0.0,0.0,1.1818,1.2378,1.2936,1.3768,0.0,1.4165,1.4685,1.4908,0.0,0.0,0.0,0.0,0.0,1.3695,1.3119,0.0,1.1929,1.1335,0.0,0.0,0.0,0.0,0.0,0.0,1.1353,0.0,0.0,0.0,0.0,0.0,0.0,0.0,0.0,0.0,0.0,0.0,0.0,0.0,0.0,0.0,0.0,0.0,0.0,0.0,0.0,0.0,0.0,0.0,0.0,0.0,0.0,0.0,3.1839,3.1671,3.1596,3.1157,3.0675,3.0146,2.9902,2.9614,2.9275,2.8873,2.8698,2.8737,2.8753,2.8913,2.9202,2.9377,2.9517,2.9616,2.9056,2.8578,2.8189,2.7756,2.7289,2.6816,2.653,2.6267,2.6072,2.6037,2.6233,2.6496,0.0,0.0,0.0,0.0,0.0,0.5235,0.5899,0.6299,0.6628,0.0,0.0,0.0,0.6719,0.6529,0.628,0.6034,0.5913,0.5874,0.5874,0.6034,0.6302,0.657,0.6922,0.7354,0.7748,0.7747,0.7938,0.8393,0.8441,0.8708,0.9203,0.9803,1.0443,0.0,0.0,0.0,0.0,0.0,0.0,0.0,1.482,0.0,0.0,1.515,1.5043,0.0,0.0,0.0,1.3346,1.2673,1.1855,0.0,0.0,0.0,0.0,0.0,0.0,0.0,0.0,0.0,0.0,0.0,0.0,0.0,1.5534,1.6541,1.7668,0.0,0.0,0.0,0.0,0.0,0.0,0.0,0.0,0.0,0.0,0.0,0.0,0.0,0.0,0.0,0.0,3.2488,3.241,3.241,3.1885,3.1398,3.0975,3.0572,3.0172,2.9804,2.9509,2.9236,2.8936,2.8566,2.8293,2.8152,2.8157,2.8248,2.8349,2.8453,2.8681,2.897,2.8379,2.7975,2.7676,2.7242,2.685,2.653,2.6117,2.5921,2.5875,2.5723,2.5886,2.6198,0.0,0.0,0.0,0.4525,0.5104,0.5636,0.6299,0.6656,0.6925,0.0,0.7031,0.6902,0.6808,0.6621,0.645,0.645,0.6286,0.6164,0.6164,0.6328,0.6502,0.6616,0.6797,0.709,0.753,0.7375,0.7549,0.807,0.8082,0.8403,0.9003,0.9614,1.0293,1.1074,0.0,0.0,0.0,0.0,0.0,1.4461,1.4991,1.5311,0.0,0.0,1.539,1.5169,1.4605,1.4181,1.3717,1.282,1.1781,0.0,0.0,0.0,0.0,0.0,1.003,0.0,0.0,0.0,0.0,0.0,0.0,0.0,1.4617,1.5498,1.6507,1.7726,0.0,0.0,0.0,0.0,0.0,0.0,0.0,0.0,0.0,0.0,0.0,0.0,0.0,0.0,3.2902,3.2937,3.2911,3.2911,3.2121,3.1232,3.0283,3.0014,2.9759,2.9469,2.9084,2.8794,2.859,2.8268,2.7989,2.774,2.7575,2.7513,2.7552,2.7267,2.7468,2.7982,2.7427,2.7177,2.7201,2.6598,2.6311,2.6242,2.5546,2.55,2.5735,2.5394,2.5465,2.5828,0.0,0.0,0.3941,0.4569,0.5235,0.5808,0.634,0.6786,0.7143,0.737,0.739,0.7362,0.733,0.7101,0.688,0.6752,0.6665,0.6668,0.6668,0.6711,0.676,0.6843,0.6886,0.6995,0.7201,0.7163,0.7388,0.788,0.8005,0.8403,0.9003,0.9463,0.0,0.0,0.0,0.0,0.0,0.0,0.0,1.4605,1.5026,0.0,1.5505,1.5505,1.547,1.5355,1.4784,1.4353,1.384,1.2556,1.1632,1.0962,0.0,0.0,0.0,0.9954,0.0,0.0,0.0,0.0,0.0,0.0,0.0,0.0,1.3825,1.4617,1.5463,0.0,0.0,0.0,0.0,0.0,0.0,0.0,0.0,0.0,0.0,0.0,0.0,0.0,0.0,0.0,3.1494,3.1637,3.1725,3.1725,3.147,3.1062,3.0546,3.0472,3.0049,2.9184,2.9,2.8591,2.7989,2.769,2.7463,2.731,2.7078,2.6869,2.6724,2.6708,2.6823,2.7006,2.6969,2.6889,2.6748,2.6211,2.5898,2.5746,2.5418,2.5182,2.5004,2.4933,2.5016,2.5194,0.0,0.0,0.4253,0.4746,0.5413,0.6033,0.634,0.6922,0.7367,0.7462,0.7635,0.7635,0.7507,0.737,0.719,0.6969,0.6966,0.6966,0.6966,0.6903,0.6877,0.6889,0.6854,0.6829,0.696,0.7035,0.7236,0.7509,0.7919,0.8289,0.8703,0.0,0.0,0.0,0.0,0.0,0.0,0.0,1.3829,1.4395,1.4953,0.0,1.578,1.578,1.5753,1.5576,1.507,1.4425,1.3666,1.2746,1.1966,0.0,0.0,1.0588,1.0331,0.0,1.0105,1.0255,0.0,0.0,0.0,1.1595,0.0,0.0,0.0,1.3789,1.4573,1.5313,0.0,0.0,0.0,0.0,0.0,0.0,0.0,0.0,0.0,0.0,0.0,0.0,0.0,0.0,3.1048,3.127,3.1226,3.0792,3.0698,3.0402,2.9781,2.9686,2.9278,2.8491,2.8266,2.7865,2.7269,2.7049,2.6867,2.6762,2.6604,2.6354,2.595,2.5925,2.5908,2.5948,2.6026,2.6017,2.5893,2.5566,2.5218,2.4909,2.479,2.4658,2.4502,2.4381,2.4478,2.4599,0.0,0.0,0.0,0.5053,0.5725,0.6257,0.6476,0.7143,0.7595,0.7683,0.783,0.7807,0.7592,0.0,0.0,0.0,0.7054,0.7011,0.7011,0.6906,0.6871,0.6844,0.6722,0.6671,0.6723,0.6951,0.7081,0.7142,0.7795,0.8217,0.0,0.0,0.0,0.0,0.0,0.0,0.0,0.0,0.0,1.4072,0.0,1.5383,1.5878,1.5913,1.5774,1.5574,1.5103,1.4257,1.3352,1.2976,1.2364,1.1636,1.1279,1.0925,0.0,0.0,0.0,0.0,0.0,0.0,0.0,0.0,0.0,1.2194,0.0,0.0,0.0,0.0,0.0,0.0,0.0,0.0,0.0,0.0,0.0,0.0,0.0,0.0,0.0,0.0,0.0,0.0,3.041,3.072,3.0587,2.9871,2.987,2.958,2.8928,2.8771,2.8425,2.782,2.7482,2.7111,2.6617,2.6408,2.6203,2.6109,2.6109,2.5797,2.5231,2.509,2.5001,2.5018,2.5051,2.5011,2.4932,2.492,2.4563,2.4043,2.408,2.4043,2.4007,2.3787,2.3861,2.4018,0.4164,0.4435,0.0,0.0,0.6033,0.652,0.6962,0.7496,0.0,0.0,0.0,0.0,0.0,0.0,0.0,0.0,0.0,0.0,0.6749,0.0,0.6664,0.6569,0.6549,0.647,0.6366,0.674,0.6922,0.6942,0.7718,0.8217,0.0,0.0,0.0,0.0,1.085,0.0,0.0,0.0,1.3286,0.0,1.4272,1.472,0.0,1.5173,1.514,1.4901,1.4205,1.3569,1.3014,0.0,1.2309,1.1735,0.0,1.1223,1.0962,1.0588,0.0,0.0,0.0,0.0,0.0,0.0,1.1446,0.0,0.0,0.0,1.2856,1.3258,0.0,0.0,0.0,0.0,0.0,0.0,0.0,0.0,0.0,0.0,0.0,0.0,0.0,0.0,0.0,2.8698,2.8969,2.8882,2.9021,2.9021,2.8837,2.8805,2.8484,2.782,2.7311,2.6819,2.634,2.5786,2.5467,2.5328,2.5328,2.5076,2.4595,2.4452,2.4374,2.4307,2.4512,2.4471,2.4314,2.4483,2.4116,2.3409,2.3593,2.3567,2.3372,2.3187,2.3224,2.3409,0.43,0.4835,0.0,0.0,0.0,0.0,0.0,0.0,0.0,0.0,0.0,0.0,0.0,0.0,0.0,0.0,0.0,0.7033,0.0,0.0,0.0,0.6835,0.6785,0.6702,0.6641,0.6945,0.7061,0.7061,0.7757,0.814,0.0,0.0,0.0,0.0,1.0775,0.0,1.1857,0.0,1.3085,0.0,0.0,0.0,0.0,1.5035,1.5106,1.4837,1.442,1.3866,1.3297,0.0,1.251,0.0,0.0,0.0,0.0,0.0,0.0,0.0,0.0,0.0,0.0,0.0,0.0,0.0,1.1595,0.0,1.2305,0.0,0.0,0.0,0.0,0.0,0.0,0.0,1.761,0.0,0.0,0.0,0.0,0.0,0.0,0.0,0.0,0.0,0.0,0.0,2.7105,2.7165,2.7224,2.7224,2.7064,2.6654,2.6123,2.5744,2.5491,2.4918,2.4666,2.4666,2.4666,2.4478,2.4157,2.3969,2.3731,2.3466,2.3946,2.3878,2.3476,2.3808,2.3629,2.3075,2.2703,2.259,2.2628,2.2628,2.2628,2.2628,0.4699,0.0,0.0,0.0,0.0,0.0,0.0,0.0,0.0,0.0,0.0,0.0,0.7959,0.7777,0.0,0.0,0.7311,0.727,0.0,0.0,0.7083,0.0,0.0,0.0,0.6903,0.7103,0.7219,0.7296,0.7834,0.814,0.0,0.0,0.0,0.0,0.0,1.1321,1.1702,0.0,0.0,1.2925,1.3578,1.4005,1.4243,1.4867,1.4956,1.4693,1.4414,1.3931,1.3403,1.3096,1.2621,0.0,1.1957,0.0,0.0,0.0,0.0,0.0,1.0999,0.0,0.0,0.0,0.0,0.0,0.0,0.0,0.0,0.0,0.0,0.0,0.0,0.0,0.0,0.0,0.0,0.0,0.0,0.0,0.0,0.0,0.0,0.0,0.0,0.0,0.0,2.498,2.5169,2.5322,2.5475,2.558,2.5583,2.5509,2.4925,2.4652,2.4697,2.4082,2.3826,2.3972,2.3972,2.3852,2.3611,2.342,2.3165,2.2936,2.3413,2.3374,2.2972,2.3318,2.315,2.2703,2.2063,2.1759,2.1721,2.1997,2.1987,2.1959,0.5675,0.5675,0.0,0.0,0.0,0.0,0.0,0.0,0.0,0.0,0.0,0.0,0.0,0.0,0.0,0.0,0.0,0.72,0.72,0.0,0.6988,0.0,0.0,0.6903,0.0,0.7103,0.7296,0.7484,0.791,0.8289,0.0,0.0,0.0,0.0,0.0,1.1178,1.1361,1.2112,1.2447,1.256,1.3255,1.3971,1.4656,0.0,1.4342,1.4243,1.3705,0.0,0.0,1.3012,1.2569,0.0,0.0,0.0,0.0,0.0,0.0,0.0,0.0,0.0,0.0,1.1111,0.0,0.0,0.0,0.0,1.1149,0.0,0.0,0.0,0.0,0.0,0.0,0.0,0.0,0.0,0.0,0.0,0.0,0.0,0.0,0.0,0.0,0.0,2.2999,2.2988,2.3514,2.3854,2.3854,2.4228,2.4552,2.4719,2.4096,2.389,2.4226,2.3381,2.3,2.3125,2.3125,2.3078,2.2939,2.2714,2.2719,2.2879,2.2923,2.2972,2.31,2.3062,2.2665,2.2111,2.1883,2.1339,2.0683,2.1089,2.1359,2.1512,0.0,0.0,0.0,0.0,0.0,0.0,0.0,0.9002,0.0,0.0,0.0,0.0,0.0,0.8098,0.7983,0.0,0.0,0.7795,0.7795,0.7718,0.0,0.0,0.0,0.7676,0.0,0.0,0.7834,0.791,0.8178,0.0,0.0,0.0,0.0,0.0,0.0,1.1569,0.0,0.0,0.0,0.0,0.0,1.427,1.4686,0.0,0.0,1.4389,1.3971,1.361,0.0,1.2966,1.2672,1.235,1.2127,1.2004,1.1857,1.1544,1.153,0.0,0.0,0.0,1.1298,1.1298,0.0,0.0,0.0,0.0,0.0,0.0,0.0,0.0,0.0,0.0,0.0,0.0,0.0,0.0,0.0,0.0,0.0,0.0,0.0,0.0,0.0,0.0,0.0,2.1469,2.1697,2.2,2.2462,2.2611,2.2957,2.357,2.3157,2.3064,2.3325,2.2846,2.2541,2.2482,2.2482,2.2482,2.2432,2.2235,2.2039,2.1925,2.2483,2.2514,2.2253,2.2637,2.2515,2.2063,2.1578,2.1079,2.0644,2.0915,2.0876,2.0731,0.7139,0.0,0.0,0.0,0.0,0.0,0.0,0.0,0.0,0.0,0.8876,0.0,0.8536,0.0,0.8484,0.0,0.8403,0.8403,0.8403,0.8365,0.0,0.8403,0.8289,0.0,0.0,0.0,0.0,0.0,0.0,0.8665,0.0,0.0,0.0,0.0,0.0,1.1755,1.1969,0.0,1.2936,0.0,0.0,1.4508,0.0,0.0,1.4636,1.4529,0.0,1.389,1.3541,1.3186,1.2867,1.2538,1.231,1.2102,1.1949,1.1685,1.1648,1.1598,1.1394,1.1274,0.0,1.1124,1.1083,0.0,1.0972,0.0,0.0,0.0,0.0,0.0,0.0,0.0,0.0,0.0,0.0,0.0,0.0,1.4048,0.0,0.0,0.0,0.0,0.0,0.0,1.9383,1.9777,2.0099,2.0498,0.0,0.0,2.1652,2.2327,2.2155,2.2259,2.265,2.2215,2.2048,2.2084,2.1957,2.1894,2.1831,2.1706,2.1599,2.1541,2.19,2.2036,2.2006,2.2233,2.2179,2.1845,2.131,2.0799,2.0372,2.0595,2.045,2.0186,0.0,0.0,0.0,0.0,0.9423,0.0,0.0,0.0,0.9908,0.0,0.9448,0.9322,0.9322,0.9322,0.9241,0.9041,0.9003,0.9003,0.9003,0.8851,0.0,0.0,0.8665,0.8441,0.8441,0.0,0.0,0.0,0.0,0.0,0.0,0.0,0.0,0.0,1.1484,0.0,1.1969,1.2721,1.3033,1.3133,1.4121,1.4725,1.5,1.5009,1.4902,1.4686,1.4407,1.4079,1.3769,1.3571,1.3094,1.2621,1.259,1.2342,1.2014,1.1981,1.1703,1.1437,1.1403,1.1101,1.0805,1.0673,0.0,0.0,0.0,0.0,1.0479,0.0,0.0,0.0,0.0,0.0,0.0,0.0,0.0,0.0,0.0,0.0,0.0,0.0,0.0,0.0,0.0,1.7391,1.7917,1.7917,1.8727,0.0,0.0,0.0,2.0624,2.1128,2.1213,2.1554,2.2136,2.1559,2.1475,2.1861,2.1516,2.1305,2.1169,2.1169,2.1358,2.1606,2.1252,2.1524,2.2168,2.1792,2.1575,2.1433,2.1029,2.0459,1.9902,2.0147,2.0108,1.9863,0.8281,0.903,0.9685,0.0,0.9946,0.9957,0.0,0.0,0.0,0.0,0.9694,0.9695,0.9549,0.9511,0.9435,0.9246,0.9241,0.0,0.0,0.0,0.0,0.9203,0.9127,0.9056,0.9056,0.9018,0.0,0.9132,0.0,0.0,0.9846,0.0,0.0,0.0,0.0,0.0,1.2301,1.3057,1.3518,1.3799,1.441,1.4784,0.0,0.0,1.5127,1.5029,1.4606,1.424,1.3881,1.3601,1.3216,1.2867,1.2652,1.2429,1.2148,1.1811,1.1783,1.1791,1.1534,1.1357,1.1252,1.1183,1.0965,1.0674,0.0,0.0,0.0,0.0,0.0,0.0,0.0,0.0,0.0,0.0,0.0,0.0,0.0,0.0,0.0,0.0,0.0,0.0,0.0,1.6353,1.6722,1.7025,1.757,0.0,0.0,0.0,0.0,2.0216,2.0604,2.0946,2.1314,2.1151,2.1152,2.1308,2.086,2.0722,2.083,2.083,2.0714,2.0533,2.0775,2.0845,2.0805,2.0793,2.0886,2.0917,2.0381,1.9976,1.9676,1.9587,1.9499,1.946,0.899,0.0,0.0,1.0679,0.0,0.0,1.0476,0.0,0.0,1.0209,1.0176,0.0,0.9992,0.9992,0.9954,0.9846,0.9809,0.0,0.9809,0.0,0.0,0.9809,0.9733,0.9695,0.9695,0.962,0.0,0.9695,0.0,0.0,1.0293,0.0,0.0,0.0,0.0,1.2657,0.0,1.3226,1.3726,1.413,1.4636,0.0,0.0,1.5235,1.5264,1.5186,1.4902,1.4538,1.4181,1.3821,1.3489,1.3186,1.2958,1.2683,1.2375,1.212,1.1975,1.1855,1.16,1.1444,1.1306,1.1115,1.0908,1.0729,1.056,1.0311,1.0124,0.0,0.0,0.0,0.0,0.0,0.0,0.0,0.0,0.0,0.0,0.0,0.0,0.0,0.0,0.0,0.0,0.0,1.565,1.609,0.0,0.0,0.0,0.0,0.0,1.9469,1.9932,2.043,2.0943,2.0726,2.0706,2.0915,2.0434,2.0205,2.0237,2.0302,2.0194,1.99,2.017,2.0217,2.0099,2.0142,2.016,2.0102,1.9656,1.9457,1.932,1.9192,1.9152,1.9152,0.9777,0.0,0.0,0.0,0.0,0.0,0.0,1.1315,0.0,1.1058,0.0,1.0663,1.0625,1.0625,1.0625,1.0588,0.0,1.0588,1.0588,1.0588,1.0588,1.0588,1.0406,1.0293,1.0293,1.0067,1.0067,0.0,0.0,0.0,0.0,0.0,0.0,0.0,0.0,0.0,0.0,1.3314,1.3791,1.4249,1.4793,1.5098,1.5215,1.5362,1.5332,1.5215,1.5215,1.4902,1.4478,1.4151,1.3821,1.348,1.3354,1.3019,1.266,1.2621,1.2274,1.1872,1.1716,1.1498,1.1247,1.0839,1.0845,1.087,1.0508,1.0358,1.0293,1.0258,1.0013,0.9759,0.0,0.0,0.0,0.0,0.0,0.0,0.0,0.0,0.0,0.0,0.0,0.0,0.0,0.0,0.0,0.0,0.0,0.0,0.0,0.0,0.0,1.8794,1.9253,1.9874,2.0712,0.0,2.017,2.0588,2.0018,1.9671,1.9572,1.9736,1.9704,1.9539,1.9506,1.9538,1.9641,1.9572,1.9374,1.9102,1.9014,1.8964,1.893,1.8944,1.8922,1.8882,0.0,0.0,0.0,0.0,0.0,1.2747,1.2355,1.2008,1.1784,1.1746,1.1583,1.1446,1.126,1.1223,1.1186,1.0999,1.0999,0.0,0.0,0.0,0.0,1.0999,1.0812,1.07,1.07,1.0513,1.0475,0.0,0.0,0.0,0.0,0.0,0.0,0.0,0.0,0.0,1.3212,1.3593,0.0,1.4249,1.4793,1.5098,1.5215,1.5362,1.5381,1.5362,1.5235,1.4902,1.4499,1.444,1.4022,1.3511,1.348,1.3216,1.2897,1.2652,1.2529,1.2406,1.2089,1.1778,1.1529,1.1435,1.1133,1.0787,1.0603,1.0418,1.0258,1.0096,1.018,1.0202,0.9906,0.0,0.0,0.0,0.0,0.0,0.0,0.0,0.0,0.0,0.0,0.0,0.0,0.0,0.0,0.0,0.0,0.0,0.0,0.0,0.0,0.0,1.8536,0.0,0.0,0.0,1.9558,1.9955,1.9305,1.9108,1.9351,1.9274,1.9208,1.9175,1.9008,1.8859,1.8704,1.8422,1.8205,1.8131,1.8751,1.879,1.8521,1.8696,1.8652,1.8523,0.0,0.0,0.0,0.0,0.0,0.0,0.0,1.2802,0.0,1.2196,1.2073,1.1966,1.1892,1.1855,1.1818,1.1744,1.1706,1.1669,1.1558,1.1558,1.1521,1.1409,1.1335,0.0,1.126,1.1186,1.1186,1.126,0.0,0.0,0.0,0.0,0.0,0.0,0.0,1.3222,0.0,0.0,0.0,1.4478,1.4852,1.5176,1.5478,1.5517,1.5604,1.5662,1.5595,1.5313,1.4942,1.4677,1.435,1.3992,1.3911,1.358,1.3216,1.3094,1.295,1.2744,1.2436,1.2251,1.2058,1.1778,1.1466,1.1185,1.0996,1.0744,1.0523,1.0333,1.0316,1.0321,1.017,1.0174,0.0,0.0,0.0,0.0,0.0,0.0,0.0,0.0,0.0,0.0,0.0,0.0,0.0,0.0,0.0,0.0,0.0,0.0,0.0,0.0,0.0,0.0,0.0,0.0,0.0,1.9486,1.8858,1.864,1.8885,1.8808,1.8774,1.8774,1.8684,1.8482,1.8212,1.7759,1.7672,1.7811,1.8009,1.815,1.824,1.8241,1.8236,1.8201,0.0,1.3009,0.0,0.0,1.3539,0.0,1.3809,1.3507,1.3089,1.2644,1.2492,1.2415,1.2415,1.2415,1.2415,1.2415,1.2355,1.2241,1.2101,1.2035,1.1893,1.1747,1.1711,1.17,1.1765,1.1728,1.1797,0.0,0.0,0.0,0.0,0.0,0.0,0.0,0.0,0.0,0.0,0.0,1.424,1.4715,1.499,1.5323,1.5701,1.573,1.5798,1.5885,1.5885,1.573,1.5449,1.5069,1.4765,1.4499,1.433,1.3971,1.3631,1.3571,1.3338,1.3042,1.2797,1.2713,1.2529,1.2089,1.1872,1.1685,1.1459,1.1178,1.0933,1.0776,1.0523,1.0373,1.0431,1.0329,0.0,0.0,0.0,0.0,0.0,0.0,0.0,0.0,0.0,0.0,0.0,0.0,0.0,0.0,0.0,1.4412,1.511,1.5665,1.6245,0.0,0.0,1.8161,1.8803,0.0,1.8498,1.8966,1.8408,1.8202,1.8337,1.8313,1.8313,1.8337,1.8313,1.811,1.7794,1.7348,1.7292,1.7537,1.7225,1.7464,1.7896,1.7847,1.7873,1.8,0.0,0.0,0.0,0.0,0.0,0.0,1.3722,1.389,1.3892,1.3279,1.3014,1.2826,1.2826,1.2826,1.2826,1.2826,1.2569,1.2366,1.2366,1.2075,1.1916,1.1881,1.171,1.1763,1.2075,1.1862,1.2031,0.0,0.0,1.2295,0.0,0.0,0.0,0.0,0.0,0.0,0.0,1.4189,1.4529,1.4745,1.5177,1.5488,1.5701,1.5827,1.5885,1.5885,1.5885,1.5885,1.5856,1.5798,1.5284,1.4647,1.4538,1.433,1.41,1.3851,1.361,1.342,1.3268,1.3003,1.2744,1.256,1.2375,1.2151,1.1833,1.1622,1.1466,1.1272,1.087,1.0568,1.0563,1.0458,1.0346,0.0,0.0,0.0,0.0,0.0,0.0,0.0,0.0,0.0,0.0,1.1552,0.0,0.0,1.3642,1.413,1.4215,1.4992,1.5692,1.617,0.0,1.7676,1.808,1.8094,1.8156,1.8184,1.7797,1.7666,1.7774,1.7666,1.7666,1.7774,1.7666,1.7461,1.727,1.7003,1.6848,1.6737,1.6884,1.7065,1.7337,1.7665,1.7873,1.8,0.0,0.0,0.0,0.0,0.0,0.0,0.0,1.4282,1.4234,1.4006,1.3777,1.3622,1.3622,1.3622,1.3512,1.3285,1.3153,1.2914,1.2613,1.2448,1.2342,1.2207,1.2132,1.212,1.2282,1.2185,1.2276,0.0,0.0,0.0,0.0,0.0,0.0,0.0,0.0,1.3556,1.3731,1.427,1.4656,1.4902,1.5274,1.5575,1.5827,1.5961,1.6105,1.6202,1.6202,1.6116,1.6009,1.6009,1.5623,1.5118,1.5059,1.4736,1.4359,1.424,1.4031,1.3731,1.348,1.3329,1.3155,1.2889,1.2652,1.2428,1.2313,1.2089,1.1809,1.1529,1.1185,1.087,1.0744,1.0623,1.0529,0.0,0.0,0.0,0.0,0.0,0.0,0.0,0.0,0.0,0.0,0.0,0.0,0.0,0.0,1.3644,1.4082,1.4831,1.5367,1.565,0.0,1.7188,1.7635,1.7488,1.7634,1.8072,1.7444,1.7289,1.7588,1.7539,1.7529,1.7554,1.7289,1.7081,1.7003,1.6656,1.6482,1.6421,1.6404,1.6595,1.6878,1.7156,1.7458,1.7732,1.4822,0.0,1.4827,0.0,1.4728,1.4501,1.4661,1.4655,1.4641,1.4641,1.4525,1.4382,1.4274,1.4238,1.4106,1.3696,1.3581,1.3305,1.2828,1.2681,1.2596,1.2457,1.2424,0.0,1.2565,1.2539,1.2584,1.2714,1.2725,0.0,0.0,0.0,0.0,0.0,1.3517,1.3731,1.4031,1.4449,1.4834,1.5137,1.542,1.572,1.599,1.6124,1.6278,1.6413,1.6413,1.6306,1.6181,1.6181,1.5941,1.5584,1.5439,1.5118,1.4765,1.4686,1.4419,1.4091,1.3872,1.3722,1.3571,1.3224,1.3011,1.2828,1.2744,1.2467,1.2151,1.1747,1.1435,1.1185,1.0996,1.0776,1.066,1.0666,0.0,0.0,0.0,0.0,0.0,0.0,1.1186,1.1149,1.1111,0.0,0.0,0.0,0.0,0.0,1.3649,1.4358,0.0,0.0,0.0,0.0,0.0,1.6965,1.7122,1.7557,1.7052,1.6968,1.7254,1.7254,1.7185,1.7116,1.6839,1.6735,1.67,1.6377,1.6237,1.6237,1.6061,1.6234,1.6579,1.6819,1.715,1.7565,1.5227,1.52,1.511,1.4834,1.4942,1.5054,1.4928,1.507,1.5196,1.5196,1.5204,1.5026,1.4641,1.4605,1.4462,1.4106,1.3791,1.3416,1.3011,1.2688,1.2498,0.0,0.0,1.2664,1.298,1.2859,1.3031,1.35,0.0,0.0,1.3276,0.0,1.3172,1.3519,1.3709,1.4061,1.4499,1.4843,1.5137,1.541,1.5759,1.599,1.6114,1.6316,1.6413,1.6413,1.6413,1.6413,1.6413,1.6413,1.6249,1.6028,1.5555,1.5381,1.5332,1.5079,1.4754,1.4499,1.4499,1.424,1.3911,1.3571,1.3472,1.339,1.3072,1.2775,1.2436,1.1903,1.1685,1.1529,1.1334,1.1021,1.0744,1.0624,0.0,0.0,0.0,0.0,0.0,0.0,1.1409,1.1335,1.1111,0.0,0.0,0.0,0.0,0.0,0.0,0.0,0.0,1.4617,1.5774,0.0,1.6214,1.6676,1.6721,1.6328,1.651,1.6603,1.6603,1.6603,1.6508,1.6307,1.6316,1.6316,1.6307,1.6167,1.6096,1.6061,1.5867,1.6064,1.6433,1.6781,1.715,1.7565,1.549,1.5381,1.5328,1.5412,1.5288,1.5201,1.53,1.547,1.5647,1.5815,1.5885,1.5808,1.5403,1.4945,1.4494,0.0,1.3794,1.3436,0.0,1.2893,1.2828,1.2828,1.2828,1.2885,1.2998,1.2975,1.2993,1.3177,0.0,0.0,0.0,1.3358,1.3519,1.3851,1.4151,1.435,1.4529,1.504,1.5332,1.5439,1.5855,1.6066,1.6114,1.6316,1.6459,1.6534,1.6431,1.6459,1.6534,1.6431,1.6374,1.6249,1.597,1.5671,1.5381,1.5303,1.5079,1.4813,1.4686,1.4306,1.3872,1.3622,1.3217,1.2834,1.2635,1.2372,1.2236,1.232,1.2027,1.1685,1.1529,1.1303,1.109,1.0965,1.0996,0.0,0.0,0.0,0.0,1.1601,1.1595,1.1521,0.0,1.1446,0.0,0.0,0.0,0.0,0.0,0.0,0.0,0.0,1.5016,0.0,1.567,1.5924,1.6161,1.6291,1.6271,1.6307,1.6412,1.6412,1.6377,1.6272,1.607,1.5973,1.5929,1.5603,1.5488,1.5488,1.5426,1.5457,1.5668,1.6409,1.6797,1.6983,1.5677,1.5645,1.5634,1.5721,1.5612,1.5603,1.578,1.5894,1.607,1.6263,1.6368,1.6349,1.6167,1.551,0.0,1.4316,1.4102,1.3805,1.3402,1.3376,1.3376,1.3376,1.3376,1.3376,1.3376,1.3316,0.0,1.3376,1.3376,1.3498,1.3692,1.3692,1.3881,1.421,1.4419,1.4597,1.4775,1.5206,1.5478,1.5633,1.597,1.6142,1.6239,1.642,1.6524,1.6578,1.6364,1.6329,1.637,1.6112,1.5977,1.5911,1.579,1.5502,1.5186,1.5213,1.5099,1.484,1.4497,1.4129,1.3774,1.3588,1.3175,1.2783,1.2625,1.2468,1.2389,1.2549,1.2344,1.2027,1.184,1.1591,1.1404,1.131,1.1311,1.1387,1.1594,0.0,0.0,0.0,0.0,0.0,0.0,1.1632,1.1632,0.0,0.0,0.0,0.0,0.0,0.0,1.3649,1.4578,0.0,1.508,1.5493,1.5756,1.5897,1.6033,1.6132,1.6202,1.6202,1.6132,1.5991,1.5788,1.5647,1.5576,1.5311,1.5204,1.5204,1.5204,1.5287,1.5477,1.6305,1.6691,1.694,1.5827,1.59,1.5981,0.0,1.6,0.0,1.6307,1.6342,1.6447,1.6647,1.6673,1.6707,1.6872,1.6217,1.5506,1.4742,0.0,0.0,0.0,1.404,1.404,1.404,1.404,1.404,1.404,1.392,1.392,1.404,1.404,1.404,1.404,1.404,1.421,1.4538,1.4558,1.4804,1.5215,1.5391,1.5633,1.5943,1.6066,1.6239,1.6431,1.6552,1.6578,1.6532,1.621,1.6084,1.5988,1.5558,1.5331,1.5216,1.5216,1.5049,1.4859,1.4959,1.4885,1.4648,1.4077,1.3827,1.3638,1.3457,1.3267,1.3086,1.294,1.2891,1.2827,1.2694,1.2652,1.2529,1.2189,1.1872,1.1654,1.1622,1.1589,1.168,1.2009,0.0,0.0,0.0,0.0,0.0,0.0,1.1781,1.1781,0.0,0.0,0.0,0.0,0.0,1.3213,1.341,1.4453,1.4889,1.4575,1.5311,1.5506,1.524,1.5815,1.6061,1.6061,1.6061,1.585,1.5505,1.5461,1.5355,1.5169,1.5169,1.5169,1.5169,1.5193,1.538,1.5725,1.6376,1.6867,1.7268,0.0,0.0,1.621,1.6193,1.6342,1.6542,1.6726,1.6899,1.7072,1.7254,1.7289,1.7201,1.6934,1.6727,1.6303,1.559,1.49,1.4489,1.4389,1.438,1.438,1.438,1.438,1.438,1.438,1.4359,1.4359,1.438,1.438,1.444,1.4529,1.4529,1.4656,1.4872,1.5098,1.5235,1.5391,1.5768,1.597,1.6066,1.6249,1.642,1.6552,1.6581,1.65,1.6347,1.6175,1.5935,1.5693,1.5467,1.5383,1.5357,1.5357,1.5243,1.507,1.491,1.4727,1.4546,1.441,1.3959,1.3533,1.3497,1.2924,1.2492,1.3004,1.2889,1.28,1.3194,1.3072,1.2836,1.2529,1.2282,1.2089,1.1996,1.2133,1.2296,1.2376,1.2586,0.0,0.0,1.2709,1.2599,1.2415,1.2526,1.2562,0.0,0.0,0.0,0.0,1.3271,1.3425,1.3462,1.4043,1.4373,1.4442,1.4876,1.5196,1.5426,1.5726,1.5867,1.5867,1.5718,1.5603,1.547,1.5185,1.5007,1.4971,1.482,1.4748,1.4772,1.5089,1.525,1.5439,1.6445,1.689,1.7054,1.6342,1.6447,1.6586,1.6691,1.6864,1.7038,1.7151,1.7314,1.751,1.7701,1.7803,1.7818,1.7662,1.7457,1.721,1.6784,1.5739,1.5031,1.4922,1.4913,1.4913,1.4913,1.4913,1.4883,1.4813,1.4813,1.4784,1.4725,1.4725,1.4813,1.4931,1.4931,1.5079,1.5323,1.5459,1.5575,1.5662,1.6066,1.6239,1.6278,1.6477,1.662,1.6662,1.6517,1.6394,1.6251,1.581,1.5538,1.534,1.5024,1.4899,1.485,1.485,1.4751,1.4626,1.4476,1.4384,1.4275,1.3987,1.3656,1.3352,1.3238,1.2849,1.2623,1.3201,1.3113,1.3024,1.3595,1.3558,1.3285,1.2981,1.2767,1.2582,1.2428,1.2525,1.263,1.263,1.2731,0.0,1.2791,1.2721,1.2615,1.2437,1.2579,1.2615,1.2437,1.2821,0.0,1.3236,1.3592,1.3746,1.3645,1.4036,1.4281,1.4389,1.482,1.5177,1.5505,1.5691,1.582,1.5874,1.5793,1.5741,1.5708,1.5495,1.5348,1.5266,1.5155,1.511,1.5133,1.5332,1.5507,1.5774,1.6581,1.6994,1.7239,1.6716,1.6864,1.7047,1.721,1.7426,1.7573,1.7573,1.7725,1.7886,1.8042,1.8212,1.8371,1.8482,1.8197,1.8001,1.7963,1.6868,1.6024,1.5596,1.5566,1.5547,1.5478,1.5478,1.543,1.5303,1.5303,1.5244,1.5147,1.5147,1.5186,1.5303,1.5303,1.5478,1.5759,1.5788,1.5885,1.6029,1.6316,1.6459,1.6488,1.6705,1.6775,1.6686,1.6401,1.6219,1.6035,1.535,1.5061,1.4954,1.4562,1.435,1.4246,1.4246,1.414,1.4033,1.4033,1.4045,1.3959,1.3449,1.3266,1.317,1.2983,1.2969,1.3134,1.3523,1.3523,1.3552,1.4037,1.404,1.3821,1.348,1.3285,1.3103,1.2928,1.2877,1.2883,1.2891,0.0,1.2815,1.2815,1.2646,1.2477,1.2383,1.2444,1.2444,1.2349,1.2964,1.3394,1.3437,1.3917,1.4173,1.4008,1.4253,1.4397,1.4433,1.4919,1.524,1.547,1.5715,1.591,1.5987,1.6045,1.6013,1.5996,1.5958,1.5873,1.5712,1.5712,1.5712,1.572,1.5776,1.5944,1.6254,1.6786,1.7168,1.7514,1.7358,1.7392,1.7436,1.747,1.7701,1.7906,1.7906,1.8178,1.8381,1.8414,1.8448,1.8482,1.8516,1.8455,1.8387,1.8316,1.8119,1.7563,1.6497,1.6407,1.6246,1.5837,1.5827,1.5827,1.5798,1.5798,1.5769,1.5769,1.5769,1.5769,1.5798,1.5798,1.5875,1.6056,1.623,1.6363,1.6495,1.6666,1.6733,1.6733,1.6779,1.6629,1.6375,1.631,1.5888,1.5263,1.5135,1.4915,1.4657,1.4603,1.4557,1.4546,1.4546,1.4373,1.4176,1.4176,1.4099,1.3963,1.376,1.3539,1.3338,1.3194,1.3362,1.3694,1.4076,1.4287,1.4487,1.4778,1.4695,1.4419,1.3971,1.386,1.3709,1.3307,1.3331,1.3347,1.3244,0.0,1.3367,1.3367,1.3233,1.3132,1.3132,1.299,1.2897,1.2897,1.3397,1.3797,1.3978,1.4486,1.4856,1.4991,1.4605,1.4461,1.4569,1.4828,1.5043,1.524,1.5797,1.6018,1.5995,1.6163,1.6147,1.5996,1.5835,1.572,1.5712,1.5712,1.5712,1.5744,1.6007,1.6158,1.6285,1.7033,1.7342,1.7514,1.7588,1.7691,1.7803,1.7906,1.811,1.8279,1.8279,1.8482,1.8717,1.8808,1.8875,1.8975,1.9075,1.9075,1.9092,1.9036,1.9048,1.8689,1.7895,1.7385,1.6981,1.6784,1.6516,1.6363,1.6278,1.6163,1.6105,1.6105,1.6105,1.6163,1.6278,1.6278,1.6353,1.6495,1.6563,1.6648,1.6722,1.6853,1.6909,1.6909,1.7043,1.6807,1.6396,1.6214,1.5742,1.518,1.4988,1.485,1.4707,1.4707,1.4707,1.4707,1.4707,1.4627,1.4523,1.4523,1.4267,1.3997,1.3915,1.3821,1.3754,1.3872,1.4014,1.4277,1.4821,1.4932,1.5005,1.5313,1.5225,1.4981,1.4606,1.4547,1.4369,1.3881,1.3787,0.0,0.0,1.3524,1.3465,1.341,1.3347,1.3219,1.3044,1.3004,1.2972,1.2908,1.3387,1.3824,1.4093,1.4527,1.4909,1.5196,1.4955,1.4848,1.4919,1.5106,1.5256,1.5355,1.5956,1.628,1.6325,1.6503,1.6581,1.6563,1.6325,1.6246,1.6246,1.6246,1.6246,1.6261,1.6428,1.6565,1.675,1.7204,1.7554,1.7797,1.7852,1.7998,1.8178,1.8303,1.8482,1.8583,1.864,1.8818,1.8975,1.9208,1.9318,1.944,1.9572,1.9605,1.9605,1.9681,1.9671,1.9554,1.9286,1.8459,1.786,1.7517,1.7052,1.6751,1.6637,1.6524,1.6457,1.6457,1.6485,1.6581,1.674,1.674,1.6825,1.6948,1.6948,1.6987,1.7004,1.7134,1.7151,1.719,1.7323,1.7016,1.6396,1.6151,1.5678,1.5148,1.4887,1.4799,1.4811,1.4811,1.4811,1.4811,1.4811,1.4822,1.4811,1.4811,1.4522,1.4161,1.4057,1.4095,1.4206,1.4468,1.4696,1.5002,1.5515,1.5577,1.5601,1.5852,1.571,1.5507,1.5254,1.5176,1.5,1.4458,0.0,0.0,0.0,1.3791,1.3631,1.3511,1.345,1.3307,1.3042,1.3072,1.3072,1.2981,1.3549,1.3987,1.4238,1.4731,1.5106,1.5338,1.524,1.5204,1.5204,1.5355,1.5512,1.564,1.6192,1.6567,1.675,1.6915,1.7071,1.718,1.6894,1.6771,1.6771,1.6738,1.6689,1.6697,1.6779,1.6935,1.7139,1.7432,1.7716,1.808,1.8405,1.8448,1.8482,1.8482,1.865,1.8841,1.9042,1.9175,1.9341,1.9539,1.9572,1.9572,1.9605,1.9605,1.9671,1.9868,1.9868,1.9987,2.0258,1.9826,1.8925,1.7549,1.7052,1.6818,1.679,1.6881,1.6955,1.6955,1.7067,1.7134,1.7162,1.7162,1.7245,1.744,1.744,1.7534,1.7629,1.7645,1.7656,1.7656,1.7656,1.7087,1.6227,1.6193,1.5626,1.4832,1.4822,1.4846,1.488,1.488,1.488,1.488,1.488,1.4846,1.4811,1.4811,1.4764,1.4661,1.4303,1.4403,1.4637,1.468,1.535,1.5993,1.603,1.6269,1.65,1.6542,1.6257,1.5989,1.5845,1.572,1.5498,1.5029,0.0,0.0,1.4499,1.427,1.413,1.413,1.392,1.3739,1.3739,1.358,1.345,1.345,1.4282,1.4746,1.4649,1.5514,1.5939,1.5761,1.539,1.5204,1.5204,1.5204,1.5494,1.608,1.6425,1.6805,1.7184,1.7498,1.7553,1.7351,1.718,1.7049,1.7049,1.6812,1.6689,1.673,1.6976,1.7098,1.718,1.7749,1.7951,1.8121,1.8482,1.8617,1.8684,1.8684,1.8908,1.9152,1.9208,1.9374,1.955,1.9769,1.978,1.9813,1.9911,2.0009,2.014,2.0205,2.0302,2.0443,2.0572,2.0093,1.9307,1.8173,1.7632,1.7351,1.7351,1.7423,1.7412,1.7412,1.7479,1.7507,1.7507,1.7507,1.7534,1.7617,1.7617,1.7645,1.7711,1.7711,1.7711,1.7711,1.7711,1.7091,1.6207,1.6297,1.5727,1.4857,1.496,1.5051,1.5165,1.5165,1.5198,1.5277,1.5277,1.521,1.5085,1.4914,1.4857,1.4879,1.4971,1.5097,1.5359,1.5979,1.6383,1.6719,1.6907,1.7059,1.7106,1.6899,1.6758,1.6588,1.6361,1.621,1.6019,1.5623,0.0,1.5323,1.4961,1.4882,1.4725,1.4538,1.4419,1.433,1.424,1.4061,1.3941,1.3941,1.4404,1.4818,1.5,1.578,1.6202,1.6105,1.5956,1.578,1.5576,1.5832,1.6054,1.6243,1.6847,1.7252,1.7405,1.7612,1.7659,1.7578,1.7383,1.731,1.727,1.7188,1.7147,1.7147,1.727,1.7424,1.7668,1.7919,1.8353,1.8865,1.8674,1.8808,1.8908,1.8942,1.9142,1.9341,1.9483,1.9615,1.978,1.9933,2.0009,2.0107,2.0172,2.0378,2.0475,2.0475,2.0637,2.0733,2.0754,2.0166,1.9434,1.8542,1.8008,1.7711,1.7711,1.7728,1.7755,1.7755,1.7865,1.7931,1.7931,1.7947,1.7975,1.7975,1.7975,1.7975,1.7975,1.7975,1.7975,1.7975,1.7975,1.7474,1.6689,1.6619,1.6084,1.5326,1.5256,1.5266,1.5345,1.5345,1.5413,1.5491,1.5491,1.5424,1.5323,1.5142,1.5085,1.5211,1.5803,1.5986,1.6141,1.6826,1.7111,1.7286,1.7512,1.7562,1.7507,1.7273,1.7179,1.7106,1.6864,1.6705,1.6495,1.6171,1.6009,1.5827,1.5527,1.541,1.5264,1.504,1.4922,1.4813,1.4715,1.4547,1.4513,1.4632,1.4852,1.5186,1.5617,1.6049,1.6307,1.6307,1.6307,1.6175,1.5973,1.6273,1.6478,1.6488,1.7243,1.7652,1.7773,1.7871,1.7902,1.7902,1.7627,1.7514,1.7514,1.7514,1.7514,1.7505,1.7676,1.7878,1.8152,1.8353,1.8794,1.9341,1.9075,1.9108,1.9142,1.9285,1.9318,1.945,1.9835,1.99,1.9933,2.0074,2.0281,2.041,2.041,2.0572,2.0701,2.0701,2.0701,2.0754,2.0892,2.0137,1.9342,1.8548,1.7997,1.7711,1.7711,1.7826,1.7909,1.7909,1.8247,1.8394,1.8394,1.8545,1.8587,1.8587,1.8587,1.8587,1.8587,1.8587,1.8587,1.8587,1.8587,1.8281,1.7737,1.7195,1.6714,1.6232,1.5679,1.5491,1.5491,1.5491,1.5491,1.5491,1.5491,1.5491,1.5491,1.5491,1.5491,1.5715,1.6738,1.6995,1.7,1.6995,1.7369,1.7711,1.7711,1.7711,1.7711,1.7711,1.759,1.7451,1.7334,1.7145,1.6927,1.6655,1.6477,1.6345,1.6114,1.5865,1.5701,1.5701,1.541,1.5215,1.5215,1.5098,1.518,1.5579,1.5785,1.6112,1.6567,1.6403,1.6316,1.6316,1.6316,1.6316,1.6316,1.6525,1.6689,1.6927,1.7535,1.8035,1.8402,1.8402,1.8402,1.8402,1.7902,1.77,1.77,1.77,1.77,1.774,1.8233,1.8402,1.8482,1.9063,1.9301,1.942,1.9108,1.9175,1.9241,1.9274,1.9539,1.9769,1.9868,1.9976,2.0107,2.0281,2.0367,2.0443,2.0604,2.0754,2.0839,2.0839,2.0978,2.0946,2.0703,2.0153,1.9622,1.9078,1.8497,1.8205,1.8205,1.8317,1.8398,1.8398,1.8479,1.8545,1.8545,1.8587,1.8587,1.8587,1.8587,1.8587,1.8587,1.8587,1.8587,1.8587,1.8587,1.8281,1.7737,1.7195,1.6714,1.6232,1.5679,1.5558,1.5637,1.5637,1.5659,1.5703,1.5659,1.5637,1.5614,1.5536,1.5491,1.5715,1.6738,1.6995,1.7182,1.7929,1.824,1.8317,1.8317,1.8247,1.815,1.8002,1.7854,1.7744,1.7601,1.7379,1.7183,1.7099,1.6846,1.662,1.6457,1.6306,1.6144,1.6009,1.5817,1.5682,1.5682,1.5743,1.5807,1.5933,1.6344,1.6802,1.7226,1.7185,1.7151,1.7151,1.7151,1.7151,1.7134,1.7222,1.7257,1.7342,1.8087,1.8506,1.8612,1.8612,1.8612,1.8612,1.8442,1.8402,1.8402,1.8402,1.8402,1.8402,1.8571,1.8803,1.9063,1.9222,1.9696,2.0284,1.9175,1.9241,1.9351,1.9506,1.9736,1.99,1.9966,2.0107,2.0281,2.0378,2.0529,2.0658,2.0754,2.0903,2.1031,2.1031,2.0974,2.0784,2.0426,1.9925,1.9469,1.9026,1.8721,1.853,1.8464,1.856,1.8587,1.8587,1.864,1.8679,1.8679,1.8721,1.8747,1.8747,1.8801,1.8839,1.8839,1.8893,1.8907,1.8907,1.8907,1.8716,1.8356,1.7589,1.7147,1.6788,1.6056,1.5836,1.5893,1.5893,1.5925,1.5947,1.5915,1.5859,1.5814,1.5714,1.5669,1.5828,1.6883,1.7168,1.7416,1.8486,1.8667,1.8587,1.8587,1.8545,1.8437,1.8329,1.8193,1.8057,1.7904,1.7673,1.7518,1.7462,1.7211,1.6959,1.6902,1.6676,1.6506,1.6381,1.6432,1.6429,1.6351,1.6528,1.6665,1.6678,1.7106,1.7408,1.7579,1.7529,1.7505,1.7505,1.7505,1.759,1.7746,1.7899,1.7884,1.7752,1.8469,1.8812,1.8812,1.8812,1.8851,1.8922,1.8851,1.8851,1.8922,1.9011,1.9051,1.9051,1.9121,1.9311,1.9539,1.9736,2.0167,2.0644,1.9285,1.9318,1.9483,1.9835,1.99,1.9976,2.0107,2.0281,2.041,2.0443,2.0711,2.0903,2.0924,2.1094,2.1221,2.1221,2.0873,2.0472,2.0147,1.9629,1.9101,1.8664,1.8759,1.8771,1.8667,1.864,1.864,1.864,1.8771,1.8825,1.8825,1.8972,1.904,1.904,1.917,1.9223,1.9223,1.9342,1.9394,1.9394,1.9394,1.9394,1.9284,1.8253,1.7847,1.7675,1.6643,1.6237,1.62,1.62,1.62,1.62,1.62,1.6122,1.6022,1.6022,1.5935,1.6065,1.7147,1.7436,1.7689,1.8787,1.8854,1.8667,1.864,1.864,1.8614,1.8614,1.8518,1.8367,1.8166,1.8018,1.7881,1.7728,1.749,1.7334,1.7334,1.7071,1.6885,1.6899,1.7167,1.7294,1.7128,1.739,1.7621,1.77,1.7917,1.7964,1.7774,1.7666,1.7573,1.7573,1.7573,1.7792,1.824,1.8566,1.8555,1.8214,1.8804,1.9082,1.9082,1.9082,1.9192,1.9341,1.9152,1.9192,1.9381,1.9597,1.9685,1.9715,1.9902,1.9981,2.0059,2.0489,2.0683,2.0828,1.9274,1.9539,1.9802,1.9868,1.9976,2.0107,2.0313,2.0378,2.0496,2.0743,2.0839,2.0967,2.1126,2.1273,2.1368,2.1368,2.1027,2.0652,2.028,1.9748,1.9282,1.8931,1.8934,1.8999,1.9064,1.8972,1.8907,1.8907,1.9064,1.9103,1.9129,1.9237,1.9316,1.9316,1.9342,1.9368,1.9368,1.9394,1.9394,1.9394,1.9394,1.9394,1.9321,1.8695,1.8179,1.7724,1.706,1.6556,1.62,1.62,1.62,1.62,1.62,1.6178,1.6166,1.6166,1.6144,1.6345,1.7421,1.7714,1.7971,1.9047,1.9263,1.9172,1.896,1.8839,1.8771,1.8771,1.8652,1.8518,1.8367,1.8166,1.8002,1.7881,1.7728,1.7601,1.7601,1.7451,1.7444,1.7701,1.7668,1.7696,1.7918,1.8093,1.8294,1.8525,1.8455,1.8381,1.8337,1.8313,1.8279,1.8279,1.8279,1.8612,1.9275,1.9146,1.9076,1.9069,1.947,1.9706,1.9706,1.9706,1.9745,1.9784,1.9706,1.9863,2.0108,2.0147,2.0225,2.0372,2.0411,2.0557,2.0712,2.0964,2.1272,2.1593,1.9572,1.978,1.99,1.9976,2.014,2.0281,2.0378,2.0529,2.0679,2.0871,2.0999,2.1126,2.1273,2.1368,2.1358,2.1279,2.0865,2.0463,2.0072,1.9547,1.9195,1.909,1.9105,1.917,1.9302,1.9237,1.9184,1.9184,1.9263,1.9302,1.9302,1.9368,1.9394,1.9394,1.9473,1.9486,1.9486,1.9565,1.9591,1.9591,1.9591,1.9591,1.9554,1.907,1.8709,1.8409,1.7929,1.74,1.6864,1.6622,1.6504,1.6439,1.6439,1.6362,1.6297,1.6297,1.6253,1.6434,1.7515,1.781,1.8068,1.9124,1.9394,1.9368,1.9225,1.909,1.8984,1.8984,1.8813,1.8679,1.861,1.8437,1.8317,1.8263,1.8057,1.7904,1.7904,1.7728,1.7779,1.82,1.835,1.8589,1.9069,1.9019,1.9046,1.9154,1.9019,1.8885,1.8885,1.8808,1.8774,1.8774,1.8674,1.9041,1.9847,1.965,1.9757,2.0206,2.0003,1.9902,1.9902,1.9902,2.002,2.0216,2.0216,2.0411,2.0731,2.0731,2.0848,2.1031,2.1031,2.1146,2.1339,2.1578,2.1786,2.2057,1.9868,1.99,1.9976,2.0118,2.0281,2.041,2.0475,2.0711,2.0903,2.0935,2.1126,2.1273,2.1388,2.1451,2.1424,2.1288,2.07,2.0239,1.9977,1.939,1.9078,1.9223,1.9223,1.9302,1.942,1.942,1.942,1.9394,1.942,1.942,1.942,1.9473,1.9473,1.9499,1.9617,1.9694,1.972,1.9811,1.9862,1.9862,1.9862,1.9862,1.9838,1.9497,1.9318,1.919,1.8862,1.8359,1.7798,1.7346,1.7042,1.6858,1.6858,1.6696,1.6491,1.647,1.6362,1.6522,1.7586,1.7858,1.8117,1.9202,1.9473,1.9473,1.9473,1.9342,1.9223,1.9223,1.9037,1.8851,1.8851,1.8732,1.8625,1.8587,1.8383,1.8193,1.8193,1.8082,1.8193,1.8679,1.9178,1.9689,2.016,1.9922,1.9736,1.9736,1.9539,1.944,1.944,1.9308,1.9231,1.9231,1.9042,1.9373,2.0252,2.0093,2.0477,2.1359,2.0576,2.0177,2.0137,2.0137,2.0333,2.0683,2.0722,2.0964,2.132,2.1359,2.1474,2.1655,2.1655,2.1769,2.1987,2.2167,2.2293,2.232,1.99,2.0009,2.014,2.0346,2.0378,2.0496,2.0775,2.0871,2.0967,2.1126,2.1273,2.1388,2.1388,2.1663,2.1901,2.2027,2.1146,2.0603,2.0661,1.9728,1.9223,1.9368,1.9368,1.9447,1.9565,1.9565,1.9512,1.9394,1.9512,1.9565,1.9591,1.9682,1.9811,1.9913,1.9939,2.0016,2.0131,2.0131,2.0156,2.0156,2.0156,2.0156,2.0144,2.0092,1.9773,1.9363,1.9297,1.8937,1.8472,1.8395,1.8003,1.7562,1.7562,1.7229,1.6812,1.6697,1.6654,1.6851,1.7879,1.8157,1.8407,1.9484,1.9759,1.9759,1.9759,1.9539,1.9368,1.9368,1.9249,1.9117,1.8999,1.8866,1.8732,1.8614,1.856,1.8533,1.8533,1.8889,1.9284,1.968,2.0266,2.066,2.0614,2.041,2.0281,2.0281,2.0118,2.0009,2.0009,1.9857,1.9802,1.9802,1.9605,1.9927,2.0868,2.068,2.1068,2.1949,2.1683,2.1349,2.1002,2.1002,2.1051,2.1128,2.131,2.1502,2.1731,2.1921,2.2101,2.2289,2.2289,2.2402,2.2585,2.2677,2.2641,2.2514,2.0009,2.014,2.0313,2.0378,2.0561,2.0722,2.0871,2.0999,2.1126,2.1273,2.1368,2.1463,2.1663,2.1894,2.1973,2.1777,2.1102,2.0621,2.0374,1.9702,1.9368,1.9512,1.9512,1.9565,1.9708,1.9708,1.972,1.9733,1.9798,1.9823,1.9823,1.9952,2.0054,2.0105,2.0105,2.0131,2.0207,2.0207,2.0207,2.0207,2.0207,2.0207,2.0207,2.0322,2.0218,1.9984,1.971,1.9462,1.9214,1.889,1.8584,1.8322,1.8322,1.8097,1.7833,1.7779,1.7757,1.7935,1.8668,1.8873,1.9051,1.9826,2.0016,2.0016,2.0016,1.9914,1.9772,1.9565,1.942,1.9302,1.9237,1.9184,1.9105,1.9052,1.8907,1.8935,1.9221,1.9357,1.9665,2.0375,2.0896,2.1146,2.1094,2.0935,2.0786,2.069,2.0603,2.0506,2.0453,2.0367,2.0335,2.0335,2.0424,2.0759,2.142,2.1432,2.1758,2.244,2.2214,2.1921,2.155,2.155,2.1589,2.1693,2.1807,2.1987,2.2327,2.2402,2.2628,2.2889,2.2889,2.2911,2.2872,2.2466,2.2376,2.2467]}]]